GEFSMW_prec_meanprecacc_006.txt.gz
Total_Precipitation_Accumulation
0.00 0.00 0.00 0.00 0.00 0.00 0.00 0.00 0.00 0.00 0.00 0.00 0.00 0.00 0.00 0.00 0.00 0.00 0.00 0.00 0.00 0.00 0.00 0.00 0.00 0.00 0.00 0.00 0.00 0.00 0.00 0.00 0.00 0.00 0.00 0.00 0.00 0.00 0.00 0.00 0.00 0.00 0.00
0.00 0.00 0.00 0.00 0.00 0.00 0.00 0.00 0.00 0.00 0.00 0.00 0.00 0.00 0.00 0.00 0.00 0.00 0.00 0.00 0.00 0.00 0.00 0.00 0.00 0.00 0.00 0.00 0.00 0.00 0.00 0.00 0.00 0.00 0.00 0.00 0.00 0.00 0.00 0.00 0.00 0.00 0.00
0.00 0.00 0.00 0.00 0.00 0.00 0.00 0.00 0.00 0.00 0.00 0.00 0.00 0.00 0.00 0.00 0.00 0.00 0.00 0.00 0.00 0.00 0.00 0.00 0.00 0.00 0.00 0.00 0.00 0.00 0.00 0.00 0.00 0.00 0.00 0.00 0.00 0.00 0.00 0.00 0.00 0.00 0.00
0.00 0.00 0.00 0.00 0.00 0.00 0.00 0.00 0.00 0.00 0.00 0.00 0.00 0.00 0.00 0.00 0.00 0.00 0.00 0.00 0.00 0.00 0.00 0.00 0.00 0.00 0.00 0.00 0.00 0.00 0.01 0.01 0.01 0.00 0.00 0.00 0.00 0.01 0.00 0.00 0.00 0.00 0.00
0.00 0.00 0.00 0.00 0.00 0.00 0.00 0.00 0.00 0.00 0.00 0.00 0.00 0.00 0.00 0.00 0.00 0.00 0.00 0.00 0.00 0.00 0.00 0.00 0.00 0.00 0.01 0.01 0.02 0.02 0.03 0.02 0.02 0.01 0.01 0.01 0.01 0.01 0.01 0.01 0.00 0.00 0.00
0.00 0.00 0.00 0.00 0.00 0.00 0.00 0.00 0.00 0.00 0.00 0.00 0.00 0.00 0.00 0.00 0.00 0.00 0.00 0.00 0.00 0.00 0.00 0.00 0.00 0.00 0.01 0.01 0.02 0.04 0.05 0.06 0.07 0.06 0.06 0.05 0.04 0.02 0.02 0.01 0.01 0.00 0.00
0.00 0.00 0.00 0.00 0.00 0.00 0.00 0.00 0.00 0.00 0.00 0.00 0.00 0.00 0.00 0.00 0.00 0.00 0.00 0.00 0.00 0.00 0.00 0.00 0.00 0.00 0.01 0.01 0.02 0.04 0.06 0.08 0.12 0.13 0.13 0.13 0.11 0.08 0.08 0.07 0.05 0.03 0.01
0.00 0.00 0.00 0.00 0.00 0.00 0.00 0.00 0.00 0.00 0.00 0.00 0.00 0.00 0.00 0.00 0.00 0.00 0.00 0.00 0.00 0.00 0.00 0.00 0.00 0.00 0.01 0.01 0.02 0.05 0.06 0.09 0.11 0.13 0.14 0.15 0.14 0.15 0.15 0.14 0.12 0.08 0.03
0.00 0.00 0.00 0.00 0.00 0.00 0.00 0.00 0.00 0.00 0.00 0.00 0.00 0.00 0.00 0.00 0.00 0.00 0.00 0.00 0.00 0.00 0.00 0.00 0.00 0.00 0.00 0.00 0.01 0.02 0.03 0.04 0.06 0.08 0.10 0.12 0.12 0.13 0.13 0.14 0.16 0.16 0.11
0.00 0.00 0.00 0.00 0.00 0.00 0.00 0.00 0.00 0.00 0.00 0.00 0.00 0.00 0.00 0.00 0.00 0.00 0.00 0.00 0.00 0.00 0.00 0.00 0.00 0.00 0.00 0.00 0.00 0.00 0.01 0.01 0.02 0.04 0.07 0.09 0.10 0.11 0.12 0.13 0.14 0.17 0.18
0.00 0.00 0.00 0.00 0.00 0.00 0.00 0.00 0.00 0.00 0.00 0.00 0.00 0.00 0.00 0.00 0.00 0.00 0.00 0.00 0.00 0.00 0.00 0.00 0.00 0.00 0.00 0.00 0.00 0.00 0.00 0.00 0.01 0.03 0.05 0.07 0.09 0.11 0.11 0.11 0.13 0.14 0.18
0.00 0.00 0.00 0.00 0.00 0.00 0.00 0.00 0.00 0.00 0.00 0.00 0.00 0.00 0.00 0.00 0.00 0.00 0.00 0.00 0.00 0.00 0.00 0.00 0.00 0.00 0.00 0.00 0.00 0.00 0.00 0.00 0.00 0.01 0.02 0.04 0.06 0.08 0.11 0.13 0.12 0.12 0.14
0.00 0.00 0.00 0.00 0.00 0.00 0.00 0.00 0.00 0.00 0.00 0.00 0.00 0.00 0.00 0.00 0.00 0.00 0.00 0.00 0.00 0.00 0.00 0.00 0.00 0.00 0.00 0.00 0.00 0.00 0.00 0.00 0.00 0.01 0.01 0.01 0.02 0.02 0.05 0.08 0.11 0.12 0.15
0.00 0.00 0.00 0.00 0.00 0.00 0.00 0.00 0.00 0.00 0.00 0.00 0.00 0.00 0.00 0.00 0.00 0.00 0.00 0.00 0.00 0.00 0.00 0.00 0.00 0.00 0.00 0.00 0.00 0.00 0.00 0.00 0.00 0.00 0.01 0.01 0.01 0.02 0.03 0.06 0.08 0.12 0.16
0.00 0.00 0.00 0.00 0.00 0.00 0.00 0.00 0.00 0.00 0.00 0.00 0.00 0.00 0.00 0.00 0.00 0.00 0.00 0.00 0.00 0.00 0.00 0.00 0.00 0.00 0.00 0.00 0.00 0.00 0.00 0.00 0.00 0.00 0.00 0.00 0.00 0.01 0.02 0.05 0.07 0.11 0.13
0.00 0.00 0.00 0.00 0.00 0.00 0.00 0.00 0.00 0.00 0.00 0.00 0.00 0.00 0.00 0.00 0.00 0.00 0.00 0.00 0.00 0.00 0.00 0.00 0.00 0.00 0.00 0.00 0.00 0.00 0.00 0.00 0.00 0.00 0.00 0.00 0.00 0.01 0.02 0.04 0.05 0.07 0.10
0.00 0.00 0.00 0.00 0.00 0.00 0.00 0.00 0.00 0.00 0.00 0.00 0.00 0.00 0.00 0.00 0.00 0.00 0.00 0.00 0.00 0.00 0.00 0.00 0.00 0.00 0.00 0.00 0.00 0.00 0.00 0.00 0.00 0.00 0.00 0.00 0.01 0.02 0.03 0.03 0.02 0.02 0.05
0.00 0.00 0.00 0.00 0.00 0.00 0.00 0.00 0.00 0.00 0.00 0.00 0.00 0.00 0.00 0.00 0.00 0.00 0.00 0.00 0.00 0.00 0.00 0.00 0.00 0.00 0.00 0.00 0.00 0.00 0.00 0.00 0.00 0.00 0.00 0.00 0.01 0.01 0.02 0.03 0.03 0.01 0.01
0.00 0.00 0.00 0.00 0.00 0.00 0.00 0.00 0.00 0.00 0.00 0.00 0.00 0.00 0.00 0.00 0.00 0.00 0.00 0.00 0.00 0.00 0.00 0.00 0.00 0.00 0.00 0.00 0.00 0.00 0.00 0.00 0.00 0.00 0.00 0.00 0.00 0.00 0.01 0.02 0.01 0.01 0.01
0.00 0.00 0.00 0.00 0.00 0.00 0.00 0.00 0.00 0.00 0.00 0.00 0.00 0.00 0.00 0.00 0.00 0.00 0.00 0.00 0.00 0.00 0.00 0.00 0.00 0.00 0.00 0.00 0.00 0.00 0.00 0.00 0.00 0.00 0.00 0.00 0.00 0.00 0.00 0.01 0.01 0.01 0.01
0.00 0.00 0.00 0.00 0.00 0.00 0.00 0.00 0.00 0.00 0.00 0.00 0.00 0.00 0.00 0.00 0.00 0.00 0.00 0.00 0.00 0.00 0.00 0.00 0.00 0.00 0.00 0.00 0.00 0.00 0.00 0.00 0.00 0.00 0.00 0.00 0.00 0.00 0.00 0.01 0.01 0.02 0.03
0.00 0.00 0.00 0.00 0.00 0.00 0.00 0.00 0.00 0.00 0.00 0.00 0.00 0.00 0.00 0.00 0.00 0.00 0.00 0.00 0.00 0.00 0.00 0.00 0.00 0.00 0.00 0.00 0.00 0.00 0.00 0.01 0.01 0.01 0.01 0.00 0.00 0.00 0.01 0.01 0.02 0.02 0.03
0.00 0.00 0.00 0.00 0.00 0.00 0.00 0.00 0.00 0.00 0.00 0.00 0.00 0.00 0.00 0.00 0.00 0.00 0.00 0.00 0.00 0.00 0.00 0.00 0.00 0.00 0.00 0.00 0.00 0.00 0.01 0.01 0.02 0.01 0.01 0.01 0.01 0.01 0.01 0.02 0.02 0.02 0.03
0.00 0.00 0.00 0.00 0.00 0.00 0.00 0.00 0.00 0.00 0.00 0.00 0.00 0.00 0.00 0.00 0.00 0.00 0.00 0.00 0.00 0.00 0.00 0.00 0.00 0.00 0.00 0.00 0.00 0.00 0.01 0.01 0.01 0.00 0.00 0.01 0.01 0.01 0.02 0.02 0.01 0.02 0.04
0.00 0.00 0.00 0.00 0.00 0.00 0.00 0.00 0.00 0.00 0.00 0.00 0.00 0.00 0.00 0.00 0.00 0.00 0.00 0.00 0.00 0.00 0.00 0.00 0.00 0.01 0.01 0.01 0.02 0.02 0.02 0.02 0.01 0.01 0.01 0.01 0.01 0.01 0.01 0.01 0.01 0.01 0.03
0.00 0.00 0.00 0.00 0.00 0.00 0.00 0.00 0.00 0.00 0.00 0.00 0.00 0.00 0.00 0.00 0.00 0.00 0.00 0.00 0.00 0.00 0.00 0.00 0.01 0.01 0.01 0.01 0.02 0.02 0.03 0.02 0.01 0.02 0.01 0.01 0.01 0.02 0.02 0.02 0.02 0.02 0.03

GEFSMW_prec_meanprecacc_012.txt.gz
Total_Precipitation_Accumulation
0.00 0.00 0.00 0.00 0.00 0.00 0.00 0.00 0.00 0.00 0.00 0.00 0.00 0.00 0.00 0.00 0.00 0.00 0.00 0.00 0.00 0.00 0.00 0.00 0.00 0.00 0.00 0.00 0.00 0.00 0.00 0.00 0.00 0.00 0.00 0.00 0.00 0.00 0.00 0.00 0.00 0.00 0.00
0.00 0.00 0.00 0.00 0.00 0.00 0.00 0.00 0.00 0.00 0.00 0.00 0.00 0.00 0.00 0.00 0.00 0.00 0.00 0.00 0.00 0.00 0.00 0.00 0.00 0.00 0.00 0.00 0.00 0.00 0.00 0.00 0.00 0.01 0.02 0.01 0.00 0.00 0.00 0.00 0.00 0.00 0.00
0.00 0.00 0.00 0.00 0.00 0.00 0.00 0.00 0.00 0.00 0.00 0.00 0.00 0.00 0.00 0.00 0.00 0.00 0.00 0.00 0.00 0.00 0.00 0.00 0.00 0.00 0.00 0.00 0.00 0.00 0.01 0.02 0.01 0.01 0.03 0.04 0.02 0.01 0.00 0.00 0.00 0.00 0.00
0.00 0.00 0.00 0.00 0.00 0.00 0.00 0.00 0.00 0.00 0.00 0.00 0.00 0.00 0.00 0.00 0.00 0.00 0.00 0.00 0.00 0.00 0.00 0.00 0.00 0.00 0.00 0.00 0.01 0.01 0.02 0.03 0.03 0.02 0.03 0.05 0.06 0.08 0.06 0.01 0.00 0.00 0.00
0.00 0.00 0.00 0.00 0.00 0.00 0.00 0.00 0.00 0.00 0.00 0.00 0.00 0.00 0.00 0.00 0.00 0.00 0.00 0.00 0.00 0.00 0.00 0.00 0.00 0.00 0.01 0.01 0.02 0.03 0.04 0.05 0.06 0.06 0.06 0.07 0.08 0.09 0.11 0.06 0.02 0.01 0.00
0.00 0.00 0.00 0.00 0.00 0.00 0.00 0.00 0.00 0.00 0.00 0.00 0.00 0.00 0.00 0.00 0.00 0.00 0.00 0.00 0.00 0.00 0.00 0.00 0.00 0.00 0.01 0.01 0.02 0.04 0.06 0.07 0.09 0.11 0.11 0.12 0.12 0.10 0.11 0.08 0.04 0.03 0.01
0.00 0.00 0.00 0.00 0.00 0.00 0.00 0.00 0.00 0.00 0.00 0.00 0.00 0.00 0.00 0.00 0.00 0.00 0.00 0.00 0.00 0.00 0.00 0.00 0.00 0.00 0.01 0.01 0.02 0.04 0.06 0.09 0.12 0.14 0.15 0.16 0.15 0.15 0.16 0.16 0.11 0.07 0.03
0.00 0.00 0.00 0.00 0.00 0.00 0.00 0.00 0.00 0.00 0.00 0.00 0.00 0.00 0.00 0.00 0.00 0.00 0.00 0.00 0.00 0.00 0.00 0.00 0.00 0.00 0.01 0.01 0.02 0.05 0.06 0.09 0.11 0.13 0.14 0.16 0.14 0.16 0.17 0.18 0.18 0.13 0.05
0.00 0.00 0.00 0.00 0.00 0.00 0.00 0.00 0.00 0.00 0.00 0.00 0.00 0.00 0.00 0.00 0.00 0.00 0.00 0.00 0.00 0.00 0.00 0.00 0.00 0.00 0.00 0.00 0.01 0.02 0.03 0.04 0.06 0.08 0.10 0.12 0.12 0.13 0.13 0.15 0.21 0.24 0.16
0.00 0.00 0.00 0.00 0.00 0.00 0.00 0.00 0.00 0.00 0.00 0.00 0.00 0.00 0.00 0.00 0.00 0.00 0.00 0.00 0.00 0.00 0.00 0.00 0.00 0.00 0.00 0.00 0.00 0.00 0.01 0.01 0.02 0.04 0.07 0.09 0.10 0.11 0.12 0.13 0.15 0.22 0.25
0.00 0.00 0.00 0.00 0.00 0.00 0.00 0.00 0.00 0.00 0.00 0.00 0.00 0.00 0.00 0.00 0.00 0.00 0.00 0.00 0.00 0.00 0.00 0.00 0.00 0.00 0.00 0.00 0.00 0.00 0.00 0.00 0.01 0.03 0.05 0.07 0.09 0.11 0.11 0.12 0.13 0.15 0.20
0.00 0.00 0.00 0.00 0.00 0.00 0.00 0.00 0.00 0.00 0.00 0.00 0.00 0.00 0.00 0.00 0.00 0.00 0.00 0.00 0.00 0.00 0.00 0.00 0.00 0.00 0.00 0.00 0.00 0.00 0.00 0.00 0.00 0.01 0.02 0.04 0.06 0.08 0.11 0.13 0.13 0.12 0.15
0.00 0.00 0.00 0.00 0.00 0.00 0.00 0.00 0.00 0.00 0.00 0.00 0.00 0.00 0.00 0.00 0.00 0.00 0.00 0.00 0.00 0.00 0.00 0.00 0.00 0.00 0.00 0.00 0.00 0.00 0.00 0.00 0.00 0.01 0.01 0.01 0.02 0.02 0.05 0.08 0.11 0.12 0.15
0.00 0.00 0.00 0.00 0.00 0.00 0.00 0.00 0.00 0.00 0.00 0.00 0.00 0.00 0.00 0.00 0.00 0.00 0.00 0.00 0.00 0.00 0.00 0.00 0.00 0.00 0.00 0.00 0.00 0.00 0.00 0.00 0.00 0.00 0.01 0.01 0.01 0.02 0.03 0.06 0.08 0.13 0.16
0.00 0.00 0.00 0.00 0.00 0.00 0.00 0.00 0.00 0.00 0.00 0.00 0.00 0.00 0.00 0.00 0.00 0.00 0.00 0.00 0.00 0.00 0.00 0.00 0.00 0.00 0.00 0.00 0.00 0.00 0.00 0.00 0.00 0.00 0.00 0.00 0.00 0.01 0.02 0.05 0.07 0.11 0.13
0.00 0.00 0.00 0.00 0.00 0.00 0.00 0.00 0.00 0.00 0.00 0.00 0.00 0.00 0.00 0.00 0.00 0.00 0.00 0.00 0.00 0.00 0.00 0.00 0.00 0.00 0.00 0.00 0.00 0.00 0.00 0.00 0.00 0.00 0.00 0.00 0.00 0.01 0.02 0.04 0.05 0.08 0.11
0.00 0.00 0.00 0.00 0.00 0.00 0.00 0.00 0.00 0.00 0.00 0.00 0.00 0.00 0.00 0.00 0.00 0.00 0.00 0.00 0.00 0.00 0.00 0.00 0.00 0.00 0.00 0.00 0.00 0.00 0.00 0.00 0.00 0.00 0.00 0.00 0.01 0.02 0.03 0.03 0.03 0.03 0.05
0.00 0.00 0.00 0.00 0.00 0.00 0.00 0.00 0.00 0.00 0.00 0.00 0.00 0.00 0.00 0.00 0.00 0.00 0.00 0.00 0.00 0.00 0.00 0.00 0.00 0.00 0.00 0.00 0.00 0.00 0.00 0.00 0.00 0.00 0.00 0.00 0.01 0.01 0.03 0.04 0.03 0.02 0.01
0.00 0.00 0.00 0.00 0.00 0.00 0.00 0.00 0.00 0.00 0.00 0.00 0.00 0.00 0.00 0.00 0.00 0.00 0.00 0.00 0.00 0.00 0.00 0.00 0.00 0.00 0.00 0.00 0.00 0.00 0.00 0.00 0.00 0.00 0.00 0.00 0.00 0.01 0.02 0.03 0.03 0.02 0.01
0.00 0.00 0.00 0.00 0.00 0.00 0.00 0.00 0.00 0.00 0.00 0.00 0.00 0.00 0.00 0.00 0.00 0.00 0.00 0.00 0.00 0.00 0.00 0.00 0.00 0.00 0.00 0.00 0.00 0.00 0.00 0.01 0.01 0.01 0.00 0.00 0.01 0.01 0.02 0.03 0.03 0.03 0.02
0.00 0.00 0.00 0.00 0.00 0.00 0.00 0.00 0.00 0.00 0.00 0.00 0.00 0.00 0.00 0.00 0.00 0.00 0.00 0.00 0.00 0.00 0.00 0.00 0.00 0.00 0.00 0.00 0.00 0.01 0.01 0.02 0.02 0.02 0.01 0.00 0.01 0.02 0.02 0.03 0.03 0.05 0.07
0.00 0.00 0.00 0.00 0.00 0.00 0.00 0.00 0.00 0.00 0.00 0.00 0.00 0.00 0.00 0.00 0.00 0.00 0.00 0.00 0.00 0.00 0.00 0.00 0.00 0.00 0.00 0.00 0.00 0.01 0.02 0.04 0.04 0.03 0.02 0.01 0.02 0.02 0.02 0.02 0.03 0.05 0.05
0.00 0.00 0.00 0.00 0.00 0.00 0.00 0.00 0.00 0.00 0.00 0.00 0.00 0.00 0.00 0.00 0.00 0.00 0.00 0.00 0.00 0.00 0.00 0.00 0.00 0.00 0.00 0.00 0.00 0.01 0.03 0.04 0.04 0.03 0.03 0.02 0.02 0.02 0.01 0.02 0.03 0.04 0.04
0.00 0.00 0.00 0.00 0.00 0.00 0.00 0.00 0.00 0.00 0.00 0.00 0.00 0.00 0.00 0.00 0.00 0.00 0.00 0.00 0.00 0.00 0.00 0.00 0.00 0.00 0.00 0.00 0.01 0.02 0.03 0.03 0.03 0.04 0.03 0.02 0.01 0.01 0.02 0.02 0.02 0.02 0.06
0.00 0.00 0.00 0.00 0.00 0.00 0.00 0.00 0.00 0.00 0.00 0.00 0.00 0.00 0.00 0.00 0.00 0.00 0.00 0.00 0.00 0.00 0.00 0.01 0.01 0.02 0.02 0.02 0.05 0.06 0.05 0.06 0.05 0.04 0.02 0.01 0.01 0.01 0.01 0.01 0.01 0.02 0.04
0.00 0.00 0.00 0.00 0.00 0.00 0.00 0.00 0.00 0.00 0.00 0.00 0.00 0.00 0.00 0.00 0.00 0.00 0.00 0.00 0.00 0.00 0.00 0.01 0.02 0.02 0.02 0.04 0.05 0.06 0.07 0.06 0.04 0.03 0.02 0.01 0.01 0.02 0.03 0.03 0.03 0.03 0.04

GEFSMW_prec_meanprecacc_018.txt.gz
Total_Precipitation_Accumulation
0.00 0.00 0.00 0.00 0.00 0.00 0.00 0.00 0.00 0.00 0.00 0.00 0.00 0.00 0.00 0.00 0.00 0.00 0.00 0.00 0.00 0.00 0.00 0.00 0.00 0.00 0.00 0.00 0.00 0.00 0.00 0.00 0.00 0.00 0.01 0.00 0.00 0.00 0.00 0.00 0.00 0.00 0.00
0.00 0.00 0.00 0.00 0.00 0.00 0.00 0.00 0.00 0.00 0.00 0.00 0.00 0.00 0.00 0.00 0.00 0.00 0.00 0.00 0.00 0.00 0.00 0.00 0.00 0.00 0.00 0.00 0.00 0.00 0.00 0.01 0.00 0.01 0.03 0.02 0.00 0.00 0.00 0.00 0.00 0.00 0.00
0.00 0.00 0.00 0.00 0.00 0.00 0.00 0.00 0.00 0.00 0.00 0.00 0.00 0.00 0.00 0.00 0.00 0.00 0.00 0.00 0.00 0.00 0.00 0.00 0.00 0.00 0.00 0.00 0.00 0.00 0.01 0.02 0.01 0.01 0.04 0.05 0.04 0.02 0.01 0.00 0.00 0.00 0.00
0.00 0.00 0.00 0.00 0.00 0.00 0.00 0.00 0.00 0.00 0.00 0.00 0.00 0.00 0.00 0.00 0.00 0.00 0.00 0.00 0.00 0.00 0.00 0.00 0.00 0.00 0.00 0.00 0.01 0.01 0.02 0.03 0.03 0.02 0.03 0.06 0.07 0.09 0.06 0.02 0.00 0.00 0.00
0.00 0.00 0.00 0.00 0.00 0.00 0.00 0.00 0.00 0.00 0.00 0.00 0.00 0.00 0.00 0.00 0.00 0.00 0.00 0.00 0.00 0.00 0.00 0.00 0.00 0.00 0.01 0.01 0.02 0.03 0.04 0.05 0.06 0.06 0.06 0.07 0.08 0.10 0.11 0.06 0.02 0.01 0.00
0.00 0.00 0.00 0.00 0.00 0.00 0.00 0.00 0.00 0.00 0.00 0.00 0.00 0.00 0.00 0.00 0.00 0.00 0.00 0.00 0.00 0.00 0.00 0.00 0.00 0.00 0.01 0.01 0.02 0.04 0.06 0.07 0.09 0.11 0.11 0.12 0.12 0.10 0.11 0.08 0.04 0.03 0.01
0.00 0.00 0.00 0.00 0.00 0.00 0.00 0.00 0.00 0.00 0.00 0.00 0.00 0.00 0.00 0.00 0.00 0.00 0.00 0.00 0.00 0.00 0.00 0.00 0.00 0.00 0.01 0.01 0.02 0.04 0.06 0.09 0.12 0.14 0.15 0.16 0.15 0.15 0.16 0.16 0.11 0.07 0.03
0.00 0.00 0.00 0.00 0.00 0.00 0.00 0.00 0.00 0.00 0.00 0.00 0.00 0.00 0.00 0.00 0.00 0.00 0.00 0.00 0.00 0.00 0.00 0.00 0.00 0.00 0.01 0.01 0.02 0.05 0.06 0.09 0.11 0.13 0.14 0.16 0.14 0.16 0.17 0.19 0.20 0.14 0.05
0.00 0.00 0.00 0.00 0.00 0.00 0.00 0.00 0.00 0.00 0.00 0.00 0.00 0.00 0.00 0.00 0.00 0.00 0.00 0.00 0.00 0.00 0.00 0.00 0.00 0.00 0.00 0.00 0.01 0.02 0.03 0.04 0.06 0.08 0.10 0.12 0.12 0.13 0.13 0.16 0.23 0.26 0.17
0.00 0.00 0.00 0.00 0.00 0.00 0.00 0.00 0.00 0.00 0.00 0.00 0.00 0.00 0.00 0.00 0.00 0.00 0.00 0.00 0.00 0.00 0.00 0.00 0.00 0.00 0.00 0.00 0.00 0.00 0.01 0.01 0.02 0.04 0.07 0.09 0.10 0.11 0.13 0.13 0.15 0.22 0.26
0.00 0.00 0.00 0.00 0.00 0.00 0.00 0.00 0.00 0.00 0.00 0.00 0.00 0.00 0.00 0.00 0.00 0.00 0.00 0.00 0.00 0.00 0.00 0.00 0.00 0.00 0.00 0.00 0.00 0.00 0.00 0.00 0.01 0.03 0.05 0.07 0.09 0.11 0.11 0.12 0.13 0.15 0.21
0.00 0.00 0.00 0.00 0.00 0.00 0.00 0.00 0.00 0.00 0.00 0.00 0.00 0.00 0.00 0.00 0.00 0.00 0.00 0.00 0.00 0.00 0.00 0.00 0.00 0.00 0.00 0.00 0.00 0.00 0.00 0.00 0.00 0.01 0.02 0.04 0.06 0.08 0.11 0.13 0.13 0.13 0.15
0.00 0.00 0.00 0.00 0.00 0.00 0.00 0.00 0.00 0.00 0.00 0.00 0.00 0.00 0.00 0.00 0.00 0.00 0.00 0.00 0.00 0.00 0.00 0.00 0.00 0.00 0.00 0.00 0.00 0.00 0.00 0.00 0.00 0.01 0.01 0.01 0.02 0.02 0.05 0.08 0.11 0.13 0.16
0.00 0.00 0.00 0.00 0.00 0.00 0.00 0.00 0.00 0.00 0.00 0.00 0.00 0.00 0.00 0.00 0.00 0.00 0.00 0.00 0.00 0.00 0.00 0.00 0.00 0.00 0.00 0.00 0.00 0.00 0.00 0.00 0.00 0.00 0.01 0.01 0.01 0.02 0.03 0.06 0.09 0.14 0.17
0.00 0.00 0.00 0.00 0.00 0.00 0.00 0.00 0.00 0.00 0.00 0.00 0.00 0.00 0.00 0.00 0.00 0.00 0.00 0.00 0.00 0.00 0.00 0.00 0.00 0.00 0.00 0.00 0.00 0.00 0.00 0.00 0.00 0.00 0.00 0.00 0.00 0.01 0.03 0.06 0.08 0.12 0.16
0.00 0.00 0.00 0.00 0.00 0.00 0.00 0.00 0.00 0.00 0.00 0.00 0.00 0.00 0.00 0.00 0.00 0.00 0.00 0.00 0.00 0.00 0.00 0.00 0.00 0.00 0.00 0.00 0.00 0.00 0.00 0.00 0.00 0.00 0.00 0.00 0.00 0.01 0.03 0.05 0.07 0.11 0.15
0.00 0.00 0.00 0.00 0.00 0.00 0.00 0.00 0.00 0.00 0.00 0.00 0.00 0.00 0.00 0.00 0.00 0.00 0.00 0.00 0.00 0.00 0.00 0.00 0.00 0.00 0.00 0.00 0.00 0.00 0.00 0.00 0.00 0.00 0.00 0.00 0.01 0.03 0.03 0.04 0.05 0.05 0.08
0.00 0.00 0.00 0.00 0.00 0.00 0.00 0.00 0.00 0.00 0.00 0.00 0.00 0.00 0.00 0.00 0.00 0.00 0.00 0.00 0.00 0.00 0.00 0.00 0.00 0.00 0.00 0.00 0.00 0.00 0.00 0.00 0.00 0.00 0.00 0.01 0.01 0.02 0.04 0.07 0.07 0.04 0.02
0.00 0.00 0.00 0.00 0.00 0.00 0.00 0.00 0.00 0.00 0.00 0.00 0.00 0.00 0.00 0.00 0.00 0.00 0.00 0.00 0.00 0.00 0.00 0.00 0.00 0.00 0.00 0.00 0.00 0.00 0.00 0.00 0.00 0.00 0.01 0.02 0.01 0.02 0.06 0.09 0.07 0.04 0.01
0.00 0.00 0.00 0.00 0.00 0.00 0.00 0.00 0.00 0.00 0.00 0.00 0.00 0.00 0.00 0.00 0.00 0.00 0.00 0.00 0.00 0.00 0.00 0.00 0.00 0.00 0.00 0.00 0.00 0.01 0.01 0.01 0.01 0.01 0.01 0.01 0.02 0.04 0.07 0.08 0.07 0.05 0.03
0.00 0.00 0.00 0.00 0.00 0.00 0.00 0.00 0.00 0.00 0.00 0.00 0.00 0.00 0.00 0.00 0.00 0.00 0.00 0.00 0.00 0.00 0.00 0.00 0.00 0.00 0.00 0.00 0.00 0.01 0.02 0.03 0.04 0.04 0.02 0.01 0.03 0.06 0.06 0.05 0.04 0.06 0.09
0.00 0.00 0.00 0.00 0.00 0.00 0.00 0.00 0.00 0.00 0.00 0.00 0.00 0.00 0.00 0.00 0.00 0.00 0.00 0.00 0.00 0.00 0.00 0.00 0.00 0.00 0.00 0.00 0.00 0.02 0.04 0.06 0.06 0.05 0.03 0.03 0.05 0.05 0.03 0.03 0.04 0.06 0.07
0.00 0.00 0.00 0.00 0.00 0.00 0.00 0.00 0.00 0.00 0.00 0.00 0.00 0.00 0.00 0.00 0.00 0.00 0.00 0.00 0.00 0.00 0.00 0.00 0.00 0.00 0.00 0.00 0.00 0.02 0.05 0.07 0.07 0.05 0.06 0.05 0.04 0.02 0.01 0.02 0.04 0.04 0.04
0.00 0.00 0.00 0.00 0.00 0.00 0.00 0.00 0.00 0.00 0.00 0.00 0.00 0.00 0.00 0.00 0.00 0.00 0.00 0.00 0.00 0.00 0.00 0.00 0.00 0.00 0.00 0.00 0.01 0.03 0.05 0.05 0.06 0.07 0.06 0.03 0.02 0.02 0.02 0.02 0.02 0.02 0.06
0.00 0.00 0.00 0.00 0.00 0.00 0.00 0.00 0.00 0.00 0.00 0.00 0.00 0.00 0.00 0.00 0.00 0.00 0.00 0.00 0.00 0.00 0.00 0.01 0.01 0.02 0.02 0.03 0.07 0.09 0.07 0.09 0.09 0.07 0.03 0.01 0.01 0.01 0.02 0.01 0.01 0.02 0.05
0.00 0.00 0.00 0.00 0.00 0.00 0.00 0.00 0.00 0.00 0.00 0.00 0.00 0.00 0.00 0.00 0.00 0.00 0.00 0.00 0.00 0.00 0.00 0.01 0.02 0.02 0.03 0.05 0.07 0.08 0.10 0.10 0.06 0.04 0.02 0.02 0.02 0.03 0.03 0.03 0.03 0.03 0.05

GEFSMW_prec_meanprecacc_024.txt.gz
Total_Precipitation_Accumulation
0.00 0.00 0.00 0.00 0.00 0.00 0.00 0.00 0.00 0.00 0.00 0.00 0.00 0.00 0.00 0.00 0.00 0.00 0.00 0.00 0.00 0.00 0.00 0.00 0.00 0.00 0.00 0.00 0.00 0.00 0.00 0.00 0.00 0.00 0.01 0.00 0.00 0.00 0.00 0.00 0.00 0.00 0.00
0.00 0.00 0.00 0.00 0.00 0.00 0.00 0.00 0.00 0.00 0.00 0.00 0.00 0.00 0.00 0.00 0.00 0.00 0.00 0.00 0.00 0.00 0.00 0.00 0.00 0.00 0.00 0.00 0.00 0.00 0.00 0.01 0.00 0.01 0.03 0.02 0.00 0.00 0.00 0.00 0.00 0.00 0.00
0.00 0.00 0.00 0.00 0.00 0.00 0.00 0.00 0.00 0.00 0.00 0.00 0.00 0.00 0.00 0.00 0.00 0.00 0.00 0.00 0.00 0.00 0.00 0.00 0.00 0.00 0.00 0.00 0.00 0.00 0.01 0.02 0.01 0.01 0.04 0.05 0.04 0.02 0.01 0.00 0.00 0.00 0.00
0.00 0.00 0.00 0.00 0.00 0.00 0.00 0.00 0.00 0.00 0.00 0.00 0.00 0.00 0.00 0.00 0.00 0.00 0.00 0.00 0.00 0.00 0.00 0.00 0.00 0.00 0.00 0.00 0.01 0.01 0.02 0.03 0.03 0.02 0.03 0.06 0.07 0.09 0.06 0.02 0.00 0.00 0.00
0.00 0.00 0.00 0.00 0.00 0.00 0.00 0.00 0.00 0.00 0.00 0.00 0.00 0.00 0.00 0.00 0.00 0.00 0.00 0.00 0.00 0.00 0.00 0.00 0.00 0.00 0.01 0.01 0.02 0.03 0.04 0.05 0.06 0.06 0.06 0.07 0.08 0.10 0.11 0.06 0.02 0.01 0.00
0.00 0.00 0.00 0.00 0.00 0.00 0.00 0.00 0.00 0.00 0.00 0.00 0.00 0.00 0.00 0.00 0.00 0.00 0.00 0.00 0.00 0.00 0.00 0.00 0.00 0.00 0.01 0.01 0.02 0.04 0.06 0.07 0.09 0.11 0.11 0.12 0.12 0.10 0.11 0.08 0.04 0.03 0.01
0.00 0.00 0.00 0.00 0.00 0.00 0.00 0.00 0.00 0.00 0.00 0.00 0.00 0.00 0.00 0.00 0.00 0.00 0.00 0.00 0.00 0.00 0.00 0.00 0.00 0.00 0.01 0.01 0.02 0.04 0.06 0.09 0.12 0.14 0.15 0.16 0.15 0.15 0.16 0.16 0.11 0.07 0.03
0.00 0.00 0.00 0.00 0.00 0.00 0.00 0.00 0.00 0.00 0.00 0.00 0.00 0.00 0.00 0.00 0.00 0.00 0.00 0.00 0.00 0.00 0.00 0.00 0.00 0.00 0.01 0.01 0.02 0.05 0.06 0.09 0.11 0.13 0.14 0.16 0.14 0.16 0.17 0.19 0.20 0.14 0.05
0.00 0.00 0.00 0.00 0.00 0.00 0.00 0.00 0.00 0.00 0.00 0.00 0.00 0.00 0.00 0.00 0.00 0.00 0.00 0.00 0.00 0.00 0.00 0.00 0.00 0.00 0.00 0.00 0.01 0.02 0.03 0.04 0.06 0.08 0.10 0.12 0.12 0.13 0.13 0.16 0.23 0.26 0.17
0.00 0.00 0.00 0.00 0.00 0.00 0.00 0.00 0.00 0.00 0.00 0.00 0.00 0.00 0.00 0.00 0.00 0.00 0.00 0.00 0.00 0.00 0.00 0.00 0.00 0.00 0.00 0.00 0.00 0.00 0.01 0.01 0.02 0.04 0.07 0.09 0.10 0.11 0.13 0.13 0.15 0.22 0.26
0.00 0.00 0.00 0.00 0.00 0.00 0.00 0.00 0.00 0.00 0.00 0.00 0.00 0.00 0.00 0.00 0.00 0.00 0.00 0.00 0.00 0.00 0.00 0.00 0.00 0.00 0.00 0.00 0.00 0.00 0.00 0.00 0.01 0.03 0.05 0.07 0.09 0.11 0.11 0.12 0.13 0.15 0.21
0.00 0.00 0.00 0.00 0.00 0.00 0.00 0.00 0.00 0.00 0.00 0.00 0.00 0.00 0.00 0.00 0.00 0.00 0.00 0.00 0.00 0.00 0.00 0.00 0.00 0.00 0.00 0.00 0.00 0.00 0.00 0.00 0.00 0.01 0.02 0.04 0.06 0.08 0.11 0.13 0.13 0.13 0.16
0.00 0.00 0.00 0.00 0.00 0.00 0.00 0.00 0.00 0.00 0.00 0.00 0.00 0.00 0.00 0.00 0.00 0.00 0.00 0.00 0.00 0.00 0.00 0.00 0.00 0.00 0.00 0.00 0.00 0.00 0.00 0.00 0.00 0.01 0.01 0.01 0.02 0.02 0.05 0.08 0.11 0.13 0.17
0.00 0.00 0.00 0.00 0.00 0.00 0.00 0.00 0.00 0.00 0.00 0.00 0.00 0.00 0.00 0.00 0.00 0.00 0.00 0.00 0.00 0.00 0.00 0.00 0.00 0.00 0.00 0.00 0.00 0.00 0.00 0.00 0.00 0.00 0.01 0.01 0.01 0.02 0.03 0.06 0.09 0.15 0.19
0.00 0.00 0.00 0.00 0.00 0.00 0.00 0.00 0.00 0.00 0.00 0.00 0.00 0.00 0.00 0.00 0.00 0.00 0.00 0.00 0.00 0.00 0.00 0.00 0.00 0.00 0.00 0.00 0.00 0.00 0.00 0.00 0.00 0.00 0.00 0.00 0.00 0.01 0.03 0.07 0.10 0.15 0.19
0.00 0.00 0.00 0.00 0.00 0.00 0.00 0.00 0.00 0.00 0.00 0.00 0.00 0.00 0.00 0.00 0.00 0.00 0.00 0.00 0.00 0.00 0.00 0.00 0.00 0.00 0.00 0.00 0.00 0.00 0.00 0.00 0.00 0.00 0.00 0.00 0.00 0.01 0.04 0.07 0.10 0.14 0.19
0.00 0.00 0.00 0.00 0.00 0.00 0.00 0.00 0.00 0.00 0.00 0.00 0.00 0.00 0.00 0.00 0.00 0.00 0.00 0.00 0.00 0.00 0.00 0.00 0.00 0.00 0.00 0.00 0.00 0.00 0.00 0.00 0.00 0.00 0.00 0.00 0.01 0.03 0.04 0.05 0.07 0.08 0.12
0.00 0.00 0.00 0.00 0.00 0.00 0.00 0.00 0.00 0.00 0.00 0.00 0.00 0.00 0.00 0.00 0.00 0.00 0.00 0.00 0.00 0.00 0.00 0.00 0.00 0.00 0.00 0.00 0.00 0.00 0.00 0.00 0.00 0.00 0.00 0.01 0.02 0.02 0.06 0.09 0.09 0.06 0.05
0.00 0.00 0.00 0.00 0.00 0.00 0.00 0.00 0.00 0.00 0.00 0.00 0.00 0.00 0.00 0.00 0.00 0.00 0.00 0.00 0.00 0.00 0.00 0.00 0.00 0.00 0.00 0.00 0.00 0.00 0.00 0.00 0.00 0.00 0.01 0.02 0.02 0.03 0.09 0.13 0.11 0.07 0.03
0.00 0.00 0.00 0.00 0.00 0.00 0.00 0.00 0.00 0.00 0.00 0.00 0.00 0.00 0.00 0.00 0.00 0.00 0.00 0.00 0.00 0.00 0.00 0.00 0.00 0.00 0.00 0.00 0.00 0.01 0.01 0.01 0.01 0.02 0.01 0.02 0.03 0.07 0.12 0.12 0.11 0.08 0.04
0.00 0.00 0.00 0.00 0.00 0.00 0.00 0.00 0.00 0.00 0.00 0.00 0.00 0.00 0.00 0.00 0.00 0.00 0.00 0.00 0.00 0.00 0.00 0.00 0.00 0.00 0.00 0.00 0.00 0.01 0.03 0.04 0.06 0.05 0.03 0.02 0.05 0.10 0.11 0.10 0.06 0.07 0.11
0.00 0.00 0.00 0.00 0.00 0.00 0.00 0.00 0.00 0.00 0.00 0.00 0.00 0.00 0.00 0.00 0.00 0.00 0.00 0.00 0.00 0.00 0.00 0.00 0.00 0.00 0.00 0.00 0.00 0.02 0.05 0.08 0.09 0.07 0.04 0.04 0.08 0.09 0.06 0.04 0.04 0.08 0.09
0.00 0.00 0.00 0.00 0.00 0.00 0.00 0.00 0.00 0.00 0.00 0.00 0.00 0.00 0.00 0.00 0.00 0.00 0.00 0.00 0.00 0.00 0.00 0.00 0.00 0.00 0.00 0.00 0.00 0.02 0.06 0.09 0.09 0.07 0.08 0.09 0.07 0.04 0.02 0.02 0.05 0.05 0.04
0.00 0.00 0.00 0.00 0.00 0.00 0.00 0.00 0.00 0.00 0.00 0.00 0.00 0.00 0.00 0.00 0.00 0.00 0.00 0.00 0.00 0.00 0.00 0.00 0.00 0.00 0.00 0.00 0.01 0.04 0.06 0.07 0.08 0.09 0.09 0.05 0.02 0.02 0.02 0.02 0.02 0.03 0.07
0.00 0.00 0.00 0.00 0.00 0.00 0.00 0.00 0.00 0.00 0.00 0.00 0.00 0.00 0.00 0.00 0.00 0.00 0.00 0.00 0.00 0.00 0.00 0.01 0.01 0.02 0.02 0.03 0.08 0.11 0.09 0.11 0.11 0.10 0.04 0.01 0.01 0.02 0.02 0.01 0.01 0.02 0.05
0.00 0.00 0.00 0.00 0.00 0.00 0.00 0.00 0.00 0.00 0.00 0.00 0.00 0.00 0.00 0.00 0.00 0.00 0.00 0.00 0.00 0.00 0.00 0.01 0.02 0.02 0.04 0.06 0.08 0.09 0.12 0.13 0.09 0.06 0.02 0.02 0.03 0.04 0.04 0.04 0.04 0.04 0.07

GEFSMW_prec_meanprecacc_030.txt.gz
Total_Precipitation_Accumulation
0.00 0.00 0.00 0.00 0.00 0.00 0.00 0.00 0.00 0.00 0.00 0.00 0.00 0.00 0.00 0.00 0.00 0.00 0.00 0.00 0.00 0.00 0.00 0.00 0.00 0.00 0.00 0.00 0.00 0.00 0.00 0.00 0.00 0.00 0.01 0.00 0.00 0.00 0.00 0.00 0.00 0.00 0.00
0.00 0.00 0.00 0.00 0.00 0.00 0.00 0.00 0.00 0.00 0.00 0.00 0.00 0.00 0.00 0.00 0.00 0.00 0.00 0.00 0.00 0.00 0.00 0.00 0.00 0.00 0.00 0.00 0.00 0.00 0.00 0.01 0.00 0.01 0.03 0.02 0.00 0.00 0.00 0.00 0.00 0.00 0.00
0.00 0.00 0.00 0.00 0.00 0.00 0.00 0.00 0.00 0.00 0.00 0.00 0.00 0.00 0.00 0.00 0.00 0.00 0.00 0.00 0.00 0.00 0.00 0.00 0.00 0.00 0.00 0.00 0.00 0.00 0.01 0.02 0.01 0.01 0.04 0.05 0.04 0.02 0.01 0.00 0.00 0.00 0.00
0.00 0.00 0.00 0.00 0.00 0.00 0.00 0.00 0.00 0.00 0.00 0.00 0.00 0.00 0.00 0.00 0.00 0.00 0.00 0.00 0.00 0.00 0.00 0.00 0.00 0.00 0.00 0.00 0.01 0.01 0.02 0.03 0.03 0.02 0.03 0.06 0.07 0.09 0.06 0.02 0.00 0.00 0.00
0.00 0.00 0.00 0.00 0.00 0.00 0.00 0.00 0.00 0.00 0.00 0.00 0.00 0.00 0.00 0.00 0.00 0.00 0.00 0.00 0.00 0.00 0.00 0.00 0.00 0.00 0.01 0.01 0.02 0.03 0.04 0.05 0.06 0.06 0.06 0.07 0.08 0.10 0.11 0.06 0.02 0.01 0.00
0.00 0.00 0.00 0.00 0.00 0.00 0.00 0.00 0.00 0.00 0.00 0.00 0.00 0.00 0.00 0.00 0.00 0.00 0.00 0.00 0.00 0.00 0.00 0.00 0.00 0.00 0.01 0.01 0.02 0.04 0.06 0.07 0.09 0.11 0.11 0.12 0.12 0.10 0.11 0.08 0.04 0.03 0.01
0.00 0.00 0.00 0.00 0.00 0.00 0.00 0.00 0.00 0.00 0.00 0.00 0.00 0.00 0.00 0.00 0.00 0.00 0.00 0.00 0.00 0.00 0.00 0.00 0.00 0.00 0.01 0.01 0.02 0.04 0.06 0.09 0.12 0.14 0.15 0.16 0.15 0.15 0.16 0.16 0.11 0.07 0.03
0.00 0.00 0.00 0.00 0.00 0.00 0.00 0.00 0.00 0.00 0.00 0.00 0.00 0.00 0.00 0.00 0.00 0.00 0.00 0.00 0.00 0.00 0.00 0.00 0.00 0.00 0.01 0.01 0.02 0.05 0.06 0.09 0.11 0.13 0.14 0.16 0.14 0.16 0.17 0.19 0.20 0.14 0.05
0.00 0.00 0.00 0.00 0.00 0.00 0.00 0.00 0.00 0.00 0.00 0.00 0.00 0.00 0.00 0.00 0.00 0.00 0.00 0.00 0.00 0.00 0.00 0.00 0.00 0.00 0.00 0.00 0.01 0.02 0.03 0.04 0.06 0.08 0.10 0.12 0.12 0.13 0.13 0.16 0.23 0.26 0.17
0.00 0.00 0.00 0.00 0.00 0.00 0.00 0.00 0.00 0.00 0.00 0.00 0.00 0.00 0.00 0.00 0.00 0.00 0.00 0.00 0.00 0.00 0.00 0.00 0.00 0.00 0.00 0.00 0.00 0.00 0.01 0.01 0.02 0.04 0.07 0.09 0.10 0.11 0.13 0.13 0.15 0.22 0.26
0.00 0.00 0.00 0.00 0.00 0.00 0.00 0.00 0.00 0.00 0.00 0.00 0.00 0.00 0.00 0.00 0.00 0.00 0.00 0.00 0.00 0.00 0.00 0.00 0.00 0.00 0.00 0.00 0.00 0.00 0.00 0.00 0.01 0.03 0.05 0.07 0.09 0.11 0.11 0.12 0.13 0.15 0.21
0.00 0.00 0.00 0.00 0.00 0.00 0.00 0.00 0.00 0.00 0.00 0.00 0.00 0.00 0.00 0.00 0.00 0.00 0.00 0.00 0.00 0.00 0.00 0.00 0.00 0.00 0.00 0.00 0.00 0.00 0.00 0.00 0.00 0.01 0.02 0.04 0.06 0.08 0.11 0.13 0.13 0.13 0.16
0.00 0.00 0.00 0.00 0.00 0.00 0.00 0.00 0.00 0.00 0.00 0.00 0.00 0.00 0.00 0.00 0.00 0.00 0.00 0.00 0.00 0.00 0.00 0.00 0.00 0.00 0.00 0.00 0.00 0.00 0.00 0.00 0.00 0.01 0.01 0.01 0.02 0.02 0.05 0.08 0.11 0.13 0.17
0.00 0.00 0.00 0.00 0.00 0.00 0.00 0.00 0.00 0.00 0.00 0.00 0.00 0.00 0.00 0.00 0.00 0.00 0.00 0.00 0.00 0.00 0.00 0.00 0.00 0.00 0.00 0.00 0.00 0.00 0.00 0.00 0.00 0.00 0.01 0.01 0.01 0.02 0.03 0.06 0.10 0.16 0.20
0.00 0.00 0.00 0.00 0.00 0.00 0.00 0.00 0.00 0.00 0.00 0.00 0.00 0.00 0.00 0.00 0.00 0.00 0.00 0.00 0.00 0.00 0.00 0.00 0.00 0.00 0.00 0.00 0.00 0.00 0.00 0.00 0.00 0.00 0.00 0.00 0.00 0.01 0.04 0.08 0.11 0.16 0.21
0.00 0.00 0.00 0.00 0.00 0.00 0.00 0.00 0.00 0.00 0.00 0.00 0.00 0.00 0.00 0.00 0.00 0.00 0.00 0.00 0.00 0.00 0.00 0.00 0.00 0.00 0.00 0.00 0.00 0.00 0.00 0.00 0.00 0.00 0.00 0.00 0.00 0.01 0.04 0.08 0.11 0.17 0.24
0.00 0.00 0.00 0.00 0.00 0.00 0.00 0.00 0.00 0.00 0.00 0.00 0.00 0.00 0.00 0.00 0.00 0.00 0.00 0.00 0.00 0.00 0.00 0.00 0.00 0.00 0.00 0.00 0.00 0.00 0.00 0.00 0.00 0.00 0.00 0.00 0.01 0.03 0.04 0.05 0.09 0.11 0.17
0.00 0.00 0.00 0.00 0.00 0.00 0.00 0.00 0.00 0.00 0.00 0.00 0.00 0.00 0.00 0.00 0.00 0.00 0.00 0.00 0.00 0.00 0.00 0.00 0.00 0.00 0.00 0.00 0.00 0.00 0.00 0.00 0.00 0.00 0.00 0.01 0.02 0.02 0.07 0.11 0.11 0.08 0.07
0.00 0.00 0.00 0.00 0.00 0.00 0.00 0.00 0.00 0.00 0.00 0.00 0.00 0.00 0.00 0.00 0.00 0.00 0.00 0.00 0.00 0.00 0.00 0.00 0.00 0.00 0.00 0.00 0.00 0.00 0.00 0.00 0.00 0.00 0.01 0.02 0.02 0.04 0.12 0.17 0.17 0.11 0.04
0.00 0.00 0.00 0.00 0.00 0.00 0.00 0.00 0.00 0.00 0.00 0.00 0.00 0.00 0.00 0.00 0.00 0.00 0.00 0.00 0.00 0.00 0.00 0.00 0.00 0.00 0.00 0.00 0.00 0.01 0.01 0.01 0.02 0.02 0.01 0.02 0.04 0.09 0.17 0.18 0.18 0.11 0.05
0.00 0.00 0.00 0.00 0.00 0.00 0.00 0.00 0.00 0.00 0.00 0.00 0.00 0.00 0.00 0.00 0.00 0.00 0.00 0.00 0.00 0.00 0.00 0.00 0.00 0.00 0.00 0.00 0.00 0.01 0.03 0.05 0.06 0.05 0.03 0.02 0.07 0.14 0.17 0.13 0.07 0.08 0.14
0.00 0.00 0.00 0.00 0.00 0.00 0.00 0.00 0.00 0.00 0.00 0.00 0.00 0.00 0.00 0.00 0.00 0.00 0.00 0.00 0.00 0.00 0.00 0.00 0.00 0.00 0.00 0.00 0.00 0.02 0.06 0.10 0.10 0.08 0.04 0.05 0.11 0.12 0.08 0.04 0.05 0.10 0.10
0.00 0.00 0.00 0.00 0.00 0.00 0.00 0.00 0.00 0.00 0.00 0.00 0.00 0.00 0.00 0.00 0.00 0.00 0.00 0.00 0.00 0.00 0.00 0.00 0.00 0.00 0.00 0.00 0.00 0.03 0.07 0.11 0.10 0.08 0.10 0.11 0.09 0.05 0.02 0.03 0.05 0.06 0.05
0.00 0.00 0.00 0.00 0.00 0.00 0.00 0.00 0.00 0.00 0.00 0.00 0.00 0.00 0.00 0.00 0.00 0.00 0.00 0.00 0.00 0.00 0.00 0.00 0.00 0.00 0.00 0.00 0.01 0.04 0.07 0.08 0.09 0.11 0.11 0.07 0.03 0.02 0.02 0.02 0.02 0.03 0.07
0.00 0.00 0.00 0.00 0.00 0.00 0.00 0.00 0.00 0.00 0.00 0.00 0.00 0.00 0.00 0.00 0.00 0.00 0.00 0.00 0.00 0.00 0.00 0.01 0.01 0.02 0.02 0.03 0.09 0.12 0.10 0.12 0.13 0.12 0.05 0.01 0.01 0.02 0.02 0.01 0.01 0.02 0.06
0.00 0.00 0.00 0.00 0.00 0.00 0.00 0.00 0.00 0.00 0.00 0.00 0.00 0.00 0.00 0.00 0.00 0.00 0.00 0.00 0.00 0.00 0.00 0.01 0.02 0.02 0.04 0.07 0.09 0.10 0.14 0.15 0.11 0.06 0.02 0.02 0.03 0.04 0.04 0.04 0.04 0.04 0.08

GEFSMW_prec_meanprecacc_036.txt.gz
Total_Precipitation_Accumulation
0.00 0.00 0.00 0.00 0.00 0.00 0.00 0.00 0.00 0.00 0.00 0.00 0.00 0.01 0.01 0.01 0.01 0.00 0.00 0.00 0.00 0.00 0.00 0.00 0.00 0.00 0.00 0.00 0.00 0.00 0.00 0.00 0.00 0.00 0.01 0.00 0.00 0.00 0.00 0.00 0.00 0.00 0.00
0.00 0.00 0.00 0.00 0.00 0.00 0.00 0.00 0.00 0.00 0.00 0.00 0.00 0.01 0.01 0.01 0.01 0.00 0.00 0.00 0.00 0.00 0.00 0.00 0.00 0.00 0.00 0.00 0.00 0.00 0.00 0.01 0.00 0.01 0.03 0.02 0.00 0.00 0.00 0.00 0.00 0.00 0.00
0.00 0.00 0.00 0.00 0.00 0.00 0.00 0.00 0.00 0.00 0.00 0.00 0.00 0.00 0.01 0.01 0.00 0.00 0.00 0.00 0.00 0.00 0.00 0.00 0.00 0.00 0.00 0.00 0.00 0.00 0.01 0.02 0.01 0.01 0.04 0.05 0.04 0.02 0.01 0.00 0.00 0.00 0.00
0.00 0.00 0.00 0.00 0.00 0.00 0.00 0.00 0.00 0.00 0.00 0.00 0.00 0.00 0.01 0.01 0.01 0.00 0.00 0.00 0.00 0.00 0.00 0.00 0.00 0.00 0.00 0.00 0.01 0.01 0.02 0.03 0.03 0.02 0.03 0.06 0.07 0.09 0.06 0.02 0.00 0.00 0.00
0.00 0.00 0.00 0.00 0.00 0.00 0.00 0.00 0.00 0.00 0.00 0.00 0.00 0.00 0.01 0.01 0.00 0.00 0.00 0.00 0.00 0.00 0.00 0.00 0.00 0.00 0.01 0.01 0.02 0.03 0.04 0.05 0.06 0.06 0.06 0.07 0.08 0.10 0.11 0.06 0.02 0.01 0.00
0.00 0.00 0.00 0.00 0.00 0.00 0.00 0.00 0.00 0.00 0.00 0.00 0.00 0.00 0.00 0.00 0.00 0.00 0.00 0.00 0.00 0.00 0.00 0.00 0.00 0.00 0.01 0.01 0.02 0.04 0.06 0.07 0.09 0.11 0.11 0.12 0.12 0.10 0.11 0.08 0.04 0.03 0.01
0.00 0.00 0.00 0.00 0.00 0.00 0.00 0.00 0.00 0.00 0.00 0.00 0.00 0.00 0.00 0.00 0.00 0.00 0.00 0.00 0.00 0.00 0.00 0.00 0.00 0.00 0.01 0.01 0.02 0.04 0.06 0.09 0.12 0.14 0.15 0.16 0.15 0.15 0.16 0.16 0.11 0.07 0.03
0.00 0.00 0.00 0.00 0.00 0.00 0.00 0.00 0.00 0.00 0.00 0.00 0.00 0.00 0.00 0.00 0.00 0.00 0.00 0.00 0.00 0.00 0.00 0.00 0.00 0.00 0.01 0.01 0.02 0.05 0.06 0.09 0.11 0.13 0.14 0.16 0.14 0.16 0.17 0.19 0.20 0.14 0.05
0.00 0.00 0.00 0.00 0.00 0.00 0.00 0.00 0.00 0.00 0.00 0.00 0.00 0.00 0.00 0.00 0.00 0.00 0.00 0.00 0.00 0.00 0.00 0.00 0.00 0.00 0.00 0.00 0.01 0.02 0.03 0.04 0.06 0.08 0.10 0.12 0.12 0.13 0.13 0.16 0.23 0.26 0.17
0.00 0.00 0.00 0.00 0.00 0.00 0.00 0.00 0.00 0.00 0.00 0.00 0.00 0.00 0.00 0.00 0.00 0.00 0.00 0.00 0.00 0.00 0.00 0.00 0.00 0.00 0.00 0.00 0.00 0.00 0.01 0.01 0.02 0.04 0.07 0.09 0.10 0.11 0.13 0.13 0.15 0.22 0.26
0.00 0.00 0.00 0.00 0.00 0.00 0.00 0.00 0.00 0.00 0.00 0.00 0.00 0.00 0.00 0.00 0.00 0.00 0.00 0.00 0.00 0.00 0.00 0.00 0.00 0.00 0.00 0.00 0.00 0.00 0.00 0.00 0.01 0.03 0.05 0.07 0.09 0.11 0.11 0.12 0.13 0.15 0.21
0.00 0.00 0.00 0.00 0.00 0.00 0.00 0.00 0.00 0.00 0.00 0.00 0.00 0.00 0.00 0.00 0.00 0.00 0.00 0.00 0.00 0.00 0.00 0.00 0.00 0.00 0.00 0.00 0.00 0.00 0.00 0.00 0.00 0.01 0.02 0.04 0.06 0.08 0.11 0.13 0.13 0.13 0.16
0.00 0.00 0.00 0.00 0.00 0.00 0.00 0.00 0.00 0.00 0.00 0.00 0.00 0.00 0.00 0.00 0.00 0.00 0.00 0.00 0.00 0.00 0.00 0.00 0.00 0.00 0.00 0.00 0.00 0.00 0.00 0.00 0.00 0.01 0.01 0.01 0.02 0.02 0.05 0.08 0.11 0.13 0.17
0.01 0.00 0.00 0.00 0.00 0.00 0.00 0.00 0.00 0.00 0.00 0.00 0.00 0.00 0.00 0.00 0.00 0.00 0.00 0.00 0.00 0.00 0.00 0.00 0.00 0.00 0.00 0.00 0.00 0.00 0.00 0.00 0.00 0.00 0.01 0.01 0.01 0.02 0.03 0.06 0.10 0.16 0.21
0.00 0.00 0.00 0.00 0.00 0.00 0.00 0.00 0.00 0.00 0.00 0.00 0.00 0.00 0.00 0.00 0.00 0.00 0.00 0.00 0.00 0.00 0.00 0.00 0.00 0.00 0.00 0.00 0.00 0.00 0.00 0.00 0.00 0.00 0.00 0.00 0.00 0.01 0.04 0.09 0.12 0.17 0.22
0.00 0.00 0.00 0.00 0.00 0.00 0.00 0.00 0.00 0.00 0.00 0.00 0.00 0.00 0.00 0.00 0.00 0.00 0.00 0.00 0.00 0.00 0.00 0.00 0.00 0.00 0.00 0.00 0.00 0.00 0.00 0.00 0.00 0.00 0.00 0.00 0.00 0.01 0.04 0.08 0.12 0.19 0.28
0.00 0.00 0.00 0.00 0.00 0.00 0.00 0.00 0.00 0.00 0.00 0.00 0.00 0.00 0.00 0.00 0.00 0.00 0.00 0.00 0.00 0.00 0.00 0.00 0.00 0.00 0.00 0.00 0.00 0.00 0.00 0.00 0.00 0.00 0.00 0.00 0.01 0.03 0.04 0.05 0.10 0.14 0.21
0.00 0.00 0.00 0.00 0.00 0.00 0.00 0.00 0.00 0.00 0.00 0.00 0.00 0.00 0.00 0.00 0.00 0.00 0.00 0.00 0.00 0.00 0.00 0.00 0.00 0.00 0.00 0.00 0.00 0.00 0.00 0.00 0.00 0.00 0.00 0.01 0.02 0.03 0.07 0.12 0.15 0.11 0.08
0.00 0.00 0.00 0.00 0.00 0.00 0.00 0.00 0.00 0.00 0.00 0.00 0.00 0.00 0.00 0.00 0.00 0.00 0.00 0.00 0.00 0.00 0.00 0.00 0.00 0.00 0.00 0.00 0.00 0.00 0.00 0.00 0.00 0.00 0.01 0.03 0.03 0.04 0.15 0.21 0.21 0.12 0.04
0.00 0.00 0.00 0.00 0.00 0.00 0.00 0.00 0.00 0.00 0.00 0.00 0.00 0.00 0.00 0.00 0.00 0.00 0.00 0.00 0.00 0.00 0.00 0.00 0.00 0.00 0.00 0.00 0.00 0.01 0.01 0.01 0.02 0.02 0.01 0.02 0.04 0.10 0.20 0.21 0.19 0.11 0.05
0.00 0.00 0.00 0.00 0.00 0.00 0.00 0.00 0.00 0.00 0.00 0.00 0.00 0.00 0.00 0.00 0.00 0.00 0.00 0.00 0.00 0.00 0.00 0.00 0.00 0.00 0.00 0.00 0.00 0.01 0.03 0.05 0.07 0.06 0.03 0.02 0.08 0.16 0.19 0.14 0.07 0.09 0.16
0.00 0.00 0.00 0.00 0.00 0.00 0.00 0.00 0.00 0.00 0.00 0.00 0.00 0.00 0.00 0.00 0.00 0.00 0.00 0.00 0.00 0.00 0.00 0.00 0.00 0.00 0.00 0.00 0.00 0.02 0.06 0.11 0.11 0.08 0.04 0.05 0.13 0.13 0.09 0.05 0.05 0.11 0.11
0.00 0.00 0.00 0.00 0.00 0.00 0.00 0.00 0.00 0.00 0.00 0.00 0.00 0.00 0.00 0.00 0.00 0.00 0.00 0.00 0.00 0.00 0.00 0.00 0.00 0.00 0.00 0.00 0.00 0.03 0.08 0.12 0.11 0.09 0.11 0.12 0.09 0.05 0.02 0.03 0.05 0.06 0.05
0.00 0.00 0.00 0.00 0.00 0.00 0.00 0.00 0.00 0.00 0.00 0.00 0.00 0.00 0.00 0.00 0.00 0.00 0.00 0.00 0.00 0.00 0.00 0.00 0.00 0.00 0.00 0.00 0.01 0.04 0.07 0.08 0.09 0.11 0.11 0.07 0.03 0.02 0.02 0.02 0.02 0.03 0.07
0.00 0.00 0.00 0.00 0.00 0.00 0.00 0.00 0.00 0.00 0.00 0.00 0.00 0.00 0.00 0.00 0.00 0.00 0.00 0.00 0.00 0.00 0.00 0.01 0.01 0.02 0.02 0.03 0.09 0.12 0.11 0.13 0.14 0.12 0.05 0.01 0.01 0.02 0.02 0.01 0.01 0.02 0.06
0.00 0.00 0.00 0.00 0.00 0.00 0.00 0.00 0.00 0.00 0.00 0.00 0.00 0.00 0.00 0.00 0.00 0.00 0.00 0.00 0.00 0.00 0.00 0.01 0.02 0.02 0.04 0.07 0.09 0.11 0.15 0.15 0.11 0.06 0.02 0.02 0.03 0.04 0.04 0.04 0.05 0.04 0.08

GEFSMW_prec_meanprecacc_042.txt.gz
Total_Precipitation_Accumulation
0.00 0.00 0.00 0.00 0.00 0.00 0.00 0.00 0.00 0.00 0.00 0.00 0.00 0.02 0.04 0.07 0.09 0.08 0.07 0.06 0.04 0.02 0.01 0.00 0.00 0.00 0.00 0.00 0.00 0.00 0.00 0.00 0.00 0.00 0.01 0.00 0.00 0.00 0.00 0.00 0.00 0.00 0.00
0.00 0.00 0.00 0.00 0.00 0.00 0.00 0.00 0.00 0.00 0.00 0.00 0.01 0.03 0.06 0.08 0.10 0.09 0.07 0.05 0.03 0.01 0.00 0.00 0.00 0.00 0.00 0.00 0.00 0.00 0.00 0.01 0.00 0.01 0.03 0.02 0.00 0.00 0.00 0.00 0.00 0.00 0.00
0.00 0.00 0.00 0.00 0.00 0.00 0.00 0.00 0.00 0.00 0.00 0.00 0.00 0.02 0.04 0.06 0.06 0.05 0.05 0.03 0.02 0.01 0.00 0.00 0.00 0.00 0.00 0.00 0.00 0.00 0.01 0.02 0.01 0.01 0.04 0.05 0.04 0.02 0.01 0.00 0.00 0.00 0.00
0.00 0.00 0.00 0.00 0.00 0.00 0.00 0.00 0.00 0.00 0.00 0.00 0.00 0.01 0.04 0.06 0.07 0.06 0.04 0.03 0.01 0.01 0.00 0.00 0.00 0.00 0.00 0.00 0.01 0.01 0.02 0.03 0.03 0.02 0.03 0.06 0.07 0.09 0.06 0.02 0.00 0.00 0.00
0.00 0.00 0.00 0.00 0.00 0.00 0.00 0.00 0.00 0.00 0.00 0.00 0.00 0.02 0.04 0.06 0.06 0.04 0.03 0.02 0.01 0.00 0.00 0.00 0.00 0.00 0.01 0.01 0.02 0.03 0.04 0.05 0.06 0.06 0.06 0.07 0.08 0.10 0.11 0.06 0.02 0.01 0.00
0.00 0.00 0.00 0.00 0.00 0.00 0.00 0.00 0.00 0.00 0.00 0.00 0.00 0.01 0.03 0.04 0.04 0.03 0.02 0.01 0.01 0.00 0.00 0.00 0.00 0.00 0.01 0.01 0.02 0.04 0.06 0.07 0.09 0.11 0.11 0.12 0.12 0.10 0.11 0.08 0.04 0.03 0.01
0.00 0.00 0.00 0.00 0.00 0.00 0.00 0.00 0.00 0.00 0.00 0.00 0.00 0.01 0.03 0.05 0.05 0.04 0.02 0.01 0.00 0.00 0.00 0.00 0.00 0.00 0.01 0.01 0.02 0.04 0.06 0.09 0.12 0.14 0.15 0.16 0.15 0.15 0.16 0.16 0.11 0.07 0.03
0.00 0.00 0.00 0.00 0.00 0.00 0.00 0.00 0.00 0.00 0.00 0.00 0.00 0.00 0.01 0.02 0.02 0.02 0.01 0.00 0.00 0.00 0.00 0.00 0.00 0.00 0.01 0.01 0.02 0.05 0.06 0.09 0.11 0.13 0.14 0.16 0.14 0.16 0.17 0.19 0.20 0.14 0.05
0.00 0.00 0.00 0.00 0.00 0.00 0.00 0.00 0.00 0.00 0.00 0.00 0.00 0.00 0.00 0.01 0.01 0.00 0.00 0.00 0.00 0.00 0.00 0.00 0.00 0.00 0.00 0.00 0.01 0.02 0.03 0.04 0.06 0.08 0.10 0.12 0.12 0.13 0.13 0.16 0.23 0.26 0.17
0.00 0.00 0.00 0.00 0.00 0.00 0.00 0.00 0.00 0.00 0.00 0.00 0.00 0.00 0.00 0.00 0.00 0.00 0.00 0.00 0.00 0.00 0.00 0.00 0.00 0.00 0.00 0.00 0.00 0.00 0.01 0.01 0.02 0.04 0.07 0.09 0.10 0.11 0.13 0.13 0.15 0.22 0.26
0.00 0.00 0.00 0.00 0.00 0.00 0.00 0.00 0.00 0.00 0.00 0.00 0.00 0.00 0.00 0.00 0.00 0.00 0.00 0.00 0.00 0.00 0.00 0.00 0.00 0.00 0.00 0.00 0.00 0.00 0.00 0.00 0.01 0.03 0.05 0.07 0.09 0.11 0.11 0.12 0.13 0.15 0.21
0.00 0.00 0.00 0.00 0.00 0.00 0.00 0.00 0.00 0.00 0.00 0.00 0.00 0.00 0.00 0.00 0.00 0.00 0.00 0.00 0.00 0.00 0.00 0.00 0.00 0.00 0.00 0.00 0.00 0.00 0.00 0.00 0.00 0.01 0.02 0.04 0.06 0.08 0.11 0.13 0.13 0.13 0.16
0.01 0.00 0.00 0.00 0.00 0.00 0.00 0.00 0.00 0.00 0.00 0.00 0.00 0.00 0.00 0.00 0.00 0.00 0.00 0.00 0.00 0.00 0.00 0.00 0.00 0.00 0.00 0.00 0.00 0.00 0.00 0.00 0.00 0.01 0.01 0.01 0.02 0.02 0.05 0.08 0.11 0.13 0.17
0.01 0.01 0.00 0.00 0.00 0.00 0.00 0.00 0.00 0.00 0.00 0.00 0.00 0.00 0.00 0.00 0.00 0.00 0.00 0.00 0.00 0.00 0.00 0.00 0.00 0.00 0.00 0.00 0.00 0.00 0.00 0.00 0.00 0.00 0.01 0.01 0.01 0.02 0.03 0.06 0.10 0.17 0.21
0.02 0.01 0.00 0.00 0.00 0.00 0.00 0.00 0.00 0.00 0.00 0.00 0.00 0.00 0.00 0.00 0.00 0.00 0.00 0.00 0.00 0.00 0.00 0.00 0.00 0.00 0.00 0.00 0.00 0.00 0.00 0.00 0.00 0.00 0.00 0.00 0.00 0.01 0.04 0.09 0.13 0.17 0.23
0.02 0.01 0.00 0.00 0.00 0.00 0.00 0.00 0.00 0.00 0.00 0.00 0.00 0.00 0.00 0.00 0.00 0.00 0.00 0.00 0.00 0.00 0.00 0.00 0.00 0.00 0.00 0.00 0.00 0.00 0.00 0.00 0.00 0.00 0.00 0.00 0.00 0.01 0.05 0.08 0.12 0.21 0.30
0.02 0.01 0.01 0.00 0.00 0.00 0.00 0.00 0.00 0.00 0.00 0.00 0.00 0.00 0.00 0.00 0.00 0.00 0.00 0.00 0.00 0.00 0.00 0.00 0.00 0.00 0.00 0.00 0.00 0.00 0.00 0.00 0.00 0.00 0.00 0.00 0.01 0.03 0.04 0.05 0.10 0.15 0.23
0.01 0.01 0.01 0.00 0.00 0.00 0.00 0.00 0.00 0.00 0.00 0.00 0.00 0.00 0.00 0.00 0.00 0.00 0.00 0.00 0.00 0.00 0.00 0.00 0.00 0.00 0.00 0.00 0.00 0.00 0.00 0.00 0.00 0.00 0.00 0.01 0.02 0.03 0.07 0.13 0.17 0.12 0.09
0.01 0.01 0.01 0.00 0.00 0.00 0.00 0.00 0.00 0.00 0.00 0.00 0.00 0.00 0.00 0.00 0.00 0.00 0.00 0.00 0.00 0.00 0.00 0.00 0.00 0.00 0.00 0.00 0.00 0.00 0.00 0.00 0.00 0.00 0.01 0.03 0.03 0.05 0.16 0.24 0.24 0.13 0.04
0.00 0.00 0.00 0.00 0.00 0.00 0.00 0.00 0.00 0.00 0.00 0.00 0.00 0.00 0.00 0.00 0.00 0.00 0.00 0.00 0.00 0.00 0.00 0.00 0.00 0.00 0.00 0.00 0.00 0.01 0.01 0.01 0.02 0.02 0.01 0.02 0.04 0.11 0.22 0.23 0.20 0.11 0.05
0.00 0.00 0.00 0.00 0.00 0.00 0.00 0.00 0.00 0.00 0.00 0.00 0.00 0.00 0.00 0.00 0.00 0.00 0.00 0.00 0.00 0.00 0.00 0.00 0.00 0.00 0.00 0.00 0.00 0.01 0.03 0.05 0.07 0.06 0.03 0.02 0.08 0.18 0.20 0.15 0.08 0.09 0.17
0.00 0.00 0.00 0.00 0.00 0.00 0.00 0.00 0.00 0.00 0.00 0.00 0.00 0.00 0.00 0.00 0.00 0.00 0.00 0.00 0.00 0.00 0.00 0.00 0.00 0.00 0.00 0.00 0.00 0.02 0.06 0.11 0.11 0.08 0.05 0.06 0.14 0.14 0.09 0.05 0.05 0.12 0.12
0.00 0.00 0.00 0.00 0.00 0.00 0.00 0.00 0.00 0.00 0.00 0.00 0.00 0.00 0.00 0.00 0.00 0.00 0.00 0.00 0.00 0.00 0.00 0.00 0.00 0.00 0.00 0.00 0.00 0.03 0.08 0.12 0.11 0.09 0.11 0.13 0.10 0.05 0.02 0.03 0.05 0.06 0.05
0.00 0.00 0.00 0.00 0.00 0.00 0.00 0.00 0.00 0.00 0.00 0.00 0.00 0.00 0.00 0.00 0.00 0.00 0.00 0.00 0.00 0.00 0.00 0.00 0.00 0.00 0.00 0.00 0.01 0.05 0.07 0.09 0.10 0.12 0.12 0.07 0.03 0.02 0.02 0.02 0.02 0.03 0.07
0.00 0.00 0.00 0.00 0.00 0.00 0.00 0.00 0.00 0.00 0.00 0.00 0.00 0.00 0.00 0.00 0.00 0.00 0.00 0.00 0.00 0.00 0.00 0.01 0.01 0.02 0.02 0.03 0.09 0.13 0.11 0.14 0.14 0.13 0.05 0.01 0.01 0.02 0.02 0.01 0.01 0.02 0.06
0.00 0.00 0.00 0.00 0.00 0.00 0.00 0.00 0.00 0.00 0.00 0.00 0.00 0.00 0.00 0.00 0.00 0.00 0.00 0.00 0.00 0.00 0.00 0.01 0.02 0.02 0.04 0.07 0.09 0.11 0.15 0.16 0.12 0.07 0.02 0.02 0.03 0.04 0.04 0.04 0.05 0.04 0.08

GEFSMW_prec_meanprecacc_048.txt.gz
Total_Precipitation_Accumulation
0.00 0.00 0.00 0.00 0.00 0.00 0.00 0.00 0.00 0.00 0.00 0.00 0.01 0.02 0.05 0.08 0.10 0.10 0.10 0.09 0.08 0.06 0.04 0.02 0.01 0.00 0.00 0.00 0.00 0.00 0.00 0.00 0.00 0.00 0.01 0.00 0.00 0.00 0.00 0.00 0.00 0.00 0.00
0.00 0.00 0.00 0.00 0.00 0.00 0.00 0.00 0.00 0.00 0.00 0.00 0.01 0.03 0.06 0.09 0.11 0.11 0.09 0.08 0.08 0.07 0.04 0.02 0.01 0.01 0.00 0.00 0.00 0.00 0.00 0.01 0.00 0.01 0.03 0.02 0.00 0.00 0.00 0.00 0.00 0.00 0.00
0.00 0.00 0.00 0.00 0.00 0.00 0.00 0.00 0.00 0.00 0.00 0.00 0.01 0.02 0.04 0.07 0.07 0.07 0.08 0.08 0.08 0.07 0.06 0.04 0.02 0.01 0.00 0.00 0.00 0.00 0.01 0.02 0.01 0.01 0.04 0.05 0.04 0.02 0.01 0.00 0.00 0.00 0.00
0.00 0.00 0.00 0.00 0.00 0.00 0.00 0.00 0.00 0.00 0.00 0.00 0.00 0.01 0.04 0.06 0.07 0.08 0.08 0.07 0.06 0.06 0.05 0.05 0.03 0.02 0.01 0.01 0.01 0.01 0.02 0.03 0.03 0.02 0.03 0.06 0.07 0.09 0.06 0.02 0.00 0.00 0.00
0.00 0.00 0.00 0.00 0.00 0.00 0.00 0.00 0.00 0.00 0.00 0.00 0.00 0.02 0.04 0.06 0.07 0.06 0.06 0.06 0.05 0.04 0.04 0.03 0.02 0.02 0.01 0.02 0.03 0.03 0.04 0.05 0.06 0.06 0.06 0.07 0.08 0.10 0.11 0.06 0.02 0.01 0.00
0.00 0.00 0.00 0.00 0.00 0.00 0.00 0.00 0.00 0.00 0.00 0.00 0.00 0.01 0.03 0.05 0.05 0.05 0.05 0.05 0.05 0.04 0.03 0.02 0.02 0.01 0.01 0.02 0.03 0.04 0.06 0.07 0.09 0.11 0.11 0.12 0.12 0.10 0.11 0.08 0.04 0.03 0.01
0.00 0.00 0.00 0.00 0.00 0.00 0.00 0.00 0.00 0.00 0.00 0.01 0.00 0.01 0.03 0.05 0.06 0.07 0.06 0.05 0.05 0.04 0.03 0.02 0.01 0.01 0.01 0.01 0.02 0.04 0.06 0.09 0.12 0.14 0.15 0.16 0.15 0.15 0.16 0.16 0.11 0.07 0.03
0.00 0.00 0.00 0.00 0.00 0.00 0.00 0.00 0.00 0.00 0.01 0.01 0.00 0.00 0.01 0.02 0.03 0.04 0.04 0.05 0.05 0.04 0.03 0.02 0.01 0.01 0.01 0.01 0.02 0.05 0.06 0.09 0.11 0.13 0.14 0.16 0.14 0.16 0.17 0.19 0.20 0.14 0.05
0.00 0.00 0.00 0.00 0.00 0.00 0.00 0.00 0.00 0.00 0.01 0.01 0.00 0.00 0.01 0.01 0.02 0.02 0.02 0.02 0.03 0.02 0.02 0.01 0.01 0.00 0.00 0.00 0.01 0.02 0.03 0.04 0.06 0.08 0.10 0.12 0.12 0.13 0.13 0.16 0.23 0.26 0.17
0.00 0.00 0.00 0.00 0.00 0.00 0.00 0.00 0.00 0.00 0.01 0.01 0.00 0.00 0.00 0.00 0.01 0.01 0.01 0.01 0.01 0.01 0.01 0.00 0.00 0.00 0.00 0.00 0.00 0.00 0.01 0.01 0.02 0.04 0.07 0.09 0.10 0.11 0.13 0.13 0.15 0.22 0.26
0.00 0.00 0.00 0.00 0.00 0.00 0.00 0.00 0.01 0.01 0.01 0.00 0.00 0.00 0.00 0.00 0.01 0.01 0.01 0.02 0.01 0.01 0.00 0.00 0.00 0.00 0.00 0.00 0.00 0.00 0.00 0.00 0.01 0.03 0.05 0.07 0.09 0.11 0.11 0.12 0.13 0.15 0.21
0.00 0.00 0.00 0.00 0.01 0.01 0.01 0.01 0.01 0.01 0.01 0.00 0.00 0.00 0.00 0.00 0.01 0.01 0.01 0.01 0.01 0.00 0.00 0.00 0.00 0.00 0.00 0.00 0.00 0.00 0.00 0.00 0.00 0.01 0.02 0.04 0.06 0.08 0.11 0.13 0.13 0.13 0.16
0.01 0.01 0.01 0.01 0.01 0.01 0.02 0.02 0.02 0.01 0.01 0.01 0.01 0.01 0.01 0.01 0.01 0.00 0.01 0.01 0.01 0.00 0.00 0.00 0.00 0.00 0.00 0.00 0.00 0.00 0.00 0.00 0.00 0.01 0.01 0.01 0.02 0.02 0.05 0.08 0.11 0.13 0.17
0.03 0.02 0.02 0.01 0.02 0.02 0.02 0.02 0.01 0.01 0.01 0.01 0.01 0.01 0.01 0.01 0.00 0.01 0.01 0.01 0.00 0.00 0.00 0.00 0.00 0.00 0.00 0.00 0.00 0.00 0.00 0.00 0.00 0.00 0.01 0.01 0.01 0.02 0.03 0.06 0.10 0.17 0.21
0.04 0.03 0.02 0.02 0.02 0.01 0.01 0.01 0.01 0.01 0.01 0.01 0.01 0.01 0.01 0.00 0.00 0.01 0.00 0.00 0.00 0.00 0.00 0.00 0.00 0.00 0.00 0.00 0.00 0.00 0.00 0.00 0.00 0.00 0.00 0.00 0.00 0.01 0.04 0.09 0.13 0.18 0.23
0.04 0.03 0.02 0.02 0.01 0.01 0.01 0.01 0.01 0.01 0.01 0.01 0.01 0.01 0.01 0.01 0.00 0.00 0.00 0.00 0.00 0.00 0.00 0.00 0.00 0.00 0.00 0.00 0.00 0.00 0.00 0.00 0.00 0.00 0.00 0.00 0.00 0.01 0.05 0.09 0.13 0.21 0.31
0.04 0.02 0.02 0.01 0.01 0.01 0.01 0.01 0.01 0.01 0.01 0.01 0.01 0.01 0.01 0.00 0.00 0.00 0.00 0.00 0.00 0.00 0.00 0.00 0.00 0.00 0.00 0.00 0.00 0.00 0.00 0.00 0.00 0.00 0.00 0.00 0.01 0.03 0.04 0.05 0.10 0.15 0.24
0.03 0.02 0.01 0.01 0.01 0.01 0.01 0.01 0.01 0.02 0.01 0.01 0.01 0.01 0.00 0.00 0.00 0.00 0.00 0.00 0.00 0.00 0.00 0.00 0.00 0.00 0.00 0.00 0.00 0.00 0.00 0.00 0.00 0.00 0.00 0.01 0.02 0.03 0.07 0.14 0.18 0.13 0.09
0.04 0.03 0.02 0.02 0.02 0.02 0.03 0.03 0.02 0.02 0.02 0.01 0.01 0.01 0.00 0.00 0.00 0.00 0.00 0.00 0.01 0.00 0.00 0.00 0.00 0.00 0.00 0.00 0.00 0.00 0.00 0.00 0.00 0.00 0.01 0.03 0.03 0.05 0.16 0.25 0.25 0.14 0.04
0.05 0.05 0.05 0.05 0.05 0.05 0.06 0.05 0.04 0.03 0.03 0.03 0.03 0.02 0.01 0.01 0.01 0.01 0.01 0.01 0.01 0.00 0.00 0.00 0.00 0.00 0.00 0.00 0.00 0.01 0.01 0.01 0.02 0.02 0.01 0.02 0.05 0.11 0.23 0.25 0.22 0.12 0.05
0.04 0.05 0.06 0.07 0.07 0.08 0.08 0.07 0.06 0.05 0.04 0.03 0.02 0.02 0.01 0.01 0.01 0.01 0.01 0.00 0.00 0.00 0.00 0.00 0.00 0.00 0.00 0.00 0.00 0.01 0.03 0.05 0.07 0.06 0.03 0.02 0.08 0.18 0.22 0.17 0.08 0.09 0.17
0.04 0.04 0.05 0.05 0.05 0.06 0.06 0.06 0.05 0.03 0.02 0.02 0.01 0.01 0.01 0.01 0.00 0.00 0.00 0.00 0.00 0.00 0.00 0.00 0.00 0.00 0.00 0.00 0.00 0.02 0.06 0.11 0.11 0.08 0.05 0.06 0.14 0.15 0.10 0.05 0.05 0.12 0.12
0.04 0.04 0.03 0.03 0.03 0.03 0.04 0.04 0.03 0.02 0.01 0.01 0.01 0.01 0.00 0.00 0.00 0.00 0.00 0.00 0.00 0.00 0.00 0.00 0.00 0.00 0.00 0.00 0.00 0.03 0.08 0.12 0.12 0.09 0.12 0.13 0.10 0.05 0.02 0.03 0.05 0.06 0.05
0.02 0.02 0.01 0.01 0.01 0.01 0.01 0.01 0.01 0.01 0.00 0.00 0.00 0.00 0.00 0.00 0.00 0.00 0.00 0.00 0.00 0.00 0.00 0.00 0.00 0.00 0.00 0.00 0.01 0.05 0.08 0.09 0.10 0.12 0.12 0.07 0.03 0.02 0.02 0.02 0.02 0.03 0.07
0.02 0.01 0.01 0.01 0.00 0.00 0.00 0.00 0.00 0.00 0.00 0.00 0.00 0.00 0.00 0.00 0.00 0.00 0.00 0.00 0.00 0.00 0.00 0.01 0.01 0.02 0.02 0.03 0.09 0.13 0.11 0.14 0.15 0.13 0.05 0.01 0.01 0.02 0.02 0.01 0.01 0.02 0.06
0.03 0.02 0.01 0.01 0.01 0.00 0.00 0.00 0.00 0.00 0.00 0.00 0.00 0.00 0.00 0.00 0.00 0.00 0.00 0.00 0.00 0.00 0.00 0.01 0.02 0.02 0.04 0.07 0.10 0.12 0.16 0.16 0.12 0.07 0.02 0.02 0.03 0.04 0.04 0.04 0.05 0.04 0.08

GEFSMW_prec_meanprecacc_054.txt.gz
Total_Precipitation_Accumulation
0.00 0.00 0.00 0.00 0.00 0.00 0.00 0.00 0.00 0.01 0.02 0.04 0.06 0.07 0.10 0.12 0.14 0.12 0.13 0.12 0.09 0.07 0.05 0.03 0.02 0.01 0.00 0.00 0.00 0.00 0.00 0.00 0.00 0.00 0.01 0.00 0.00 0.00 0.00 0.00 0.00 0.00 0.00
0.00 0.00 0.00 0.00 0.00 0.00 0.00 0.00 0.00 0.00 0.00 0.01 0.04 0.08 0.14 0.18 0.18 0.16 0.14 0.12 0.10 0.08 0.06 0.03 0.02 0.01 0.01 0.00 0.00 0.00 0.01 0.01 0.00 0.01 0.03 0.02 0.00 0.00 0.00 0.00 0.00 0.00 0.00
0.00 0.00 0.00 0.00 0.00 0.00 0.00 0.00 0.00 0.00 0.01 0.02 0.05 0.09 0.13 0.15 0.14 0.11 0.11 0.11 0.12 0.11 0.09 0.06 0.03 0.02 0.01 0.01 0.01 0.01 0.01 0.02 0.01 0.01 0.04 0.05 0.04 0.02 0.01 0.00 0.00 0.00 0.00
0.00 0.00 0.00 0.00 0.00 0.00 0.00 0.00 0.00 0.00 0.01 0.02 0.03 0.04 0.07 0.08 0.09 0.11 0.14 0.14 0.12 0.12 0.10 0.07 0.06 0.04 0.03 0.03 0.02 0.02 0.03 0.04 0.03 0.02 0.03 0.06 0.07 0.09 0.06 0.02 0.00 0.00 0.00
0.00 0.00 0.00 0.00 0.00 0.00 0.00 0.00 0.00 0.00 0.00 0.01 0.02 0.04 0.06 0.08 0.10 0.11 0.13 0.13 0.12 0.10 0.09 0.08 0.07 0.06 0.06 0.06 0.06 0.06 0.06 0.07 0.08 0.07 0.07 0.08 0.08 0.10 0.11 0.06 0.02 0.01 0.00
0.00 0.00 0.00 0.00 0.00 0.00 0.00 0.00 0.00 0.00 0.00 0.01 0.01 0.02 0.04 0.06 0.07 0.09 0.10 0.12 0.12 0.11 0.10 0.08 0.08 0.08 0.07 0.06 0.07 0.07 0.08 0.10 0.12 0.12 0.13 0.13 0.12 0.10 0.11 0.08 0.04 0.03 0.01
0.00 0.00 0.00 0.00 0.00 0.00 0.00 0.00 0.00 0.00 0.01 0.01 0.01 0.02 0.04 0.07 0.09 0.10 0.11 0.11 0.11 0.10 0.10 0.09 0.09 0.09 0.08 0.06 0.06 0.06 0.07 0.09 0.13 0.15 0.15 0.16 0.15 0.15 0.16 0.16 0.11 0.07 0.03
0.00 0.00 0.00 0.00 0.00 0.00 0.00 0.00 0.00 0.00 0.01 0.02 0.02 0.02 0.03 0.04 0.06 0.07 0.08 0.11 0.12 0.14 0.13 0.11 0.10 0.08 0.06 0.05 0.05 0.07 0.08 0.10 0.12 0.14 0.15 0.16 0.14 0.16 0.17 0.19 0.20 0.14 0.05
0.00 0.00 0.00 0.00 0.00 0.00 0.00 0.00 0.00 0.01 0.02 0.02 0.02 0.02 0.02 0.03 0.05 0.05 0.06 0.08 0.10 0.10 0.10 0.10 0.09 0.07 0.06 0.05 0.05 0.05 0.06 0.06 0.07 0.09 0.10 0.12 0.12 0.13 0.13 0.16 0.23 0.26 0.17
0.00 0.00 0.00 0.00 0.00 0.00 0.00 0.01 0.01 0.01 0.02 0.03 0.03 0.02 0.03 0.04 0.05 0.05 0.04 0.05 0.06 0.07 0.07 0.08 0.07 0.06 0.05 0.04 0.03 0.02 0.02 0.02 0.02 0.04 0.07 0.09 0.10 0.11 0.13 0.13 0.15 0.22 0.26
0.00 0.00 0.00 0.00 0.00 0.01 0.01 0.01 0.02 0.02 0.03 0.03 0.03 0.03 0.03 0.04 0.04 0.04 0.04 0.05 0.05 0.05 0.05 0.06 0.06 0.05 0.04 0.03 0.02 0.01 0.01 0.00 0.01 0.03 0.05 0.07 0.09 0.11 0.11 0.12 0.13 0.15 0.21
0.00 0.00 0.00 0.00 0.01 0.02 0.02 0.02 0.03 0.04 0.04 0.04 0.04 0.04 0.04 0.04 0.04 0.04 0.04 0.04 0.04 0.04 0.04 0.04 0.04 0.03 0.02 0.02 0.01 0.01 0.00 0.00 0.00 0.01 0.02 0.04 0.06 0.08 0.11 0.13 0.13 0.13 0.16
0.02 0.01 0.01 0.01 0.01 0.02 0.03 0.04 0.04 0.04 0.04 0.04 0.05 0.05 0.05 0.05 0.05 0.04 0.04 0.03 0.03 0.03 0.03 0.03 0.03 0.02 0.02 0.01 0.01 0.01 0.01 0.01 0.01 0.01 0.01 0.01 0.02 0.02 0.05 0.08 0.11 0.13 0.17
0.04 0.03 0.03 0.04 0.04 0.04 0.04 0.04 0.04 0.04 0.04 0.04 0.05 0.05 0.05 0.05 0.05 0.04 0.04 0.03 0.03 0.03 0.02 0.02 0.02 0.01 0.01 0.01 0.01 0.01 0.01 0.00 0.01 0.00 0.01 0.01 0.01 0.02 0.03 0.06 0.10 0.17 0.21
0.05 0.04 0.04 0.04 0.04 0.04 0.03 0.04 0.04 0.05 0.05 0.05 0.05 0.05 0.05 0.04 0.04 0.04 0.04 0.03 0.03 0.02 0.02 0.01 0.01 0.01 0.02 0.02 0.01 0.01 0.01 0.01 0.00 0.00 0.00 0.00 0.01 0.01 0.04 0.09 0.13 0.18 0.23
0.05 0.04 0.04 0.05 0.04 0.04 0.03 0.03 0.03 0.05 0.06 0.06 0.06 0.05 0.05 0.04 0.03 0.03 0.03 0.02 0.02 0.02 0.02 0.02 0.02 0.02 0.02 0.02 0.02 0.01 0.01 0.01 0.00 0.00 0.00 0.00 0.00 0.01 0.05 0.09 0.13 0.21 0.31
0.04 0.03 0.03 0.04 0.04 0.04 0.04 0.04 0.04 0.05 0.06 0.06 0.06 0.06 0.06 0.05 0.04 0.03 0.03 0.03 0.03 0.03 0.03 0.04 0.04 0.04 0.03 0.02 0.01 0.01 0.01 0.00 0.00 0.00 0.00 0.00 0.01 0.03 0.04 0.05 0.10 0.15 0.24
0.03 0.02 0.02 0.03 0.02 0.02 0.03 0.03 0.04 0.05 0.07 0.09 0.09 0.08 0.08 0.07 0.07 0.07 0.06 0.05 0.05 0.06 0.07 0.06 0.05 0.04 0.02 0.02 0.01 0.01 0.00 0.00 0.00 0.00 0.00 0.01 0.02 0.03 0.07 0.14 0.18 0.13 0.09
0.05 0.03 0.03 0.04 0.03 0.04 0.04 0.04 0.04 0.06 0.10 0.11 0.11 0.11 0.11 0.10 0.09 0.09 0.09 0.09 0.09 0.09 0.07 0.05 0.03 0.02 0.01 0.01 0.00 0.00 0.00 0.00 0.00 0.00 0.01 0.03 0.03 0.05 0.17 0.25 0.25 0.14 0.04
0.08 0.07 0.07 0.07 0.07 0.08 0.10 0.11 0.12 0.13 0.14 0.13 0.14 0.13 0.11 0.12 0.13 0.14 0.15 0.14 0.11 0.08 0.05 0.03 0.02 0.01 0.00 0.00 0.00 0.01 0.01 0.01 0.02 0.02 0.01 0.02 0.05 0.12 0.24 0.25 0.23 0.13 0.05
0.08 0.10 0.12 0.14 0.16 0.18 0.19 0.20 0.20 0.19 0.19 0.17 0.17 0.17 0.15 0.16 0.16 0.16 0.13 0.10 0.07 0.04 0.02 0.01 0.01 0.00 0.00 0.00 0.00 0.01 0.03 0.05 0.07 0.06 0.03 0.02 0.08 0.19 0.22 0.18 0.09 0.10 0.18
0.09 0.11 0.14 0.17 0.20 0.21 0.23 0.24 0.25 0.24 0.23 0.21 0.20 0.20 0.18 0.15 0.11 0.09 0.07 0.05 0.03 0.01 0.01 0.00 0.00 0.00 0.00 0.00 0.00 0.02 0.06 0.11 0.11 0.08 0.05 0.06 0.14 0.16 0.10 0.05 0.05 0.12 0.12
0.08 0.10 0.11 0.12 0.13 0.16 0.20 0.23 0.23 0.22 0.19 0.17 0.16 0.14 0.10 0.07 0.05 0.03 0.02 0.01 0.01 0.00 0.00 0.00 0.00 0.00 0.00 0.00 0.00 0.03 0.08 0.13 0.12 0.09 0.12 0.13 0.10 0.05 0.02 0.03 0.05 0.06 0.05
0.05 0.05 0.06 0.07 0.07 0.09 0.11 0.12 0.12 0.11 0.09 0.08 0.07 0.05 0.04 0.03 0.01 0.01 0.00 0.00 0.00 0.00 0.00 0.00 0.00 0.00 0.00 0.00 0.01 0.05 0.08 0.09 0.10 0.12 0.12 0.07 0.03 0.02 0.02 0.02 0.02 0.03 0.07
0.03 0.02 0.02 0.02 0.03 0.03 0.03 0.04 0.03 0.03 0.03 0.02 0.02 0.01 0.01 0.00 0.00 0.00 0.00 0.00 0.00 0.00 0.00 0.01 0.01 0.02 0.02 0.03 0.10 0.13 0.11 0.14 0.15 0.14 0.05 0.01 0.01 0.02 0.02 0.01 0.01 0.02 0.06
0.04 0.02 0.01 0.01 0.01 0.01 0.01 0.01 0.01 0.01 0.01 0.00 0.00 0.00 0.00 0.00 0.00 0.00 0.00 0.00 0.00 0.00 0.00 0.01 0.02 0.02 0.04 0.07 0.10 0.12 0.16 0.17 0.12 0.07 0.02 0.02 0.03 0.04 0.04 0.04 0.05 0.04 0.08

GEFSMW_prec_meanprecacc_060.txt.gz
Total_Precipitation_Accumulation
0.00 0.00 0.00 0.00 0.00 0.00 0.00 0.00 0.00 0.01 0.04 0.07 0.08 0.09 0.11 0.15 0.16 0.15 0.18 0.18 0.14 0.11 0.08 0.05 0.03 0.02 0.01 0.01 0.00 0.00 0.00 0.00 0.00 0.01 0.01 0.00 0.00 0.00 0.00 0.00 0.00 0.00 0.00
0.00 0.00 0.00 0.00 0.00 0.00 0.00 0.00 0.00 0.00 0.01 0.01 0.05 0.09 0.16 0.21 0.22 0.22 0.20 0.18 0.17 0.15 0.11 0.07 0.05 0.03 0.02 0.01 0.01 0.01 0.01 0.01 0.01 0.02 0.03 0.02 0.01 0.00 0.00 0.00 0.00 0.00 0.00
0.00 0.00 0.00 0.00 0.00 0.00 0.00 0.00 0.00 0.00 0.01 0.03 0.08 0.13 0.19 0.19 0.18 0.14 0.14 0.15 0.18 0.20 0.17 0.12 0.09 0.06 0.04 0.03 0.03 0.03 0.03 0.03 0.03 0.03 0.05 0.06 0.04 0.02 0.01 0.00 0.00 0.00 0.00
0.00 0.00 0.00 0.00 0.00 0.00 0.00 0.00 0.00 0.00 0.01 0.03 0.04 0.07 0.09 0.10 0.11 0.13 0.16 0.20 0.20 0.21 0.20 0.17 0.14 0.11 0.09 0.07 0.07 0.06 0.06 0.06 0.05 0.04 0.04 0.06 0.08 0.10 0.07 0.02 0.01 0.00 0.00
0.00 0.00 0.00 0.00 0.00 0.00 0.00 0.00 0.00 0.00 0.00 0.02 0.02 0.05 0.07 0.09 0.12 0.15 0.17 0.19 0.20 0.20 0.20 0.19 0.19 0.17 0.16 0.16 0.16 0.14 0.12 0.12 0.11 0.10 0.10 0.11 0.11 0.13 0.14 0.08 0.03 0.02 0.00
0.00 0.00 0.00 0.00 0.00 0.00 0.00 0.00 0.00 0.00 0.00 0.01 0.01 0.03 0.05 0.07 0.09 0.12 0.14 0.17 0.20 0.20 0.19 0.20 0.21 0.23 0.22 0.20 0.19 0.19 0.17 0.16 0.17 0.16 0.16 0.16 0.15 0.12 0.12 0.10 0.05 0.03 0.01
0.00 0.00 0.00 0.00 0.00 0.00 0.00 0.00 0.00 0.00 0.01 0.02 0.02 0.02 0.04 0.08 0.10 0.12 0.14 0.16 0.16 0.15 0.17 0.19 0.21 0.24 0.26 0.24 0.21 0.19 0.17 0.17 0.20 0.20 0.19 0.19 0.17 0.16 0.17 0.17 0.12 0.08 0.03
0.00 0.00 0.00 0.00 0.00 0.00 0.00 0.00 0.00 0.00 0.01 0.02 0.02 0.02 0.03 0.05 0.07 0.09 0.11 0.14 0.16 0.20 0.23 0.23 0.24 0.24 0.23 0.21 0.18 0.17 0.16 0.17 0.18 0.18 0.18 0.18 0.17 0.18 0.18 0.20 0.20 0.14 0.05
0.00 0.00 0.00 0.00 0.00 0.00 0.00 0.00 0.00 0.01 0.02 0.02 0.03 0.02 0.03 0.04 0.05 0.07 0.08 0.11 0.14 0.16 0.18 0.19 0.20 0.18 0.17 0.16 0.15 0.14 0.13 0.12 0.13 0.13 0.14 0.16 0.14 0.14 0.14 0.17 0.23 0.26 0.17
0.00 0.00 0.00 0.00 0.00 0.00 0.00 0.01 0.01 0.01 0.02 0.03 0.03 0.02 0.03 0.04 0.06 0.06 0.06 0.07 0.09 0.11 0.13 0.14 0.14 0.14 0.13 0.11 0.11 0.10 0.08 0.08 0.08 0.09 0.10 0.11 0.12 0.12 0.13 0.14 0.16 0.22 0.26
0.00 0.00 0.00 0.00 0.00 0.01 0.01 0.01 0.02 0.02 0.03 0.03 0.03 0.03 0.03 0.04 0.05 0.06 0.06 0.07 0.08 0.08 0.09 0.10 0.11 0.10 0.09 0.08 0.07 0.07 0.06 0.06 0.06 0.07 0.09 0.09 0.11 0.12 0.11 0.12 0.13 0.15 0.22
0.00 0.00 0.00 0.00 0.01 0.02 0.02 0.02 0.03 0.04 0.04 0.04 0.04 0.04 0.05 0.05 0.05 0.06 0.06 0.06 0.07 0.07 0.06 0.06 0.07 0.07 0.06 0.05 0.05 0.05 0.05 0.05 0.05 0.05 0.06 0.07 0.08 0.10 0.13 0.14 0.14 0.13 0.16
0.02 0.01 0.01 0.01 0.01 0.02 0.03 0.04 0.04 0.04 0.04 0.04 0.05 0.05 0.05 0.05 0.06 0.06 0.06 0.06 0.05 0.05 0.05 0.04 0.04 0.04 0.04 0.04 0.04 0.04 0.05 0.05 0.05 0.05 0.06 0.06 0.07 0.07 0.08 0.10 0.12 0.14 0.17
0.04 0.03 0.03 0.04 0.04 0.04 0.04 0.05 0.05 0.04 0.04 0.05 0.06 0.06 0.06 0.06 0.07 0.07 0.06 0.06 0.05 0.05 0.04 0.03 0.03 0.03 0.03 0.04 0.04 0.05 0.06 0.07 0.07 0.08 0.08 0.08 0.07 0.06 0.06 0.07 0.10 0.17 0.21
0.05 0.04 0.04 0.04 0.04 0.04 0.04 0.04 0.04 0.05 0.07 0.07 0.07 0.07 0.07 0.07 0.07 0.07 0.07 0.06 0.05 0.04 0.04 0.03 0.04 0.04 0.05 0.07 0.08 0.09 0.10 0.10 0.10 0.09 0.07 0.05 0.04 0.03 0.04 0.09 0.13 0.18 0.23
0.05 0.04 0.04 0.05 0.04 0.04 0.04 0.04 0.05 0.06 0.07 0.09 0.09 0.09 0.09 0.08 0.07 0.08 0.07 0.06 0.06 0.06 0.06 0.06 0.06 0.07 0.09 0.13 0.12 0.10 0.09 0.09 0.07 0.05 0.03 0.02 0.02 0.02 0.05 0.09 0.13 0.21 0.31
0.04 0.03 0.03 0.04 0.04 0.04 0.05 0.06 0.07 0.07 0.10 0.11 0.11 0.12 0.14 0.14 0.11 0.09 0.09 0.09 0.09 0.09 0.10 0.12 0.13 0.15 0.16 0.17 0.13 0.10 0.08 0.06 0.05 0.04 0.02 0.01 0.01 0.03 0.04 0.05 0.10 0.15 0.24
0.03 0.02 0.02 0.03 0.03 0.03 0.03 0.04 0.05 0.08 0.13 0.17 0.19 0.18 0.18 0.19 0.20 0.19 0.18 0.17 0.17 0.19 0.20 0.21 0.20 0.19 0.17 0.14 0.10 0.07 0.05 0.04 0.02 0.01 0.01 0.01 0.02 0.03 0.07 0.14 0.18 0.13 0.09
0.05 0.03 0.03 0.04 0.03 0.04 0.05 0.05 0.05 0.08 0.15 0.19 0.23 0.22 0.24 0.26 0.27 0.29 0.31 0.29 0.27 0.26 0.25 0.22 0.19 0.15 0.11 0.08 0.05 0.03 0.02 0.01 0.01 0.00 0.01 0.03 0.03 0.05 0.17 0.26 0.25 0.14 0.04
0.08 0.07 0.07 0.07 0.07 0.08 0.11 0.12 0.13 0.16 0.19 0.20 0.23 0.24 0.26 0.29 0.32 0.34 0.35 0.35 0.30 0.25 0.19 0.15 0.10 0.07 0.05 0.03 0.02 0.02 0.02 0.02 0.02 0.02 0.01 0.02 0.05 0.12 0.24 0.26 0.23 0.13 0.05
0.08 0.10 0.13 0.14 0.16 0.18 0.20 0.21 0.22 0.23 0.23 0.24 0.27 0.28 0.29 0.31 0.33 0.33 0.31 0.27 0.22 0.16 0.11 0.07 0.04 0.02 0.01 0.01 0.00 0.02 0.03 0.05 0.07 0.06 0.03 0.02 0.08 0.19 0.23 0.18 0.09 0.10 0.18
0.09 0.11 0.15 0.18 0.21 0.23 0.24 0.26 0.28 0.28 0.27 0.27 0.27 0.28 0.27 0.25 0.20 0.18 0.16 0.12 0.09 0.06 0.04 0.02 0.01 0.01 0.00 0.00 0.00 0.02 0.06 0.11 0.11 0.08 0.05 0.06 0.14 0.16 0.11 0.05 0.05 0.12 0.13
0.08 0.10 0.12 0.12 0.14 0.18 0.23 0.26 0.27 0.25 0.23 0.22 0.21 0.20 0.17 0.14 0.10 0.07 0.05 0.03 0.02 0.02 0.01 0.01 0.00 0.00 0.00 0.00 0.00 0.03 0.08 0.13 0.12 0.09 0.12 0.14 0.11 0.06 0.02 0.03 0.05 0.06 0.05
0.05 0.05 0.06 0.07 0.08 0.10 0.12 0.14 0.14 0.14 0.12 0.11 0.10 0.08 0.06 0.05 0.03 0.02 0.01 0.01 0.00 0.00 0.00 0.00 0.00 0.01 0.00 0.00 0.01 0.05 0.08 0.09 0.10 0.12 0.12 0.07 0.03 0.02 0.02 0.02 0.02 0.03 0.07
0.03 0.02 0.02 0.03 0.03 0.03 0.04 0.04 0.04 0.04 0.04 0.03 0.02 0.02 0.01 0.01 0.01 0.00 0.00 0.00 0.00 0.00 0.00 0.01 0.01 0.02 0.02 0.03 0.10 0.13 0.11 0.14 0.15 0.14 0.05 0.01 0.01 0.02 0.02 0.01 0.01 0.02 0.06
0.04 0.02 0.01 0.01 0.01 0.01 0.01 0.01 0.01 0.01 0.01 0.01 0.00 0.00 0.00 0.00 0.00 0.00 0.00 0.00 0.00 0.00 0.00 0.01 0.02 0.02 0.04 0.07 0.10 0.12 0.16 0.17 0.13 0.07 0.02 0.02 0.03 0.04 0.04 0.04 0.05 0.04 0.08

GEFSMW_prec_meanprecacc_066.txt.gz
Total_Precipitation_Accumulation
0.00 0.00 0.00 0.00 0.00 0.00 0.00 0.00 0.00 0.01 0.04 0.07 0.09 0.09 0.12 0.15 0.16 0.16 0.19 0.20 0.17 0.15 0.11 0.07 0.05 0.02 0.01 0.01 0.01 0.01 0.01 0.00 0.00 0.01 0.01 0.00 0.00 0.00 0.00 0.00 0.00 0.00 0.00
0.00 0.00 0.00 0.00 0.00 0.00 0.00 0.00 0.00 0.00 0.01 0.01 0.05 0.09 0.16 0.21 0.22 0.23 0.22 0.20 0.20 0.19 0.15 0.09 0.08 0.06 0.03 0.01 0.01 0.01 0.01 0.01 0.01 0.02 0.03 0.02 0.01 0.00 0.00 0.00 0.00 0.00 0.00
0.00 0.00 0.00 0.00 0.00 0.00 0.00 0.00 0.00 0.00 0.01 0.03 0.08 0.14 0.19 0.20 0.18 0.14 0.14 0.16 0.19 0.22 0.19 0.16 0.13 0.10 0.08 0.05 0.04 0.04 0.04 0.05 0.04 0.04 0.06 0.07 0.04 0.02 0.01 0.00 0.00 0.00 0.00
0.00 0.00 0.00 0.00 0.00 0.00 0.00 0.00 0.00 0.00 0.01 0.03 0.04 0.07 0.10 0.11 0.11 0.13 0.17 0.20 0.21 0.22 0.22 0.21 0.19 0.17 0.14 0.12 0.11 0.11 0.10 0.09 0.08 0.06 0.06 0.07 0.08 0.10 0.08 0.03 0.01 0.01 0.00
0.00 0.00 0.00 0.00 0.00 0.00 0.00 0.00 0.00 0.00 0.00 0.02 0.02 0.05 0.07 0.09 0.12 0.15 0.17 0.19 0.20 0.21 0.22 0.23 0.23 0.22 0.23 0.24 0.24 0.22 0.20 0.18 0.16 0.14 0.13 0.13 0.13 0.14 0.15 0.09 0.04 0.02 0.01
0.00 0.00 0.00 0.00 0.00 0.00 0.00 0.00 0.00 0.00 0.00 0.01 0.01 0.03 0.05 0.07 0.10 0.12 0.14 0.17 0.20 0.21 0.21 0.23 0.25 0.28 0.29 0.29 0.30 0.31 0.30 0.28 0.26 0.24 0.22 0.22 0.19 0.15 0.16 0.13 0.08 0.05 0.03
0.00 0.00 0.00 0.00 0.00 0.00 0.00 0.00 0.00 0.00 0.01 0.02 0.02 0.02 0.05 0.08 0.10 0.13 0.15 0.16 0.17 0.16 0.18 0.23 0.27 0.32 0.35 0.37 0.35 0.33 0.31 0.31 0.32 0.32 0.31 0.30 0.26 0.23 0.23 0.23 0.17 0.12 0.06
0.00 0.00 0.00 0.00 0.00 0.00 0.00 0.00 0.00 0.00 0.01 0.02 0.02 0.02 0.03 0.05 0.07 0.09 0.11 0.14 0.17 0.21 0.25 0.26 0.29 0.31 0.33 0.33 0.31 0.31 0.30 0.30 0.32 0.31 0.31 0.31 0.28 0.28 0.28 0.28 0.29 0.23 0.12
0.00 0.00 0.00 0.00 0.00 0.00 0.00 0.00 0.00 0.01 0.02 0.02 0.03 0.02 0.03 0.04 0.06 0.07 0.08 0.11 0.14 0.17 0.19 0.22 0.24 0.24 0.25 0.24 0.25 0.24 0.23 0.23 0.23 0.24 0.26 0.28 0.26 0.25 0.24 0.26 0.32 0.36 0.27
0.00 0.00 0.00 0.00 0.00 0.00 0.00 0.01 0.01 0.01 0.02 0.03 0.03 0.02 0.03 0.04 0.06 0.06 0.06 0.07 0.09 0.11 0.13 0.16 0.16 0.17 0.17 0.16 0.16 0.16 0.15 0.15 0.16 0.18 0.20 0.23 0.23 0.24 0.24 0.24 0.26 0.33 0.37
0.00 0.00 0.00 0.00 0.00 0.01 0.01 0.01 0.02 0.02 0.03 0.03 0.03 0.03 0.03 0.04 0.05 0.06 0.06 0.07 0.08 0.08 0.10 0.11 0.12 0.12 0.12 0.11 0.10 0.10 0.10 0.11 0.12 0.15 0.18 0.20 0.22 0.23 0.23 0.23 0.24 0.26 0.31
0.00 0.00 0.00 0.00 0.01 0.02 0.02 0.02 0.03 0.04 0.04 0.04 0.04 0.04 0.05 0.05 0.05 0.06 0.06 0.07 0.07 0.07 0.07 0.07 0.08 0.08 0.08 0.07 0.07 0.07 0.07 0.08 0.10 0.11 0.13 0.15 0.17 0.21 0.24 0.27 0.26 0.25 0.27
0.02 0.01 0.01 0.01 0.01 0.02 0.03 0.04 0.04 0.04 0.04 0.04 0.05 0.05 0.05 0.06 0.06 0.06 0.06 0.06 0.06 0.06 0.05 0.05 0.05 0.05 0.05 0.05 0.06 0.06 0.08 0.08 0.09 0.11 0.13 0.15 0.17 0.18 0.20 0.22 0.23 0.23 0.25
0.04 0.03 0.03 0.04 0.04 0.04 0.04 0.05 0.05 0.04 0.04 0.05 0.06 0.06 0.06 0.07 0.07 0.08 0.08 0.07 0.06 0.05 0.05 0.05 0.05 0.05 0.05 0.06 0.07 0.08 0.10 0.11 0.13 0.15 0.17 0.18 0.17 0.16 0.16 0.16 0.18 0.23 0.26
0.05 0.04 0.04 0.04 0.04 0.04 0.04 0.04 0.04 0.05 0.07 0.08 0.08 0.08 0.08 0.09 0.09 0.10 0.10 0.09 0.08 0.06 0.06 0.07 0.07 0.07 0.08 0.10 0.12 0.14 0.17 0.19 0.20 0.20 0.19 0.17 0.15 0.13 0.13 0.15 0.17 0.21 0.25
0.05 0.04 0.04 0.05 0.04 0.04 0.04 0.04 0.05 0.06 0.07 0.09 0.10 0.10 0.10 0.11 0.11 0.12 0.11 0.11 0.12 0.13 0.12 0.12 0.13 0.14 0.16 0.21 0.20 0.18 0.19 0.21 0.19 0.17 0.15 0.12 0.10 0.09 0.10 0.12 0.15 0.23 0.32
0.04 0.03 0.03 0.04 0.04 0.04 0.05 0.06 0.07 0.07 0.10 0.11 0.12 0.13 0.16 0.17 0.15 0.16 0.18 0.19 0.20 0.23 0.27 0.28 0.27 0.28 0.32 0.32 0.25 0.20 0.15 0.14 0.13 0.11 0.09 0.07 0.05 0.06 0.05 0.06 0.11 0.16 0.25
0.03 0.02 0.02 0.03 0.03 0.03 0.03 0.04 0.05 0.08 0.13 0.17 0.19 0.19 0.20 0.24 0.25 0.25 0.27 0.28 0.31 0.36 0.41 0.42 0.39 0.36 0.34 0.29 0.21 0.15 0.11 0.09 0.07 0.05 0.03 0.03 0.02 0.03 0.08 0.14 0.18 0.13 0.09
0.05 0.03 0.03 0.04 0.03 0.04 0.05 0.05 0.05 0.08 0.15 0.20 0.23 0.23 0.25 0.28 0.32 0.36 0.40 0.39 0.38 0.41 0.41 0.38 0.33 0.28 0.23 0.16 0.10 0.07 0.05 0.04 0.02 0.01 0.02 0.03 0.03 0.05 0.17 0.26 0.25 0.14 0.04
0.08 0.07 0.07 0.07 0.07 0.08 0.11 0.12 0.13 0.16 0.19 0.20 0.24 0.25 0.27 0.32 0.36 0.40 0.45 0.46 0.42 0.37 0.32 0.26 0.20 0.16 0.13 0.08 0.05 0.04 0.03 0.02 0.02 0.02 0.02 0.02 0.05 0.12 0.24 0.26 0.23 0.13 0.05
0.08 0.10 0.13 0.14 0.16 0.18 0.20 0.21 0.22 0.23 0.24 0.25 0.28 0.30 0.31 0.34 0.36 0.38 0.37 0.34 0.30 0.23 0.17 0.13 0.09 0.06 0.04 0.02 0.01 0.02 0.04 0.05 0.07 0.06 0.03 0.02 0.08 0.19 0.23 0.18 0.09 0.10 0.18
0.09 0.11 0.15 0.18 0.21 0.23 0.24 0.26 0.28 0.28 0.28 0.28 0.28 0.30 0.29 0.27 0.23 0.22 0.21 0.17 0.13 0.10 0.06 0.04 0.02 0.01 0.01 0.00 0.01 0.03 0.06 0.11 0.11 0.08 0.05 0.06 0.14 0.16 0.11 0.05 0.05 0.12 0.13
0.08 0.10 0.12 0.12 0.14 0.18 0.23 0.26 0.27 0.26 0.24 0.22 0.22 0.21 0.18 0.15 0.12 0.08 0.06 0.05 0.04 0.03 0.02 0.02 0.01 0.01 0.00 0.00 0.00 0.03 0.08 0.13 0.12 0.09 0.12 0.14 0.11 0.06 0.02 0.03 0.05 0.06 0.05
0.05 0.05 0.06 0.07 0.08 0.10 0.12 0.14 0.15 0.14 0.12 0.11 0.10 0.09 0.07 0.05 0.04 0.02 0.01 0.01 0.01 0.01 0.00 0.00 0.01 0.01 0.00 0.00 0.01 0.05 0.08 0.09 0.10 0.12 0.12 0.07 0.03 0.02 0.02 0.02 0.02 0.03 0.07
0.03 0.03 0.03 0.03 0.03 0.03 0.04 0.04 0.04 0.04 0.04 0.03 0.02 0.02 0.01 0.01 0.01 0.01 0.00 0.00 0.00 0.00 0.00 0.01 0.01 0.02 0.02 0.03 0.10 0.13 0.11 0.14 0.15 0.14 0.05 0.01 0.01 0.02 0.02 0.01 0.01 0.03 0.06
0.05 0.02 0.01 0.01 0.01 0.01 0.01 0.01 0.01 0.01 0.01 0.01 0.00 0.00 0.00 0.00 0.00 0.00 0.00 0.00 0.00 0.00 0.00 0.01 0.02 0.02 0.04 0.07 0.10 0.12 0.16 0.17 0.13 0.07 0.02 0.02 0.03 0.04 0.04 0.04 0.05 0.04 0.08

GEFSMW_prec_meanprecacc_072.txt.gz
Total_Precipitation_Accumulation
0.00 0.00 0.00 0.00 0.00 0.00 0.00 0.00 0.01 0.02 0.04 0.08 0.10 0.10 0.12 0.15 0.17 0.16 0.20 0.20 0.17 0.15 0.11 0.07 0.05 0.03 0.01 0.01 0.01 0.01 0.01 0.01 0.00 0.01 0.01 0.00 0.00 0.00 0.00 0.00 0.00 0.00 0.00
0.00 0.00 0.00 0.00 0.00 0.00 0.00 0.00 0.00 0.01 0.01 0.02 0.06 0.10 0.16 0.21 0.22 0.23 0.22 0.20 0.20 0.20 0.15 0.10 0.08 0.06 0.04 0.02 0.02 0.02 0.02 0.01 0.01 0.02 0.03 0.02 0.01 0.00 0.00 0.00 0.00 0.00 0.00
0.00 0.00 0.00 0.00 0.00 0.00 0.00 0.00 0.00 0.00 0.01 0.03 0.09 0.15 0.20 0.20 0.19 0.14 0.14 0.16 0.20 0.22 0.20 0.17 0.14 0.11 0.09 0.06 0.06 0.05 0.05 0.05 0.04 0.04 0.07 0.07 0.04 0.03 0.01 0.00 0.00 0.00 0.00
0.00 0.00 0.00 0.00 0.00 0.00 0.00 0.00 0.00 0.00 0.01 0.04 0.05 0.08 0.10 0.11 0.11 0.13 0.17 0.20 0.21 0.23 0.23 0.22 0.20 0.19 0.16 0.14 0.14 0.14 0.13 0.12 0.10 0.07 0.07 0.08 0.09 0.10 0.08 0.03 0.02 0.01 0.01
0.00 0.00 0.00 0.00 0.00 0.00 0.00 0.00 0.00 0.00 0.00 0.02 0.02 0.05 0.08 0.10 0.12 0.15 0.17 0.19 0.20 0.21 0.23 0.24 0.25 0.24 0.25 0.27 0.28 0.27 0.25 0.24 0.21 0.18 0.17 0.16 0.15 0.15 0.16 0.10 0.05 0.04 0.03
0.00 0.00 0.00 0.00 0.00 0.00 0.00 0.00 0.00 0.00 0.00 0.01 0.01 0.03 0.05 0.08 0.10 0.12 0.14 0.18 0.21 0.22 0.23 0.25 0.27 0.31 0.32 0.34 0.36 0.37 0.38 0.38 0.35 0.31 0.28 0.28 0.26 0.22 0.24 0.20 0.13 0.10 0.07
0.00 0.00 0.00 0.00 0.00 0.00 0.00 0.00 0.00 0.00 0.01 0.02 0.02 0.02 0.05 0.08 0.10 0.13 0.15 0.17 0.17 0.17 0.20 0.25 0.30 0.35 0.39 0.42 0.42 0.40 0.40 0.43 0.45 0.44 0.42 0.41 0.37 0.35 0.36 0.36 0.28 0.21 0.15
0.00 0.00 0.00 0.00 0.00 0.00 0.00 0.00 0.00 0.00 0.01 0.02 0.02 0.02 0.03 0.05 0.07 0.09 0.11 0.14 0.17 0.22 0.26 0.28 0.31 0.34 0.37 0.38 0.38 0.39 0.40 0.43 0.46 0.48 0.47 0.47 0.44 0.44 0.45 0.48 0.51 0.44 0.32
0.00 0.00 0.00 0.00 0.00 0.00 0.00 0.00 0.00 0.01 0.02 0.02 0.03 0.02 0.03 0.04 0.06 0.07 0.08 0.11 0.14 0.17 0.20 0.23 0.25 0.26 0.28 0.29 0.31 0.33 0.33 0.35 0.37 0.39 0.42 0.44 0.42 0.42 0.44 0.48 0.58 0.65 0.56
0.00 0.00 0.00 0.00 0.00 0.00 0.00 0.01 0.01 0.01 0.02 0.03 0.03 0.02 0.03 0.04 0.06 0.06 0.06 0.07 0.09 0.11 0.14 0.16 0.17 0.19 0.19 0.20 0.21 0.22 0.21 0.24 0.26 0.30 0.34 0.37 0.39 0.41 0.44 0.47 0.51 0.59 0.64
0.00 0.00 0.00 0.00 0.00 0.01 0.01 0.01 0.02 0.02 0.03 0.03 0.03 0.03 0.03 0.04 0.05 0.06 0.06 0.07 0.08 0.08 0.10 0.11 0.12 0.13 0.13 0.13 0.13 0.14 0.14 0.16 0.19 0.23 0.27 0.32 0.36 0.39 0.41 0.44 0.47 0.50 0.56
0.00 0.00 0.00 0.00 0.01 0.02 0.02 0.02 0.03 0.04 0.04 0.04 0.04 0.04 0.05 0.05 0.05 0.06 0.06 0.07 0.07 0.07 0.07 0.07 0.08 0.09 0.09 0.09 0.09 0.10 0.11 0.12 0.14 0.17 0.20 0.24 0.28 0.32 0.37 0.41 0.41 0.41 0.43
0.02 0.01 0.01 0.01 0.01 0.02 0.03 0.04 0.04 0.04 0.04 0.04 0.05 0.05 0.05 0.06 0.06 0.06 0.06 0.06 0.06 0.06 0.06 0.05 0.05 0.06 0.06 0.07 0.08 0.09 0.10 0.12 0.14 0.17 0.22 0.27 0.31 0.35 0.37 0.39 0.38 0.37 0.37
0.04 0.03 0.03 0.04 0.04 0.04 0.04 0.05 0.05 0.04 0.04 0.05 0.06 0.06 0.06 0.07 0.07 0.08 0.08 0.07 0.06 0.06 0.05 0.05 0.06 0.06 0.07 0.08 0.10 0.11 0.13 0.16 0.19 0.22 0.26 0.28 0.29 0.29 0.29 0.29 0.30 0.33 0.34
0.05 0.04 0.04 0.04 0.04 0.04 0.04 0.04 0.04 0.05 0.07 0.08 0.08 0.08 0.08 0.09 0.09 0.10 0.10 0.09 0.08 0.07 0.07 0.08 0.08 0.09 0.09 0.12 0.15 0.18 0.21 0.25 0.28 0.30 0.29 0.27 0.25 0.22 0.20 0.22 0.24 0.26 0.30
0.05 0.04 0.04 0.05 0.04 0.04 0.04 0.04 0.05 0.06 0.07 0.09 0.10 0.10 0.10 0.11 0.11 0.12 0.11 0.11 0.12 0.13 0.13 0.14 0.15 0.17 0.19 0.26 0.25 0.23 0.27 0.31 0.31 0.29 0.25 0.22 0.19 0.16 0.16 0.17 0.18 0.25 0.34
0.04 0.03 0.03 0.04 0.04 0.04 0.05 0.06 0.07 0.07 0.10 0.11 0.12 0.13 0.16 0.17 0.15 0.16 0.18 0.19 0.20 0.23 0.28 0.30 0.30 0.33 0.39 0.40 0.31 0.27 0.24 0.24 0.24 0.21 0.18 0.15 0.12 0.12 0.09 0.09 0.13 0.17 0.25
0.03 0.02 0.02 0.03 0.03 0.03 0.03 0.04 0.05 0.08 0.13 0.17 0.19 0.19 0.20 0.24 0.25 0.25 0.28 0.29 0.32 0.38 0.44 0.46 0.45 0.42 0.41 0.35 0.28 0.22 0.17 0.14 0.12 0.09 0.07 0.06 0.05 0.05 0.09 0.15 0.19 0.13 0.10
0.05 0.03 0.03 0.04 0.03 0.04 0.05 0.05 0.05 0.08 0.15 0.20 0.23 0.23 0.25 0.28 0.32 0.37 0.41 0.40 0.40 0.42 0.44 0.40 0.37 0.33 0.30 0.22 0.15 0.11 0.10 0.08 0.06 0.04 0.03 0.04 0.04 0.05 0.17 0.26 0.25 0.14 0.05
0.08 0.07 0.07 0.07 0.07 0.08 0.11 0.12 0.13 0.16 0.19 0.20 0.24 0.25 0.27 0.32 0.36 0.40 0.45 0.46 0.43 0.38 0.32 0.27 0.22 0.18 0.15 0.11 0.08 0.06 0.05 0.04 0.04 0.04 0.03 0.03 0.05 0.12 0.24 0.26 0.24 0.13 0.05
0.08 0.10 0.13 0.14 0.16 0.18 0.20 0.21 0.22 0.23 0.24 0.25 0.28 0.30 0.31 0.34 0.36 0.38 0.37 0.34 0.30 0.23 0.17 0.13 0.10 0.07 0.05 0.04 0.03 0.03 0.05 0.06 0.08 0.06 0.03 0.02 0.08 0.19 0.23 0.19 0.09 0.10 0.18
0.09 0.11 0.15 0.18 0.21 0.23 0.24 0.26 0.28 0.28 0.28 0.28 0.28 0.30 0.29 0.27 0.23 0.22 0.21 0.18 0.13 0.10 0.07 0.04 0.02 0.02 0.01 0.01 0.01 0.03 0.07 0.11 0.12 0.08 0.05 0.06 0.14 0.16 0.11 0.05 0.05 0.12 0.13
0.08 0.10 0.12 0.12 0.14 0.18 0.23 0.26 0.27 0.26 0.24 0.22 0.22 0.21 0.18 0.15 0.12 0.08 0.07 0.05 0.04 0.03 0.03 0.02 0.01 0.01 0.00 0.00 0.00 0.03 0.08 0.13 0.12 0.09 0.12 0.14 0.11 0.06 0.02 0.03 0.05 0.06 0.05
0.05 0.05 0.06 0.07 0.08 0.10 0.12 0.14 0.15 0.14 0.12 0.11 0.10 0.09 0.07 0.05 0.04 0.02 0.01 0.01 0.01 0.01 0.00 0.00 0.01 0.01 0.00 0.00 0.01 0.05 0.08 0.09 0.10 0.12 0.12 0.07 0.03 0.02 0.02 0.02 0.02 0.03 0.07
0.03 0.03 0.03 0.03 0.03 0.03 0.04 0.04 0.04 0.04 0.04 0.03 0.02 0.02 0.01 0.01 0.01 0.01 0.00 0.00 0.00 0.00 0.00 0.01 0.01 0.02 0.02 0.03 0.10 0.13 0.11 0.14 0.15 0.14 0.05 0.01 0.01 0.02 0.02 0.01 0.01 0.03 0.06
0.05 0.02 0.01 0.01 0.01 0.01 0.01 0.01 0.01 0.01 0.01 0.01 0.00 0.00 0.00 0.00 0.00 0.00 0.00 0.00 0.00 0.00 0.00 0.01 0.02 0.02 0.04 0.07 0.10 0.12 0.16 0.17 0.13 0.07 0.02 0.02 0.03 0.04 0.04 0.04 0.05 0.04 0.08

GEFSMW_prec_meanprecacc_078.txt.gz
Total_Precipitation_Accumulation
0.00 0.00 0.00 0.00 0.00 0.00 0.00 0.01 0.01 0.02 0.05 0.09 0.10 0.11 0.12 0.15 0.17 0.17 0.20 0.21 0.18 0.15 0.11 0.08 0.06 0.03 0.02 0.02 0.02 0.01 0.01 0.01 0.01 0.01 0.01 0.00 0.00 0.00 0.00 0.00 0.00 0.00 0.00
0.00 0.00 0.00 0.00 0.00 0.00 0.00 0.00 0.01 0.01 0.02 0.03 0.07 0.11 0.17 0.22 0.23 0.24 0.22 0.21 0.21 0.21 0.17 0.11 0.09 0.08 0.05 0.03 0.03 0.03 0.03 0.03 0.03 0.03 0.04 0.02 0.01 0.00 0.00 0.00 0.00 0.00 0.00
0.00 0.00 0.00 0.00 0.00 0.00 0.00 0.00 0.00 0.01 0.02 0.04 0.10 0.16 0.21 0.21 0.19 0.15 0.15 0.18 0.22 0.24 0.21 0.19 0.16 0.13 0.11 0.08 0.08 0.08 0.09 0.09 0.09 0.08 0.10 0.09 0.05 0.03 0.01 0.01 0.01 0.01 0.01
0.00 0.00 0.00 0.00 0.00 0.00 0.00 0.00 0.00 0.00 0.01 0.04 0.06 0.08 0.11 0.11 0.12 0.14 0.18 0.21 0.22 0.24 0.24 0.23 0.22 0.20 0.18 0.16 0.17 0.19 0.19 0.18 0.16 0.13 0.12 0.12 0.12 0.13 0.09 0.04 0.03 0.03 0.03
0.00 0.00 0.00 0.00 0.00 0.00 0.00 0.00 0.00 0.00 0.01 0.02 0.03 0.06 0.08 0.10 0.13 0.16 0.18 0.20 0.21 0.22 0.24 0.25 0.26 0.25 0.26 0.30 0.32 0.33 0.33 0.32 0.29 0.26 0.25 0.24 0.21 0.20 0.20 0.13 0.07 0.07 0.07
0.00 0.00 0.00 0.00 0.00 0.00 0.00 0.00 0.00 0.00 0.00 0.01 0.02 0.04 0.06 0.08 0.11 0.13 0.15 0.18 0.22 0.23 0.24 0.26 0.29 0.32 0.34 0.36 0.39 0.43 0.46 0.47 0.45 0.42 0.38 0.38 0.35 0.31 0.33 0.29 0.19 0.16 0.14
0.00 0.00 0.00 0.00 0.00 0.00 0.00 0.00 0.00 0.00 0.01 0.02 0.02 0.02 0.05 0.08 0.11 0.13 0.16 0.18 0.18 0.18 0.21 0.27 0.31 0.37 0.41 0.45 0.46 0.45 0.46 0.51 0.56 0.57 0.55 0.54 0.51 0.49 0.53 0.56 0.46 0.37 0.29
0.00 0.00 0.00 0.00 0.00 0.00 0.00 0.00 0.00 0.00 0.01 0.02 0.02 0.02 0.03 0.05 0.07 0.10 0.11 0.14 0.17 0.22 0.26 0.28 0.32 0.35 0.38 0.40 0.41 0.43 0.45 0.50 0.55 0.59 0.61 0.61 0.58 0.59 0.63 0.70 0.77 0.71 0.56
0.00 0.00 0.00 0.00 0.00 0.00 0.00 0.00 0.00 0.01 0.02 0.02 0.03 0.02 0.03 0.04 0.06 0.07 0.08 0.11 0.14 0.17 0.20 0.23 0.26 0.27 0.29 0.31 0.34 0.36 0.38 0.41 0.45 0.48 0.53 0.56 0.55 0.58 0.61 0.68 0.82 0.94 0.84
0.00 0.00 0.00 0.00 0.00 0.00 0.00 0.01 0.01 0.01 0.02 0.03 0.03 0.02 0.03 0.04 0.06 0.06 0.06 0.07 0.09 0.11 0.14 0.16 0.18 0.19 0.20 0.20 0.22 0.23 0.24 0.27 0.30 0.34 0.40 0.44 0.46 0.50 0.55 0.61 0.69 0.83 0.92
0.00 0.00 0.00 0.00 0.00 0.01 0.01 0.01 0.02 0.02 0.03 0.03 0.03 0.03 0.03 0.04 0.05 0.06 0.06 0.07 0.08 0.08 0.10 0.11 0.12 0.13 0.13 0.13 0.14 0.14 0.15 0.18 0.21 0.25 0.30 0.35 0.40 0.43 0.46 0.50 0.55 0.62 0.72
0.00 0.00 0.00 0.00 0.01 0.02 0.02 0.02 0.03 0.04 0.04 0.04 0.04 0.04 0.05 0.05 0.05 0.06 0.06 0.07 0.07 0.07 0.07 0.07 0.08 0.09 0.09 0.09 0.09 0.10 0.11 0.13 0.15 0.18 0.22 0.26 0.30 0.35 0.40 0.45 0.47 0.48 0.52
0.02 0.01 0.01 0.01 0.01 0.02 0.03 0.04 0.04 0.04 0.04 0.04 0.05 0.05 0.05 0.06 0.06 0.06 0.06 0.06 0.06 0.06 0.06 0.05 0.05 0.06 0.06 0.07 0.08 0.09 0.11 0.12 0.14 0.18 0.23 0.28 0.33 0.38 0.41 0.43 0.44 0.44 0.46
0.04 0.03 0.03 0.04 0.04 0.04 0.04 0.05 0.05 0.04 0.04 0.05 0.06 0.06 0.06 0.07 0.07 0.08 0.08 0.07 0.06 0.06 0.05 0.05 0.06 0.06 0.07 0.08 0.10 0.11 0.14 0.17 0.20 0.23 0.28 0.31 0.33 0.33 0.33 0.34 0.35 0.39 0.41
0.05 0.04 0.04 0.04 0.04 0.04 0.04 0.04 0.04 0.05 0.07 0.08 0.08 0.08 0.08 0.09 0.09 0.10 0.10 0.09 0.08 0.07 0.07 0.08 0.08 0.09 0.09 0.12 0.15 0.18 0.21 0.25 0.29 0.31 0.31 0.30 0.28 0.25 0.24 0.26 0.28 0.31 0.34
0.05 0.04 0.04 0.05 0.04 0.04 0.04 0.04 0.05 0.06 0.07 0.09 0.10 0.10 0.10 0.11 0.11 0.12 0.11 0.11 0.12 0.13 0.13 0.14 0.15 0.17 0.19 0.26 0.25 0.23 0.28 0.32 0.32 0.30 0.26 0.24 0.21 0.19 0.19 0.20 0.22 0.28 0.37
0.04 0.03 0.03 0.04 0.04 0.04 0.05 0.06 0.07 0.07 0.10 0.11 0.12 0.13 0.16 0.17 0.15 0.16 0.18 0.19 0.20 0.23 0.28 0.30 0.30 0.33 0.39 0.40 0.32 0.27 0.24 0.24 0.24 0.22 0.19 0.17 0.15 0.14 0.12 0.11 0.15 0.19 0.27
0.03 0.02 0.02 0.03 0.03 0.03 0.03 0.04 0.05 0.08 0.13 0.17 0.19 0.19 0.20 0.24 0.25 0.25 0.28 0.29 0.32 0.38 0.44 0.46 0.45 0.42 0.41 0.36 0.28 0.23 0.17 0.14 0.12 0.09 0.08 0.07 0.06 0.06 0.10 0.16 0.20 0.14 0.11
0.05 0.03 0.03 0.04 0.03 0.04 0.05 0.05 0.05 0.08 0.15 0.20 0.23 0.23 0.25 0.28 0.32 0.37 0.41 0.40 0.40 0.42 0.44 0.40 0.37 0.33 0.30 0.22 0.15 0.11 0.10 0.08 0.06 0.04 0.04 0.05 0.04 0.06 0.18 0.26 0.26 0.14 0.05
0.08 0.07 0.07 0.07 0.07 0.08 0.11 0.12 0.13 0.16 0.19 0.20 0.24 0.25 0.27 0.32 0.36 0.40 0.45 0.46 0.43 0.38 0.32 0.27 0.22 0.18 0.15 0.11 0.08 0.06 0.05 0.04 0.04 0.04 0.03 0.03 0.05 0.12 0.25 0.26 0.24 0.13 0.05
0.08 0.10 0.13 0.14 0.16 0.18 0.20 0.21 0.22 0.23 0.24 0.25 0.28 0.30 0.31 0.34 0.36 0.38 0.37 0.34 0.30 0.23 0.17 0.13 0.10 0.07 0.05 0.04 0.03 0.03 0.05 0.06 0.08 0.06 0.03 0.02 0.09 0.19 0.23 0.19 0.09 0.10 0.18
0.09 0.11 0.15 0.18 0.21 0.23 0.24 0.26 0.28 0.28 0.28 0.28 0.28 0.30 0.29 0.27 0.23 0.22 0.21 0.18 0.13 0.10 0.07 0.04 0.02 0.02 0.01 0.01 0.01 0.03 0.07 0.11 0.12 0.08 0.05 0.06 0.14 0.16 0.11 0.06 0.05 0.12 0.13
0.09 0.10 0.12 0.12 0.14 0.18 0.23 0.26 0.27 0.26 0.24 0.22 0.22 0.21 0.18 0.15 0.12 0.08 0.07 0.05 0.04 0.03 0.03 0.02 0.01 0.01 0.00 0.00 0.00 0.03 0.08 0.13 0.12 0.09 0.12 0.14 0.11 0.06 0.02 0.03 0.05 0.06 0.05
0.05 0.05 0.06 0.07 0.08 0.10 0.12 0.14 0.15 0.14 0.12 0.11 0.10 0.09 0.07 0.05 0.04 0.02 0.01 0.01 0.01 0.01 0.00 0.00 0.01 0.01 0.00 0.00 0.01 0.05 0.08 0.09 0.10 0.12 0.12 0.07 0.03 0.02 0.02 0.02 0.02 0.03 0.07
0.04 0.03 0.03 0.03 0.03 0.03 0.04 0.04 0.04 0.04 0.04 0.03 0.02 0.02 0.01 0.01 0.01 0.01 0.00 0.00 0.00 0.00 0.00 0.01 0.01 0.02 0.02 0.03 0.10 0.13 0.11 0.14 0.15 0.14 0.05 0.01 0.01 0.02 0.02 0.01 0.01 0.03 0.06
0.05 0.03 0.01 0.01 0.01 0.01 0.01 0.01 0.01 0.01 0.01 0.01 0.00 0.00 0.00 0.00 0.00 0.00 0.00 0.00 0.00 0.00 0.00 0.01 0.02 0.02 0.04 0.07 0.10 0.12 0.16 0.17 0.13 0.07 0.02 0.02 0.03 0.04 0.04 0.04 0.05 0.04 0.08

GEFSMW_prec_meanprecacc_084.txt.gz
Total_Precipitation_Accumulation
0.00 0.01 0.01 0.02 0.03 0.03 0.03 0.03 0.03 0.04 0.07 0.09 0.11 0.11 0.13 0.16 0.18 0.18 0.20 0.21 0.18 0.16 0.12 0.08 0.06 0.04 0.02 0.02 0.02 0.02 0.02 0.02 0.02 0.01 0.01 0.00 0.00 0.00 0.00 0.00 0.00 0.00 0.00
0.00 0.00 0.00 0.01 0.01 0.01 0.02 0.02 0.03 0.03 0.04 0.05 0.08 0.12 0.19 0.22 0.23 0.25 0.23 0.21 0.22 0.21 0.18 0.12 0.10 0.09 0.07 0.04 0.04 0.05 0.04 0.04 0.04 0.04 0.05 0.03 0.01 0.00 0.01 0.01 0.01 0.01 0.01
0.00 0.00 0.00 0.00 0.00 0.00 0.01 0.01 0.01 0.02 0.04 0.07 0.12 0.18 0.22 0.22 0.20 0.16 0.16 0.20 0.24 0.26 0.23 0.20 0.17 0.15 0.13 0.09 0.09 0.10 0.11 0.11 0.11 0.10 0.13 0.11 0.06 0.03 0.02 0.01 0.02 0.02 0.02
0.00 0.00 0.00 0.00 0.00 0.00 0.00 0.00 0.01 0.01 0.02 0.06 0.07 0.10 0.12 0.13 0.14 0.16 0.20 0.25 0.26 0.27 0.26 0.26 0.24 0.22 0.20 0.18 0.19 0.22 0.22 0.21 0.18 0.15 0.14 0.14 0.13 0.14 0.10 0.04 0.03 0.04 0.04
0.00 0.00 0.00 0.00 0.00 0.00 0.00 0.00 0.01 0.01 0.01 0.03 0.03 0.07 0.09 0.11 0.15 0.17 0.19 0.22 0.23 0.24 0.26 0.27 0.28 0.27 0.28 0.31 0.34 0.35 0.35 0.34 0.31 0.28 0.27 0.27 0.23 0.22 0.23 0.14 0.08 0.08 0.09
0.00 0.00 0.00 0.00 0.00 0.00 0.00 0.00 0.00 0.00 0.01 0.02 0.03 0.04 0.06 0.10 0.12 0.14 0.16 0.20 0.24 0.25 0.25 0.27 0.29 0.33 0.36 0.37 0.40 0.45 0.48 0.50 0.48 0.45 0.41 0.41 0.37 0.33 0.36 0.31 0.21 0.18 0.16
0.00 0.00 0.00 0.00 0.00 0.00 0.00 0.00 0.00 0.00 0.01 0.02 0.02 0.03 0.06 0.10 0.13 0.15 0.18 0.20 0.20 0.19 0.22 0.28 0.33 0.38 0.42 0.46 0.47 0.47 0.47 0.53 0.57 0.59 0.57 0.57 0.54 0.52 0.56 0.59 0.48 0.39 0.31
0.00 0.00 0.00 0.00 0.00 0.00 0.00 0.00 0.00 0.00 0.01 0.02 0.02 0.03 0.04 0.07 0.09 0.11 0.13 0.16 0.19 0.23 0.27 0.30 0.33 0.36 0.39 0.41 0.42 0.44 0.46 0.52 0.57 0.61 0.63 0.64 0.60 0.62 0.67 0.73 0.80 0.73 0.58
0.00 0.00 0.00 0.00 0.00 0.00 0.00 0.00 0.00 0.01 0.02 0.03 0.03 0.02 0.03 0.04 0.06 0.08 0.09 0.12 0.15 0.18 0.21 0.24 0.26 0.27 0.29 0.31 0.34 0.37 0.38 0.42 0.45 0.49 0.54 0.58 0.57 0.59 0.63 0.71 0.85 0.97 0.87
0.00 0.00 0.00 0.00 0.00 0.00 0.00 0.01 0.01 0.01 0.02 0.03 0.03 0.02 0.03 0.04 0.06 0.06 0.06 0.07 0.09 0.11 0.14 0.17 0.18 0.20 0.20 0.21 0.23 0.24 0.24 0.27 0.31 0.35 0.40 0.44 0.47 0.50 0.56 0.62 0.70 0.84 0.93
0.00 0.00 0.00 0.00 0.00 0.01 0.01 0.01 0.02 0.02 0.03 0.03 0.03 0.03 0.03 0.04 0.05 0.06 0.06 0.07 0.08 0.08 0.10 0.11 0.13 0.13 0.13 0.13 0.14 0.14 0.15 0.18 0.21 0.25 0.30 0.36 0.40 0.44 0.47 0.51 0.56 0.63 0.73
0.00 0.00 0.00 0.00 0.01 0.02 0.02 0.02 0.03 0.04 0.04 0.04 0.04 0.04 0.05 0.05 0.05 0.06 0.06 0.07 0.07 0.07 0.07 0.07 0.08 0.09 0.09 0.09 0.09 0.10 0.11 0.13 0.15 0.18 0.22 0.26 0.30 0.36 0.40 0.45 0.47 0.48 0.52
0.02 0.01 0.01 0.01 0.01 0.02 0.03 0.04 0.04 0.04 0.04 0.04 0.05 0.05 0.05 0.06 0.06 0.06 0.06 0.06 0.06 0.06 0.06 0.05 0.05 0.06 0.06 0.07 0.08 0.09 0.11 0.12 0.14 0.18 0.23 0.28 0.33 0.38 0.41 0.43 0.44 0.44 0.46
0.04 0.03 0.03 0.04 0.04 0.04 0.04 0.05 0.05 0.04 0.04 0.05 0.06 0.06 0.06 0.07 0.07 0.08 0.08 0.07 0.06 0.06 0.05 0.05 0.06 0.06 0.07 0.08 0.10 0.11 0.14 0.17 0.20 0.23 0.28 0.31 0.33 0.33 0.33 0.34 0.35 0.39 0.41
0.05 0.04 0.04 0.04 0.04 0.04 0.04 0.04 0.04 0.05 0.07 0.08 0.08 0.08 0.08 0.09 0.09 0.10 0.10 0.09 0.08 0.07 0.07 0.08 0.08 0.09 0.09 0.12 0.15 0.18 0.21 0.25 0.29 0.31 0.31 0.30 0.28 0.26 0.25 0.26 0.28 0.31 0.34
0.05 0.04 0.04 0.05 0.04 0.04 0.04 0.04 0.05 0.06 0.07 0.09 0.10 0.10 0.10 0.11 0.11 0.12 0.11 0.11 0.12 0.13 0.13 0.14 0.15 0.17 0.19 0.27 0.25 0.23 0.28 0.32 0.32 0.30 0.26 0.24 0.21 0.19 0.19 0.20 0.22 0.28 0.37
0.04 0.03 0.03 0.04 0.04 0.04 0.05 0.06 0.07 0.08 0.10 0.11 0.12 0.13 0.16 0.17 0.15 0.16 0.18 0.19 0.20 0.23 0.28 0.30 0.30 0.33 0.39 0.40 0.32 0.27 0.24 0.24 0.24 0.22 0.19 0.17 0.15 0.14 0.12 0.11 0.15 0.19 0.27
0.03 0.02 0.02 0.03 0.03 0.03 0.03 0.04 0.05 0.08 0.13 0.17 0.19 0.19 0.20 0.24 0.25 0.25 0.28 0.29 0.32 0.38 0.44 0.46 0.45 0.42 0.41 0.36 0.28 0.23 0.17 0.14 0.12 0.09 0.08 0.07 0.06 0.06 0.10 0.16 0.20 0.14 0.11
0.05 0.03 0.03 0.04 0.03 0.04 0.05 0.05 0.05 0.08 0.15 0.20 0.23 0.23 0.25 0.28 0.32 0.37 0.41 0.40 0.40 0.43 0.44 0.40 0.37 0.33 0.30 0.22 0.15 0.11 0.10 0.08 0.06 0.04 0.04 0.05 0.04 0.06 0.18 0.26 0.26 0.14 0.05
0.08 0.07 0.07 0.07 0.07 0.08 0.11 0.12 0.13 0.16 0.19 0.20 0.24 0.25 0.27 0.32 0.36 0.40 0.45 0.46 0.43 0.38 0.32 0.27 0.22 0.18 0.15 0.11 0.08 0.06 0.05 0.04 0.04 0.04 0.03 0.03 0.05 0.12 0.25 0.26 0.24 0.13 0.05
0.08 0.10 0.13 0.14 0.16 0.18 0.20 0.21 0.22 0.23 0.24 0.25 0.28 0.30 0.31 0.34 0.36 0.38 0.37 0.35 0.30 0.23 0.17 0.13 0.10 0.07 0.05 0.04 0.03 0.03 0.05 0.06 0.08 0.06 0.03 0.02 0.09 0.19 0.23 0.19 0.09 0.10 0.18
0.09 0.12 0.15 0.18 0.21 0.23 0.24 0.26 0.28 0.28 0.28 0.28 0.28 0.30 0.29 0.27 0.23 0.22 0.21 0.18 0.13 0.10 0.07 0.04 0.02 0.02 0.01 0.01 0.01 0.03 0.07 0.11 0.12 0.08 0.05 0.06 0.14 0.16 0.11 0.06 0.06 0.12 0.13
0.09 0.11 0.12 0.13 0.14 0.18 0.23 0.26 0.27 0.26 0.24 0.22 0.23 0.21 0.18 0.15 0.12 0.09 0.07 0.05 0.04 0.03 0.03 0.02 0.01 0.01 0.00 0.00 0.00 0.03 0.08 0.13 0.12 0.09 0.12 0.14 0.11 0.06 0.02 0.03 0.05 0.06 0.05
0.06 0.06 0.07 0.08 0.08 0.10 0.12 0.14 0.15 0.14 0.12 0.11 0.10 0.09 0.07 0.06 0.04 0.02 0.02 0.01 0.01 0.01 0.00 0.00 0.01 0.01 0.00 0.00 0.01 0.05 0.08 0.09 0.10 0.12 0.12 0.07 0.03 0.02 0.02 0.02 0.02 0.03 0.07
0.04 0.03 0.03 0.03 0.03 0.03 0.04 0.04 0.04 0.04 0.04 0.03 0.03 0.02 0.02 0.01 0.01 0.01 0.01 0.00 0.00 0.00 0.00 0.01 0.01 0.02 0.02 0.03 0.10 0.13 0.11 0.14 0.15 0.14 0.05 0.01 0.01 0.02 0.02 0.01 0.01 0.03 0.06
0.05 0.03 0.02 0.02 0.01 0.01 0.01 0.01 0.01 0.01 0.01 0.01 0.00 0.00 0.00 0.00 0.00 0.00 0.00 0.00 0.00 0.00 0.00 0.01 0.02 0.02 0.04 0.07 0.10 0.12 0.16 0.17 0.13 0.07 0.02 0.02 0.03 0.04 0.04 0.04 0.05 0.04 0.08

GEFSMW_prec_meanprecacc_090.txt.gz
Total_Precipitation_Accumulation
0.01 0.01 0.03 0.05 0.07 0.09 0.10 0.12 0.12 0.13 0.16 0.17 0.16 0.15 0.16 0.19 0.20 0.20 0.22 0.21 0.18 0.16 0.12 0.08 0.06 0.04 0.03 0.02 0.02 0.02 0.02 0.02 0.02 0.01 0.01 0.00 0.00 0.00 0.00 0.01 0.00 0.00 0.01
0.01 0.01 0.01 0.02 0.04 0.06 0.07 0.08 0.10 0.12 0.12 0.12 0.17 0.19 0.23 0.26 0.27 0.28 0.25 0.23 0.23 0.22 0.18 0.12 0.11 0.10 0.07 0.05 0.05 0.05 0.05 0.04 0.04 0.05 0.06 0.04 0.01 0.00 0.01 0.01 0.01 0.01 0.01
0.00 0.01 0.01 0.02 0.03 0.04 0.04 0.04 0.06 0.09 0.11 0.15 0.22 0.28 0.30 0.27 0.24 0.19 0.18 0.22 0.25 0.27 0.24 0.20 0.18 0.16 0.14 0.10 0.10 0.11 0.12 0.13 0.12 0.11 0.15 0.13 0.07 0.04 0.02 0.01 0.02 0.02 0.02
0.00 0.00 0.00 0.01 0.02 0.02 0.03 0.04 0.05 0.06 0.08 0.12 0.13 0.16 0.18 0.17 0.17 0.20 0.24 0.28 0.28 0.29 0.28 0.27 0.25 0.23 0.21 0.19 0.21 0.24 0.24 0.24 0.20 0.16 0.15 0.16 0.15 0.16 0.11 0.04 0.03 0.04 0.04
0.00 0.00 0.00 0.00 0.01 0.01 0.02 0.03 0.03 0.03 0.04 0.06 0.07 0.11 0.12 0.14 0.17 0.20 0.22 0.24 0.25 0.26 0.27 0.28 0.29 0.28 0.29 0.32 0.35 0.36 0.36 0.35 0.33 0.29 0.28 0.28 0.25 0.23 0.25 0.16 0.08 0.08 0.09
0.00 0.00 0.00 0.00 0.00 0.00 0.01 0.01 0.01 0.01 0.02 0.04 0.05 0.07 0.09 0.12 0.15 0.16 0.18 0.21 0.25 0.26 0.26 0.29 0.31 0.35 0.37 0.38 0.42 0.46 0.49 0.51 0.50 0.47 0.43 0.43 0.39 0.34 0.37 0.33 0.22 0.19 0.17
0.00 0.00 0.00 0.00 0.00 0.00 0.00 0.00 0.01 0.01 0.02 0.03 0.03 0.04 0.08 0.12 0.14 0.17 0.19 0.21 0.21 0.20 0.23 0.29 0.34 0.39 0.44 0.47 0.48 0.48 0.48 0.54 0.59 0.60 0.59 0.58 0.55 0.53 0.58 0.61 0.50 0.40 0.32
0.00 0.00 0.00 0.00 0.00 0.00 0.00 0.00 0.00 0.01 0.02 0.03 0.03 0.04 0.05 0.08 0.10 0.13 0.14 0.17 0.20 0.25 0.29 0.32 0.35 0.38 0.40 0.42 0.43 0.45 0.47 0.53 0.58 0.62 0.65 0.65 0.62 0.64 0.68 0.75 0.81 0.74 0.58
0.00 0.00 0.00 0.00 0.00 0.00 0.00 0.00 0.00 0.01 0.02 0.03 0.04 0.03 0.04 0.05 0.07 0.09 0.10 0.13 0.16 0.19 0.22 0.26 0.28 0.28 0.30 0.32 0.35 0.37 0.39 0.42 0.47 0.51 0.55 0.59 0.58 0.60 0.63 0.71 0.86 0.98 0.88
0.00 0.00 0.00 0.00 0.00 0.00 0.00 0.01 0.01 0.01 0.02 0.03 0.03 0.03 0.03 0.05 0.06 0.07 0.06 0.07 0.09 0.12 0.14 0.17 0.19 0.20 0.21 0.21 0.23 0.24 0.24 0.28 0.31 0.36 0.41 0.45 0.47 0.51 0.56 0.62 0.70 0.84 0.94
0.00 0.00 0.00 0.00 0.00 0.01 0.01 0.01 0.02 0.02 0.03 0.04 0.03 0.03 0.04 0.05 0.06 0.06 0.06 0.07 0.08 0.08 0.10 0.11 0.13 0.13 0.13 0.13 0.14 0.14 0.15 0.18 0.21 0.25 0.31 0.36 0.40 0.44 0.47 0.51 0.56 0.63 0.73
0.00 0.00 0.00 0.00 0.01 0.02 0.02 0.02 0.03 0.04 0.04 0.04 0.04 0.05 0.05 0.05 0.05 0.06 0.06 0.07 0.07 0.07 0.07 0.07 0.08 0.09 0.09 0.09 0.09 0.10 0.11 0.13 0.15 0.18 0.22 0.26 0.30 0.36 0.41 0.45 0.47 0.48 0.52
0.02 0.01 0.01 0.01 0.01 0.02 0.03 0.04 0.04 0.04 0.04 0.04 0.05 0.05 0.05 0.06 0.06 0.06 0.06 0.06 0.06 0.06 0.06 0.05 0.05 0.06 0.06 0.07 0.08 0.09 0.11 0.12 0.14 0.18 0.23 0.28 0.33 0.38 0.41 0.43 0.44 0.44 0.46
0.04 0.03 0.03 0.04 0.04 0.04 0.04 0.05 0.05 0.04 0.04 0.05 0.06 0.06 0.06 0.07 0.07 0.08 0.08 0.07 0.06 0.06 0.05 0.05 0.06 0.06 0.07 0.08 0.10 0.11 0.14 0.17 0.20 0.23 0.28 0.31 0.33 0.33 0.33 0.34 0.36 0.39 0.41
0.05 0.04 0.04 0.04 0.04 0.04 0.04 0.04 0.04 0.05 0.07 0.08 0.08 0.08 0.08 0.09 0.09 0.10 0.10 0.09 0.08 0.07 0.07 0.08 0.08 0.09 0.09 0.12 0.15 0.18 0.21 0.25 0.29 0.31 0.31 0.30 0.28 0.26 0.25 0.26 0.28 0.31 0.34
0.05 0.04 0.04 0.05 0.04 0.04 0.04 0.04 0.05 0.06 0.07 0.09 0.10 0.10 0.10 0.11 0.11 0.12 0.11 0.11 0.12 0.13 0.13 0.14 0.15 0.17 0.19 0.27 0.25 0.24 0.28 0.32 0.32 0.30 0.26 0.24 0.21 0.19 0.19 0.20 0.22 0.28 0.37
0.04 0.03 0.03 0.04 0.04 0.04 0.05 0.06 0.07 0.08 0.10 0.11 0.12 0.13 0.16 0.17 0.15 0.16 0.18 0.19 0.20 0.23 0.28 0.30 0.30 0.33 0.39 0.41 0.32 0.27 0.24 0.24 0.24 0.22 0.19 0.17 0.15 0.14 0.12 0.11 0.15 0.19 0.27
0.03 0.02 0.02 0.03 0.03 0.03 0.03 0.04 0.06 0.08 0.13 0.17 0.19 0.19 0.20 0.24 0.25 0.25 0.28 0.29 0.32 0.38 0.44 0.46 0.45 0.42 0.41 0.36 0.28 0.23 0.17 0.14 0.12 0.09 0.08 0.07 0.06 0.06 0.10 0.16 0.20 0.14 0.11
0.05 0.03 0.03 0.04 0.03 0.04 0.05 0.05 0.06 0.09 0.15 0.20 0.23 0.23 0.25 0.28 0.32 0.37 0.41 0.40 0.40 0.43 0.44 0.41 0.37 0.33 0.30 0.22 0.15 0.11 0.10 0.08 0.06 0.04 0.04 0.05 0.04 0.06 0.18 0.26 0.26 0.14 0.05
0.08 0.07 0.07 0.07 0.07 0.08 0.11 0.12 0.13 0.16 0.19 0.20 0.24 0.25 0.27 0.32 0.36 0.40 0.45 0.47 0.43 0.38 0.33 0.27 0.22 0.18 0.15 0.12 0.08 0.06 0.05 0.04 0.04 0.04 0.03 0.03 0.05 0.12 0.25 0.26 0.24 0.13 0.05
0.08 0.10 0.13 0.15 0.16 0.18 0.20 0.21 0.22 0.23 0.24 0.25 0.28 0.30 0.31 0.34 0.36 0.38 0.37 0.35 0.30 0.24 0.18 0.13 0.10 0.07 0.05 0.04 0.03 0.03 0.05 0.06 0.08 0.06 0.03 0.02 0.09 0.19 0.23 0.19 0.09 0.10 0.18
0.10 0.12 0.15 0.18 0.21 0.23 0.25 0.26 0.28 0.28 0.28 0.28 0.29 0.30 0.30 0.27 0.24 0.22 0.21 0.18 0.13 0.10 0.07 0.04 0.03 0.02 0.01 0.01 0.01 0.03 0.07 0.11 0.12 0.08 0.05 0.06 0.14 0.16 0.11 0.06 0.06 0.13 0.13
0.09 0.11 0.12 0.13 0.14 0.18 0.23 0.26 0.27 0.26 0.24 0.23 0.23 0.21 0.18 0.15 0.12 0.09 0.07 0.06 0.04 0.03 0.03 0.02 0.01 0.01 0.00 0.00 0.01 0.03 0.08 0.13 0.12 0.09 0.12 0.14 0.11 0.06 0.02 0.03 0.05 0.06 0.05
0.06 0.07 0.08 0.08 0.09 0.10 0.13 0.14 0.15 0.14 0.13 0.12 0.11 0.09 0.07 0.06 0.04 0.03 0.02 0.01 0.01 0.01 0.01 0.01 0.01 0.01 0.01 0.00 0.01 0.05 0.08 0.09 0.10 0.12 0.12 0.07 0.03 0.02 0.02 0.02 0.02 0.03 0.07
0.05 0.04 0.04 0.04 0.04 0.04 0.04 0.05 0.05 0.04 0.04 0.04 0.03 0.02 0.02 0.02 0.02 0.01 0.01 0.01 0.00 0.00 0.01 0.01 0.01 0.02 0.03 0.03 0.10 0.13 0.11 0.14 0.15 0.14 0.05 0.01 0.01 0.02 0.02 0.01 0.01 0.03 0.06
0.06 0.03 0.02 0.02 0.02 0.02 0.02 0.02 0.02 0.01 0.01 0.01 0.01 0.01 0.01 0.01 0.01 0.01 0.01 0.01 0.01 0.01 0.00 0.01 0.02 0.02 0.04 0.07 0.10 0.12 0.16 0.17 0.13 0.07 0.02 0.02 0.03 0.04 0.04 0.04 0.05 0.04 0.08

GEFSMW_prec_meanprecacc_096.txt.gz
Total_Precipitation_Accumulation
0.01 0.02 0.03 0.06 0.08 0.11 0.14 0.16 0.18 0.20 0.25 0.28 0.28 0.27 0.27 0.30 0.31 0.28 0.28 0.25 0.20 0.17 0.13 0.09 0.07 0.05 0.04 0.03 0.03 0.03 0.03 0.03 0.02 0.02 0.02 0.00 0.00 0.00 0.00 0.01 0.00 0.01 0.01
0.01 0.01 0.02 0.03 0.05 0.08 0.09 0.12 0.14 0.19 0.20 0.21 0.27 0.31 0.38 0.44 0.45 0.41 0.34 0.30 0.28 0.26 0.20 0.14 0.13 0.12 0.09 0.06 0.06 0.07 0.06 0.05 0.05 0.06 0.08 0.04 0.01 0.01 0.01 0.01 0.01 0.01 0.01
0.00 0.01 0.02 0.03 0.03 0.05 0.06 0.08 0.11 0.14 0.17 0.22 0.33 0.40 0.44 0.40 0.38 0.32 0.28 0.29 0.31 0.32 0.29 0.25 0.22 0.19 0.17 0.12 0.12 0.14 0.14 0.15 0.15 0.14 0.18 0.15 0.08 0.05 0.02 0.02 0.02 0.02 0.02
0.00 0.00 0.01 0.01 0.02 0.04 0.06 0.08 0.10 0.11 0.13 0.18 0.19 0.23 0.27 0.26 0.26 0.31 0.35 0.38 0.37 0.36 0.34 0.33 0.30 0.28 0.25 0.22 0.24 0.28 0.29 0.28 0.24 0.20 0.18 0.19 0.18 0.20 0.13 0.05 0.04 0.04 0.04
0.00 0.00 0.00 0.01 0.01 0.03 0.05 0.06 0.07 0.08 0.10 0.13 0.14 0.18 0.20 0.23 0.27 0.29 0.31 0.33 0.33 0.33 0.34 0.35 0.36 0.35 0.33 0.35 0.39 0.40 0.40 0.39 0.37 0.33 0.31 0.30 0.27 0.25 0.28 0.17 0.09 0.09 0.10
0.00 0.00 0.00 0.00 0.00 0.01 0.02 0.04 0.05 0.05 0.06 0.09 0.11 0.14 0.16 0.21 0.23 0.24 0.25 0.28 0.31 0.30 0.30 0.32 0.35 0.38 0.40 0.41 0.45 0.49 0.52 0.53 0.53 0.50 0.45 0.44 0.41 0.35 0.39 0.36 0.24 0.21 0.18
0.00 0.00 0.00 0.00 0.00 0.01 0.01 0.02 0.04 0.05 0.05 0.07 0.08 0.10 0.13 0.19 0.20 0.22 0.24 0.26 0.26 0.23 0.26 0.32 0.36 0.41 0.45 0.49 0.50 0.50 0.51 0.56 0.61 0.62 0.61 0.60 0.57 0.55 0.60 0.64 0.53 0.43 0.33
0.00 0.00 0.00 0.00 0.00 0.00 0.00 0.01 0.02 0.03 0.04 0.06 0.07 0.07 0.08 0.12 0.14 0.17 0.18 0.21 0.23 0.27 0.31 0.34 0.37 0.39 0.41 0.44 0.45 0.47 0.49 0.55 0.60 0.65 0.67 0.68 0.64 0.66 0.70 0.77 0.84 0.76 0.59
0.00 0.00 0.00 0.00 0.00 0.00 0.00 0.01 0.01 0.02 0.04 0.05 0.06 0.06 0.06 0.07 0.10 0.11 0.12 0.15 0.18 0.21 0.24 0.28 0.30 0.31 0.33 0.35 0.38 0.40 0.41 0.44 0.48 0.52 0.57 0.61 0.59 0.61 0.65 0.73 0.87 1.00 0.89
0.00 0.00 0.00 0.00 0.00 0.00 0.01 0.01 0.01 0.02 0.04 0.05 0.05 0.05 0.05 0.06 0.08 0.09 0.08 0.09 0.12 0.14 0.17 0.19 0.21 0.23 0.24 0.24 0.26 0.26 0.26 0.29 0.32 0.37 0.42 0.46 0.48 0.52 0.57 0.63 0.71 0.85 0.95
0.00 0.00 0.00 0.00 0.00 0.01 0.01 0.02 0.02 0.03 0.04 0.05 0.05 0.05 0.05 0.06 0.07 0.07 0.08 0.09 0.10 0.10 0.11 0.13 0.15 0.15 0.15 0.15 0.15 0.16 0.16 0.18 0.22 0.26 0.31 0.36 0.40 0.44 0.47 0.51 0.56 0.63 0.74
0.00 0.00 0.00 0.00 0.01 0.02 0.02 0.03 0.03 0.04 0.04 0.04 0.05 0.06 0.06 0.06 0.07 0.07 0.07 0.07 0.08 0.08 0.08 0.08 0.09 0.10 0.10 0.10 0.10 0.10 0.11 0.13 0.15 0.18 0.22 0.27 0.30 0.36 0.41 0.46 0.47 0.49 0.52
0.02 0.01 0.01 0.01 0.01 0.02 0.03 0.04 0.04 0.04 0.04 0.05 0.05 0.06 0.06 0.06 0.07 0.07 0.07 0.06 0.06 0.06 0.06 0.05 0.06 0.06 0.06 0.07 0.08 0.09 0.11 0.13 0.15 0.18 0.23 0.28 0.33 0.38 0.41 0.43 0.44 0.44 0.47
0.04 0.03 0.03 0.04 0.04 0.04 0.04 0.05 0.05 0.04 0.04 0.05 0.06 0.07 0.06 0.07 0.07 0.08 0.08 0.07 0.06 0.06 0.06 0.06 0.06 0.06 0.07 0.08 0.10 0.11 0.14 0.17 0.20 0.23 0.28 0.31 0.33 0.34 0.33 0.34 0.36 0.40 0.41
0.05 0.04 0.04 0.04 0.04 0.04 0.04 0.04 0.04 0.06 0.07 0.08 0.08 0.08 0.08 0.09 0.10 0.10 0.10 0.09 0.08 0.07 0.07 0.08 0.08 0.09 0.09 0.12 0.15 0.18 0.22 0.26 0.29 0.31 0.31 0.30 0.28 0.26 0.25 0.27 0.28 0.31 0.35
0.05 0.04 0.04 0.05 0.04 0.04 0.04 0.04 0.05 0.06 0.07 0.09 0.10 0.10 0.10 0.11 0.11 0.12 0.11 0.11 0.12 0.13 0.13 0.14 0.15 0.17 0.19 0.27 0.26 0.24 0.28 0.32 0.32 0.30 0.26 0.24 0.22 0.19 0.19 0.20 0.22 0.28 0.37
0.04 0.03 0.03 0.04 0.04 0.04 0.05 0.06 0.07 0.08 0.10 0.11 0.12 0.13 0.16 0.17 0.15 0.16 0.18 0.19 0.20 0.23 0.28 0.30 0.30 0.33 0.39 0.41 0.32 0.28 0.24 0.24 0.24 0.22 0.19 0.17 0.15 0.14 0.12 0.11 0.15 0.19 0.27
0.03 0.02 0.02 0.03 0.03 0.03 0.03 0.04 0.06 0.08 0.13 0.17 0.19 0.19 0.20 0.24 0.25 0.25 0.28 0.29 0.32 0.38 0.44 0.46 0.45 0.42 0.41 0.36 0.29 0.23 0.17 0.14 0.12 0.09 0.08 0.07 0.06 0.06 0.10 0.16 0.20 0.14 0.11
0.05 0.03 0.03 0.04 0.03 0.04 0.05 0.05 0.06 0.09 0.15 0.20 0.23 0.23 0.25 0.28 0.32 0.37 0.41 0.40 0.40 0.43 0.44 0.41 0.37 0.33 0.30 0.22 0.15 0.12 0.10 0.09 0.06 0.04 0.04 0.05 0.04 0.06 0.18 0.26 0.26 0.14 0.05
0.08 0.07 0.07 0.07 0.07 0.09 0.11 0.12 0.14 0.16 0.19 0.20 0.24 0.25 0.27 0.32 0.36 0.40 0.45 0.47 0.43 0.38 0.33 0.27 0.22 0.18 0.15 0.12 0.08 0.06 0.05 0.04 0.04 0.04 0.03 0.03 0.05 0.12 0.25 0.26 0.24 0.13 0.05
0.08 0.10 0.13 0.15 0.16 0.19 0.20 0.22 0.23 0.23 0.24 0.25 0.28 0.30 0.31 0.34 0.36 0.38 0.37 0.35 0.31 0.24 0.18 0.14 0.10 0.07 0.05 0.04 0.03 0.03 0.05 0.06 0.08 0.06 0.03 0.02 0.09 0.19 0.23 0.19 0.09 0.10 0.18
0.10 0.12 0.15 0.18 0.21 0.23 0.25 0.26 0.28 0.29 0.28 0.28 0.29 0.30 0.30 0.27 0.24 0.22 0.21 0.18 0.14 0.10 0.07 0.05 0.03 0.02 0.01 0.01 0.01 0.03 0.07 0.11 0.12 0.08 0.05 0.06 0.14 0.16 0.11 0.06 0.06 0.13 0.13
0.10 0.11 0.12 0.13 0.14 0.18 0.23 0.26 0.27 0.26 0.24 0.23 0.23 0.21 0.18 0.16 0.12 0.09 0.07 0.06 0.04 0.04 0.03 0.02 0.01 0.01 0.00 0.00 0.01 0.03 0.08 0.13 0.12 0.09 0.12 0.14 0.11 0.06 0.02 0.03 0.05 0.06 0.05
0.06 0.07 0.08 0.08 0.09 0.10 0.13 0.15 0.15 0.15 0.13 0.12 0.11 0.09 0.08 0.07 0.05 0.03 0.02 0.02 0.01 0.01 0.01 0.01 0.01 0.01 0.01 0.00 0.01 0.05 0.08 0.09 0.10 0.12 0.12 0.07 0.03 0.02 0.02 0.02 0.02 0.03 0.07
0.05 0.04 0.04 0.04 0.04 0.04 0.05 0.05 0.05 0.05 0.05 0.04 0.03 0.03 0.02 0.02 0.02 0.02 0.01 0.01 0.01 0.01 0.01 0.01 0.02 0.03 0.03 0.03 0.10 0.13 0.12 0.14 0.15 0.14 0.05 0.01 0.01 0.02 0.02 0.01 0.01 0.03 0.06
0.06 0.04 0.03 0.03 0.02 0.02 0.02 0.02 0.02 0.02 0.02 0.02 0.02 0.01 0.01 0.01 0.01 0.01 0.01 0.02 0.01 0.01 0.01 0.01 0.02 0.03 0.04 0.07 0.10 0.12 0.16 0.17 0.13 0.07 0.02 0.02 0.03 0.04 0.04 0.04 0.05 0.04 0.08

GEFSMW_prec_meanprecacc_102.txt.gz
Total_Precipitation_Accumulation
0.08 0.07 0.08 0.11 0.14 0.20 0.26 0.31 0.34 0.40 0.43 0.41 0.39 0.36 0.34 0.36 0.36 0.33 0.32 0.28 0.22 0.18 0.14 0.10 0.08 0.06 0.04 0.03 0.04 0.04 0.03 0.03 0.02 0.02 0.02 0.00 0.00 0.01 0.01 0.01 0.01 0.01 0.02
0.05 0.07 0.08 0.09 0.11 0.13 0.17 0.24 0.28 0.35 0.38 0.35 0.40 0.43 0.50 0.54 0.54 0.50 0.42 0.37 0.34 0.30 0.23 0.16 0.14 0.13 0.10 0.07 0.07 0.08 0.07 0.06 0.06 0.07 0.09 0.05 0.02 0.01 0.01 0.02 0.02 0.02 0.02
0.02 0.04 0.06 0.07 0.08 0.09 0.11 0.15 0.21 0.27 0.32 0.39 0.49 0.56 0.60 0.52 0.47 0.42 0.40 0.40 0.41 0.41 0.37 0.31 0.26 0.23 0.20 0.15 0.16 0.17 0.16 0.16 0.17 0.16 0.20 0.17 0.09 0.06 0.03 0.03 0.03 0.03 0.02
0.01 0.02 0.03 0.04 0.05 0.07 0.10 0.13 0.17 0.22 0.27 0.35 0.36 0.39 0.39 0.35 0.34 0.40 0.46 0.48 0.47 0.46 0.44 0.41 0.37 0.34 0.30 0.27 0.29 0.32 0.33 0.33 0.29 0.23 0.21 0.22 0.21 0.22 0.15 0.05 0.04 0.04 0.04
0.01 0.01 0.02 0.03 0.04 0.06 0.09 0.11 0.14 0.19 0.25 0.29 0.32 0.35 0.33 0.34 0.37 0.40 0.41 0.42 0.42 0.42 0.43 0.43 0.44 0.43 0.41 0.42 0.45 0.45 0.45 0.43 0.40 0.36 0.34 0.33 0.30 0.28 0.31 0.19 0.09 0.09 0.10
0.01 0.01 0.02 0.02 0.03 0.04 0.06 0.08 0.11 0.13 0.17 0.23 0.28 0.29 0.32 0.35 0.36 0.36 0.36 0.37 0.40 0.40 0.39 0.41 0.44 0.47 0.47 0.48 0.50 0.53 0.56 0.57 0.55 0.52 0.47 0.47 0.43 0.37 0.42 0.39 0.26 0.22 0.19
0.00 0.01 0.01 0.01 0.01 0.02 0.04 0.06 0.08 0.09 0.12 0.17 0.21 0.23 0.28 0.33 0.32 0.33 0.34 0.34 0.32 0.29 0.31 0.37 0.41 0.46 0.50 0.53 0.55 0.55 0.56 0.61 0.65 0.67 0.65 0.64 0.61 0.58 0.63 0.67 0.55 0.44 0.34
0.00 0.00 0.00 0.00 0.01 0.01 0.02 0.04 0.05 0.07 0.11 0.13 0.14 0.16 0.19 0.24 0.25 0.27 0.27 0.29 0.29 0.32 0.35 0.38 0.40 0.42 0.44 0.46 0.48 0.50 0.52 0.58 0.63 0.67 0.70 0.71 0.68 0.69 0.74 0.81 0.87 0.78 0.60
0.00 0.00 0.00 0.00 0.00 0.01 0.01 0.02 0.03 0.06 0.08 0.10 0.13 0.13 0.13 0.15 0.18 0.21 0.23 0.24 0.26 0.28 0.31 0.33 0.34 0.34 0.36 0.37 0.40 0.42 0.43 0.47 0.50 0.55 0.60 0.63 0.62 0.64 0.68 0.75 0.90 1.02 0.92
0.00 0.00 0.00 0.00 0.00 0.01 0.01 0.02 0.03 0.05 0.07 0.09 0.10 0.10 0.10 0.12 0.15 0.16 0.15 0.16 0.19 0.21 0.23 0.25 0.25 0.26 0.26 0.27 0.28 0.29 0.29 0.31 0.34 0.39 0.44 0.49 0.50 0.54 0.59 0.65 0.72 0.86 0.96
0.00 0.00 0.00 0.00 0.01 0.01 0.02 0.02 0.03 0.04 0.05 0.07 0.08 0.09 0.09 0.10 0.11 0.12 0.12 0.13 0.15 0.16 0.16 0.17 0.19 0.19 0.18 0.18 0.18 0.18 0.19 0.21 0.24 0.28 0.33 0.38 0.42 0.46 0.49 0.52 0.57 0.64 0.74
0.00 0.00 0.00 0.00 0.01 0.02 0.02 0.03 0.03 0.05 0.06 0.07 0.08 0.09 0.11 0.12 0.12 0.12 0.12 0.12 0.12 0.11 0.11 0.11 0.12 0.12 0.12 0.12 0.12 0.12 0.13 0.15 0.17 0.19 0.23 0.27 0.31 0.37 0.42 0.46 0.48 0.49 0.53
0.02 0.01 0.01 0.01 0.01 0.02 0.03 0.04 0.05 0.05 0.05 0.06 0.08 0.09 0.10 0.10 0.11 0.10 0.10 0.09 0.08 0.08 0.08 0.07 0.07 0.07 0.08 0.08 0.09 0.10 0.12 0.13 0.15 0.18 0.24 0.29 0.34 0.39 0.41 0.44 0.45 0.45 0.47
0.04 0.03 0.03 0.04 0.04 0.04 0.04 0.05 0.05 0.05 0.05 0.05 0.07 0.08 0.09 0.10 0.10 0.10 0.10 0.09 0.08 0.07 0.07 0.06 0.06 0.07 0.08 0.09 0.10 0.12 0.14 0.17 0.20 0.23 0.28 0.31 0.33 0.34 0.34 0.35 0.36 0.40 0.42
0.05 0.04 0.04 0.04 0.04 0.04 0.04 0.04 0.05 0.06 0.07 0.08 0.08 0.08 0.09 0.11 0.11 0.12 0.11 0.11 0.09 0.08 0.08 0.09 0.09 0.09 0.10 0.12 0.15 0.18 0.22 0.26 0.30 0.32 0.31 0.30 0.29 0.26 0.25 0.27 0.29 0.31 0.35
0.05 0.04 0.04 0.05 0.04 0.04 0.04 0.04 0.05 0.06 0.07 0.09 0.10 0.10 0.10 0.11 0.12 0.13 0.13 0.13 0.14 0.14 0.14 0.14 0.15 0.17 0.20 0.27 0.26 0.24 0.28 0.32 0.32 0.30 0.26 0.24 0.22 0.19 0.19 0.20 0.22 0.28 0.37
0.04 0.03 0.03 0.04 0.04 0.04 0.05 0.06 0.07 0.08 0.10 0.11 0.12 0.13 0.16 0.17 0.15 0.16 0.19 0.19 0.21 0.24 0.29 0.31 0.31 0.34 0.39 0.41 0.32 0.28 0.24 0.24 0.24 0.22 0.19 0.17 0.15 0.14 0.12 0.11 0.15 0.19 0.27
0.03 0.03 0.02 0.03 0.03 0.03 0.03 0.04 0.06 0.08 0.13 0.17 0.19 0.19 0.21 0.24 0.25 0.25 0.28 0.29 0.32 0.38 0.44 0.47 0.45 0.42 0.41 0.36 0.29 0.23 0.17 0.14 0.12 0.10 0.08 0.07 0.06 0.06 0.10 0.16 0.20 0.15 0.11
0.05 0.04 0.04 0.04 0.03 0.04 0.05 0.05 0.06 0.09 0.15 0.20 0.23 0.23 0.25 0.28 0.32 0.37 0.41 0.40 0.40 0.43 0.44 0.41 0.37 0.33 0.30 0.23 0.15 0.12 0.10 0.09 0.06 0.05 0.04 0.05 0.04 0.06 0.18 0.26 0.26 0.14 0.05
0.08 0.07 0.07 0.07 0.07 0.09 0.11 0.12 0.14 0.16 0.19 0.20 0.24 0.25 0.28 0.32 0.36 0.41 0.46 0.47 0.43 0.38 0.33 0.27 0.22 0.18 0.15 0.12 0.08 0.06 0.05 0.04 0.04 0.04 0.03 0.03 0.05 0.12 0.25 0.26 0.24 0.13 0.05
0.09 0.11 0.13 0.15 0.17 0.19 0.20 0.22 0.23 0.24 0.24 0.25 0.28 0.30 0.31 0.34 0.37 0.38 0.37 0.35 0.31 0.24 0.18 0.14 0.10 0.07 0.05 0.04 0.03 0.04 0.05 0.06 0.08 0.06 0.03 0.02 0.09 0.19 0.23 0.19 0.09 0.10 0.18
0.10 0.12 0.16 0.19 0.22 0.24 0.25 0.26 0.28 0.29 0.28 0.28 0.29 0.30 0.30 0.28 0.24 0.22 0.22 0.18 0.14 0.10 0.07 0.05 0.03 0.02 0.01 0.01 0.01 0.03 0.07 0.11 0.12 0.08 0.05 0.06 0.15 0.16 0.11 0.06 0.06 0.13 0.13
0.10 0.12 0.13 0.14 0.15 0.19 0.24 0.27 0.28 0.27 0.25 0.23 0.23 0.22 0.19 0.16 0.12 0.09 0.07 0.06 0.05 0.04 0.03 0.02 0.01 0.01 0.01 0.00 0.01 0.03 0.09 0.13 0.12 0.09 0.12 0.14 0.11 0.06 0.02 0.03 0.05 0.06 0.05
0.08 0.08 0.09 0.10 0.10 0.11 0.14 0.16 0.17 0.16 0.14 0.13 0.12 0.10 0.08 0.07 0.05 0.03 0.02 0.02 0.01 0.01 0.01 0.01 0.01 0.01 0.01 0.00 0.01 0.05 0.08 0.09 0.10 0.12 0.12 0.07 0.03 0.02 0.02 0.02 0.02 0.03 0.07
0.08 0.06 0.05 0.05 0.05 0.06 0.07 0.07 0.06 0.06 0.06 0.05 0.04 0.03 0.03 0.02 0.02 0.02 0.02 0.01 0.01 0.01 0.01 0.01 0.02 0.03 0.03 0.03 0.10 0.14 0.12 0.14 0.15 0.14 0.05 0.01 0.01 0.02 0.02 0.01 0.01 0.03 0.06
0.09 0.05 0.04 0.04 0.04 0.04 0.04 0.04 0.03 0.03 0.02 0.02 0.02 0.02 0.02 0.02 0.02 0.02 0.02 0.02 0.02 0.02 0.01 0.01 0.02 0.03 0.04 0.08 0.10 0.12 0.16 0.17 0.13 0.08 0.02 0.02 0.03 0.04 0.04 0.05 0.05 0.04 0.08

GEFSMW_prec_meanprecacc_108.txt.gz
Total_Precipitation_Accumulation
0.16 0.19 0.24 0.30 0.41 0.46 0.52 0.59 0.67 0.75 0.72 0.65 0.59 0.49 0.42 0.45 0.46 0.43 0.41 0.35 0.29 0.24 0.18 0.14 0.12 0.08 0.06 0.05 0.05 0.04 0.03 0.03 0.02 0.02 0.02 0.00 0.00 0.01 0.01 0.01 0.01 0.01 0.02
0.12 0.15 0.20 0.25 0.31 0.36 0.39 0.49 0.57 0.68 0.70 0.61 0.63 0.63 0.67 0.69 0.67 0.63 0.52 0.46 0.41 0.35 0.27 0.20 0.18 0.16 0.12 0.09 0.09 0.10 0.08 0.06 0.06 0.07 0.09 0.05 0.02 0.01 0.02 0.02 0.02 0.02 0.03
0.07 0.10 0.13 0.15 0.20 0.26 0.31 0.33 0.42 0.54 0.62 0.72 0.87 0.92 0.89 0.75 0.64 0.55 0.53 0.52 0.51 0.48 0.43 0.36 0.32 0.27 0.23 0.18 0.19 0.19 0.18 0.19 0.20 0.19 0.23 0.21 0.11 0.07 0.03 0.03 0.03 0.03 0.03
0.05 0.07 0.09 0.09 0.11 0.16 0.24 0.30 0.36 0.45 0.53 0.68 0.75 0.76 0.68 0.56 0.50 0.57 0.62 0.63 0.60 0.58 0.54 0.50 0.46 0.41 0.36 0.33 0.34 0.36 0.38 0.38 0.34 0.29 0.27 0.28 0.25 0.26 0.17 0.06 0.04 0.05 0.04
0.03 0.05 0.07 0.08 0.08 0.11 0.17 0.23 0.32 0.40 0.50 0.58 0.63 0.71 0.66 0.58 0.60 0.63 0.59 0.57 0.57 0.57 0.57 0.55 0.54 0.53 0.51 0.51 0.53 0.52 0.52 0.50 0.46 0.41 0.38 0.38 0.35 0.32 0.34 0.21 0.10 0.10 0.11
0.02 0.03 0.06 0.08 0.09 0.11 0.13 0.18 0.24 0.30 0.37 0.45 0.53 0.57 0.62 0.66 0.67 0.63 0.60 0.58 0.60 0.59 0.56 0.57 0.57 0.60 0.58 0.57 0.59 0.61 0.62 0.62 0.61 0.59 0.53 0.52 0.47 0.42 0.47 0.44 0.29 0.25 0.21
0.01 0.02 0.04 0.06 0.07 0.09 0.10 0.13 0.16 0.18 0.25 0.33 0.39 0.44 0.54 0.63 0.62 0.63 0.62 0.60 0.55 0.48 0.48 0.53 0.56 0.59 0.61 0.63 0.64 0.64 0.64 0.69 0.73 0.75 0.72 0.70 0.67 0.64 0.69 0.72 0.59 0.48 0.37
0.01 0.01 0.02 0.03 0.05 0.07 0.07 0.09 0.11 0.14 0.20 0.25 0.30 0.34 0.40 0.50 0.51 0.53 0.51 0.50 0.50 0.51 0.53 0.53 0.53 0.53 0.53 0.53 0.54 0.55 0.55 0.61 0.66 0.70 0.73 0.74 0.71 0.73 0.77 0.85 0.91 0.82 0.62
0.00 0.01 0.01 0.02 0.03 0.04 0.05 0.06 0.08 0.12 0.16 0.19 0.26 0.28 0.29 0.31 0.37 0.44 0.45 0.41 0.41 0.44 0.46 0.47 0.46 0.44 0.43 0.43 0.45 0.46 0.47 0.49 0.53 0.57 0.61 0.65 0.64 0.66 0.70 0.78 0.93 1.06 0.94
0.00 0.00 0.01 0.01 0.01 0.02 0.03 0.05 0.07 0.09 0.13 0.16 0.19 0.21 0.22 0.24 0.27 0.31 0.32 0.30 0.31 0.34 0.36 0.37 0.36 0.35 0.34 0.34 0.34 0.32 0.32 0.34 0.36 0.41 0.46 0.50 0.52 0.56 0.61 0.67 0.74 0.89 0.99
0.00 0.00 0.01 0.01 0.01 0.02 0.03 0.03 0.05 0.07 0.09 0.12 0.14 0.16 0.16 0.18 0.20 0.21 0.23 0.26 0.27 0.27 0.28 0.28 0.28 0.27 0.26 0.25 0.24 0.22 0.22 0.24 0.27 0.30 0.36 0.40 0.44 0.48 0.50 0.54 0.59 0.66 0.77
0.00 0.00 0.01 0.01 0.02 0.03 0.03 0.03 0.04 0.06 0.08 0.10 0.12 0.14 0.16 0.17 0.17 0.17 0.18 0.20 0.22 0.21 0.21 0.21 0.21 0.21 0.21 0.19 0.19 0.19 0.20 0.21 0.21 0.23 0.26 0.29 0.33 0.39 0.44 0.48 0.50 0.51 0.55
0.02 0.01 0.01 0.02 0.02 0.03 0.04 0.05 0.05 0.05 0.06 0.07 0.09 0.11 0.13 0.14 0.15 0.14 0.15 0.16 0.15 0.14 0.13 0.12 0.12 0.14 0.15 0.15 0.15 0.15 0.17 0.18 0.20 0.22 0.27 0.31 0.35 0.40 0.42 0.45 0.46 0.46 0.48
0.04 0.04 0.03 0.04 0.04 0.05 0.05 0.05 0.05 0.05 0.05 0.06 0.08 0.10 0.11 0.12 0.12 0.13 0.14 0.14 0.13 0.12 0.12 0.10 0.10 0.10 0.11 0.12 0.14 0.15 0.17 0.19 0.23 0.26 0.30 0.32 0.34 0.34 0.34 0.35 0.36 0.40 0.42
0.05 0.05 0.05 0.05 0.05 0.04 0.04 0.05 0.05 0.06 0.07 0.08 0.09 0.09 0.10 0.12 0.12 0.13 0.13 0.13 0.11 0.10 0.11 0.12 0.12 0.11 0.12 0.14 0.17 0.19 0.23 0.28 0.31 0.33 0.32 0.30 0.29 0.26 0.25 0.27 0.29 0.31 0.35
0.05 0.04 0.04 0.05 0.05 0.04 0.04 0.05 0.05 0.06 0.08 0.10 0.11 0.11 0.11 0.12 0.13 0.14 0.14 0.13 0.14 0.14 0.14 0.15 0.16 0.18 0.21 0.28 0.27 0.24 0.28 0.33 0.33 0.30 0.27 0.24 0.22 0.19 0.19 0.21 0.22 0.28 0.37
0.05 0.03 0.03 0.04 0.04 0.04 0.05 0.07 0.07 0.08 0.10 0.11 0.12 0.13 0.16 0.18 0.16 0.17 0.20 0.20 0.22 0.25 0.29 0.32 0.31 0.34 0.40 0.42 0.33 0.28 0.24 0.25 0.24 0.22 0.20 0.17 0.15 0.15 0.12 0.11 0.15 0.19 0.27
0.04 0.03 0.03 0.03 0.03 0.03 0.04 0.05 0.06 0.08 0.13 0.18 0.19 0.19 0.21 0.25 0.26 0.26 0.29 0.30 0.33 0.39 0.45 0.47 0.46 0.43 0.42 0.37 0.29 0.23 0.17 0.15 0.12 0.10 0.08 0.07 0.06 0.06 0.10 0.16 0.20 0.15 0.11
0.06 0.04 0.04 0.04 0.04 0.05 0.05 0.05 0.06 0.09 0.15 0.20 0.24 0.23 0.26 0.29 0.33 0.38 0.42 0.41 0.42 0.44 0.45 0.41 0.38 0.34 0.30 0.23 0.15 0.12 0.10 0.09 0.07 0.05 0.04 0.05 0.04 0.06 0.18 0.26 0.26 0.14 0.05
0.09 0.08 0.07 0.07 0.07 0.09 0.11 0.13 0.14 0.16 0.20 0.21 0.25 0.26 0.28 0.33 0.37 0.41 0.46 0.48 0.44 0.40 0.35 0.29 0.23 0.19 0.16 0.13 0.09 0.07 0.05 0.05 0.04 0.04 0.03 0.04 0.05 0.13 0.25 0.26 0.24 0.13 0.06
0.10 0.12 0.14 0.15 0.17 0.19 0.21 0.22 0.23 0.24 0.25 0.26 0.29 0.31 0.32 0.35 0.38 0.40 0.39 0.37 0.32 0.26 0.20 0.16 0.11 0.08 0.06 0.05 0.04 0.04 0.05 0.07 0.08 0.07 0.03 0.02 0.09 0.19 0.24 0.19 0.09 0.10 0.18
0.12 0.14 0.18 0.20 0.23 0.24 0.26 0.27 0.29 0.30 0.29 0.29 0.31 0.32 0.32 0.30 0.26 0.25 0.24 0.21 0.16 0.12 0.09 0.06 0.04 0.03 0.02 0.01 0.01 0.03 0.07 0.11 0.12 0.08 0.05 0.06 0.15 0.16 0.11 0.06 0.06 0.13 0.13
0.13 0.14 0.15 0.15 0.17 0.21 0.26 0.28 0.29 0.28 0.26 0.25 0.26 0.24 0.21 0.18 0.14 0.11 0.09 0.08 0.06 0.05 0.05 0.04 0.02 0.01 0.01 0.00 0.01 0.03 0.09 0.13 0.12 0.09 0.12 0.14 0.11 0.06 0.02 0.03 0.05 0.06 0.05
0.10 0.10 0.11 0.11 0.12 0.13 0.15 0.18 0.19 0.18 0.17 0.15 0.14 0.12 0.11 0.10 0.07 0.05 0.04 0.03 0.03 0.02 0.02 0.02 0.02 0.02 0.01 0.01 0.01 0.05 0.08 0.09 0.10 0.12 0.12 0.08 0.03 0.02 0.02 0.02 0.02 0.03 0.07
0.11 0.08 0.07 0.07 0.07 0.08 0.08 0.09 0.09 0.08 0.07 0.07 0.06 0.05 0.05 0.04 0.04 0.04 0.03 0.03 0.02 0.02 0.02 0.02 0.03 0.03 0.03 0.04 0.10 0.14 0.12 0.15 0.16 0.14 0.05 0.01 0.01 0.02 0.02 0.01 0.01 0.03 0.06
0.12 0.09 0.07 0.06 0.05 0.05 0.05 0.05 0.05 0.05 0.05 0.04 0.04 0.03 0.03 0.03 0.03 0.04 0.04 0.05 0.04 0.04 0.03 0.03 0.03 0.03 0.05 0.08 0.11 0.13 0.17 0.18 0.14 0.08 0.03 0.03 0.03 0.04 0.05 0.05 0.05 0.05 0.08

GEFSMW_prec_meanprecacc_114.txt.gz
Total_Precipitation_Accumulation
0.23 0.32 0.40 0.53 0.74 0.84 0.88 0.94 1.06 1.13 1.05 0.92 0.80 0.63 0.49 0.49 0.50 0.46 0.44 0.38 0.32 0.28 0.23 0.19 0.16 0.12 0.09 0.07 0.07 0.06 0.05 0.04 0.03 0.03 0.02 0.00 0.00 0.01 0.01 0.01 0.01 0.01 0.02
0.16 0.25 0.37 0.45 0.56 0.70 0.71 0.80 0.87 1.04 1.04 0.91 0.90 0.83 0.79 0.77 0.74 0.69 0.58 0.52 0.48 0.42 0.35 0.27 0.25 0.22 0.16 0.13 0.13 0.13 0.10 0.08 0.08 0.09 0.10 0.06 0.02 0.01 0.02 0.02 0.02 0.02 0.03
0.10 0.16 0.26 0.37 0.40 0.51 0.63 0.64 0.67 0.81 0.96 1.07 1.20 1.25 1.14 0.89 0.73 0.63 0.62 0.63 0.63 0.60 0.52 0.44 0.38 0.34 0.30 0.24 0.25 0.24 0.22 0.22 0.21 0.20 0.25 0.22 0.12 0.07 0.04 0.03 0.03 0.03 0.03
0.06 0.11 0.16 0.24 0.27 0.33 0.47 0.63 0.67 0.72 0.85 1.12 1.17 1.17 1.03 0.78 0.64 0.69 0.75 0.77 0.74 0.70 0.65 0.60 0.55 0.50 0.45 0.40 0.41 0.42 0.43 0.42 0.37 0.32 0.29 0.30 0.27 0.28 0.18 0.07 0.05 0.05 0.04
0.05 0.07 0.11 0.16 0.19 0.24 0.33 0.46 0.63 0.72 0.80 0.89 0.99 1.09 1.03 0.89 0.85 0.85 0.77 0.72 0.70 0.69 0.68 0.67 0.66 0.64 0.62 0.62 0.63 0.60 0.59 0.56 0.51 0.45 0.41 0.40 0.37 0.34 0.36 0.23 0.11 0.11 0.11
0.04 0.05 0.09 0.14 0.17 0.19 0.24 0.33 0.45 0.57 0.66 0.72 0.79 0.84 0.91 0.97 0.93 0.84 0.79 0.77 0.77 0.75 0.72 0.75 0.75 0.77 0.73 0.71 0.72 0.73 0.74 0.73 0.70 0.66 0.58 0.55 0.51 0.44 0.49 0.46 0.31 0.26 0.22
0.04 0.04 0.07 0.11 0.14 0.16 0.17 0.21 0.28 0.37 0.49 0.57 0.59 0.64 0.76 0.86 0.86 0.80 0.77 0.76 0.71 0.66 0.66 0.73 0.77 0.80 0.80 0.79 0.79 0.78 0.78 0.82 0.83 0.82 0.78 0.74 0.69 0.65 0.70 0.74 0.61 0.49 0.37
0.04 0.04 0.06 0.08 0.11 0.14 0.13 0.14 0.17 0.24 0.36 0.45 0.48 0.51 0.60 0.71 0.73 0.74 0.69 0.65 0.64 0.66 0.70 0.72 0.72 0.73 0.72 0.71 0.72 0.72 0.70 0.73 0.75 0.77 0.78 0.78 0.74 0.75 0.79 0.86 0.92 0.82 0.62
0.03 0.03 0.04 0.04 0.08 0.11 0.12 0.11 0.13 0.18 0.25 0.33 0.41 0.44 0.46 0.51 0.58 0.65 0.66 0.59 0.57 0.58 0.61 0.62 0.61 0.59 0.60 0.60 0.62 0.61 0.60 0.60 0.61 0.64 0.67 0.69 0.67 0.69 0.72 0.79 0.94 1.07 0.94
0.02 0.02 0.02 0.02 0.04 0.06 0.09 0.11 0.13 0.16 0.19 0.23 0.28 0.33 0.36 0.41 0.45 0.49 0.52 0.49 0.46 0.47 0.48 0.49 0.47 0.47 0.46 0.45 0.46 0.45 0.43 0.44 0.44 0.47 0.51 0.54 0.55 0.58 0.62 0.67 0.75 0.90 1.00
0.01 0.01 0.01 0.02 0.02 0.03 0.05 0.08 0.10 0.14 0.17 0.20 0.22 0.25 0.27 0.30 0.34 0.36 0.39 0.41 0.41 0.39 0.39 0.39 0.39 0.37 0.34 0.32 0.31 0.29 0.29 0.30 0.31 0.34 0.38 0.43 0.46 0.49 0.51 0.55 0.60 0.67 0.78
0.01 0.01 0.01 0.01 0.02 0.03 0.04 0.05 0.07 0.09 0.12 0.16 0.18 0.21 0.23 0.25 0.27 0.27 0.29 0.32 0.33 0.32 0.31 0.31 0.31 0.30 0.28 0.26 0.24 0.24 0.24 0.24 0.24 0.25 0.28 0.31 0.35 0.39 0.44 0.49 0.50 0.52 0.56
0.02 0.02 0.02 0.02 0.03 0.04 0.05 0.06 0.06 0.06 0.07 0.11 0.13 0.16 0.18 0.20 0.21 0.20 0.20 0.21 0.21 0.20 0.20 0.19 0.18 0.19 0.19 0.20 0.20 0.20 0.21 0.21 0.22 0.24 0.28 0.33 0.37 0.41 0.43 0.46 0.47 0.46 0.49
0.05 0.04 0.04 0.04 0.05 0.06 0.06 0.06 0.06 0.06 0.06 0.08 0.11 0.13 0.13 0.15 0.16 0.18 0.18 0.17 0.16 0.15 0.15 0.15 0.14 0.14 0.14 0.16 0.17 0.18 0.20 0.23 0.25 0.28 0.32 0.35 0.35 0.36 0.35 0.36 0.37 0.41 0.43
0.06 0.06 0.06 0.06 0.06 0.05 0.05 0.05 0.06 0.07 0.08 0.10 0.11 0.11 0.12 0.14 0.15 0.16 0.16 0.15 0.14 0.12 0.13 0.14 0.14 0.14 0.15 0.17 0.19 0.22 0.26 0.30 0.34 0.35 0.34 0.33 0.31 0.28 0.26 0.28 0.29 0.32 0.36
0.06 0.05 0.05 0.06 0.05 0.05 0.06 0.06 0.06 0.07 0.08 0.10 0.12 0.12 0.13 0.14 0.14 0.16 0.16 0.16 0.16 0.17 0.16 0.17 0.18 0.20 0.23 0.31 0.29 0.26 0.30 0.34 0.34 0.32 0.28 0.26 0.24 0.21 0.21 0.21 0.23 0.29 0.38
0.06 0.04 0.04 0.05 0.05 0.05 0.06 0.08 0.08 0.08 0.11 0.12 0.13 0.14 0.17 0.19 0.17 0.18 0.21 0.22 0.24 0.27 0.32 0.34 0.33 0.36 0.42 0.44 0.34 0.30 0.26 0.26 0.26 0.23 0.20 0.18 0.16 0.15 0.12 0.12 0.15 0.19 0.27
0.05 0.04 0.04 0.04 0.04 0.04 0.05 0.06 0.07 0.09 0.14 0.18 0.20 0.20 0.21 0.25 0.27 0.27 0.30 0.32 0.35 0.41 0.47 0.49 0.48 0.45 0.44 0.39 0.31 0.25 0.19 0.16 0.13 0.11 0.09 0.07 0.07 0.06 0.10 0.16 0.20 0.15 0.11
0.07 0.05 0.04 0.05 0.05 0.06 0.07 0.07 0.07 0.09 0.16 0.21 0.24 0.24 0.26 0.29 0.34 0.39 0.43 0.43 0.43 0.46 0.47 0.43 0.40 0.36 0.33 0.25 0.17 0.13 0.11 0.09 0.07 0.05 0.04 0.05 0.04 0.06 0.18 0.26 0.26 0.14 0.05
0.10 0.09 0.08 0.08 0.09 0.11 0.13 0.14 0.15 0.17 0.21 0.22 0.26 0.27 0.29 0.33 0.37 0.42 0.48 0.49 0.47 0.42 0.38 0.32 0.26 0.22 0.19 0.15 0.11 0.08 0.06 0.05 0.04 0.04 0.03 0.04 0.05 0.13 0.25 0.26 0.24 0.13 0.06
0.11 0.13 0.16 0.17 0.19 0.21 0.23 0.24 0.24 0.25 0.26 0.27 0.30 0.33 0.33 0.36 0.39 0.41 0.41 0.39 0.35 0.29 0.24 0.19 0.15 0.11 0.09 0.07 0.06 0.06 0.06 0.07 0.08 0.07 0.03 0.02 0.09 0.19 0.24 0.19 0.09 0.10 0.18
0.14 0.16 0.20 0.22 0.25 0.26 0.27 0.29 0.31 0.31 0.30 0.30 0.31 0.33 0.34 0.32 0.28 0.27 0.26 0.23 0.19 0.15 0.12 0.10 0.07 0.06 0.05 0.04 0.03 0.05 0.08 0.12 0.12 0.08 0.05 0.06 0.15 0.16 0.11 0.06 0.06 0.13 0.13
0.14 0.15 0.17 0.18 0.20 0.24 0.28 0.31 0.31 0.29 0.27 0.26 0.26 0.26 0.23 0.20 0.18 0.15 0.13 0.12 0.10 0.09 0.09 0.08 0.06 0.05 0.04 0.03 0.04 0.05 0.10 0.14 0.12 0.09 0.12 0.14 0.11 0.06 0.02 0.03 0.06 0.06 0.05
0.11 0.12 0.13 0.13 0.14 0.15 0.18 0.21 0.22 0.21 0.19 0.17 0.16 0.14 0.12 0.11 0.10 0.08 0.07 0.07 0.06 0.06 0.06 0.06 0.06 0.05 0.04 0.03 0.04 0.07 0.09 0.10 0.11 0.13 0.13 0.08 0.03 0.02 0.02 0.02 0.02 0.03 0.07
0.12 0.10 0.09 0.09 0.09 0.09 0.10 0.11 0.12 0.11 0.10 0.10 0.09 0.08 0.07 0.07 0.07 0.07 0.08 0.08 0.06 0.06 0.06 0.06 0.06 0.07 0.06 0.06 0.13 0.16 0.13 0.16 0.17 0.15 0.06 0.02 0.01 0.02 0.02 0.02 0.01 0.03 0.06
0.14 0.11 0.10 0.09 0.08 0.08 0.08 0.08 0.08 0.08 0.07 0.07 0.07 0.07 0.06 0.06 0.07 0.07 0.08 0.10 0.09 0.09 0.07 0.06 0.06 0.06 0.08 0.11 0.13 0.15 0.18 0.19 0.15 0.09 0.04 0.03 0.04 0.05 0.05 0.05 0.05 0.05 0.09

GEFSMW_prec_meanprecacc_120.txt.gz
Total_Precipitation_Accumulation
0.35 0.49 0.66 0.90 1.06 1.19 1.36 1.47 1.53 1.62 1.55 1.40 1.21 0.94 0.75 0.69 0.68 0.61 0.54 0.45 0.37 0.31 0.25 0.20 0.17 0.13 0.10 0.08 0.07 0.07 0.06 0.04 0.04 0.04 0.03 0.01 0.01 0.01 0.01 0.01 0.01 0.01 0.02
0.27 0.38 0.55 0.73 0.89 1.05 1.13 1.30 1.33 1.46 1.44 1.29 1.26 1.17 1.11 1.01 0.96 0.89 0.72 0.60 0.53 0.46 0.38 0.30 0.28 0.25 0.19 0.15 0.15 0.15 0.11 0.09 0.09 0.11 0.12 0.07 0.03 0.03 0.03 0.03 0.03 0.03 0.03
0.17 0.25 0.39 0.57 0.69 0.86 1.01 1.08 1.12 1.22 1.36 1.44 1.54 1.56 1.47 1.18 0.96 0.86 0.80 0.74 0.70 0.64 0.56 0.48 0.43 0.39 0.34 0.28 0.28 0.27 0.25 0.25 0.24 0.23 0.28 0.25 0.15 0.10 0.06 0.05 0.05 0.04 0.03
0.13 0.17 0.25 0.38 0.48 0.61 0.83 1.02 1.08 1.09 1.20 1.48 1.53 1.50 1.32 1.07 0.86 0.89 0.95 0.94 0.86 0.80 0.72 0.66 0.62 0.57 0.50 0.45 0.46 0.47 0.48 0.47 0.41 0.36 0.35 0.36 0.32 0.32 0.21 0.09 0.07 0.06 0.05
0.11 0.12 0.18 0.27 0.35 0.43 0.62 0.80 0.99 1.08 1.11 1.18 1.28 1.39 1.32 1.18 1.14 1.06 0.95 0.88 0.83 0.79 0.77 0.75 0.73 0.71 0.69 0.69 0.70 0.67 0.66 0.64 0.59 0.54 0.50 0.49 0.45 0.41 0.42 0.27 0.15 0.13 0.13
0.09 0.09 0.14 0.23 0.29 0.33 0.45 0.58 0.73 0.87 0.93 0.97 1.05 1.11 1.17 1.24 1.20 1.08 0.98 0.93 0.91 0.86 0.81 0.83 0.83 0.85 0.82 0.80 0.81 0.82 0.83 0.84 0.81 0.77 0.69 0.65 0.60 0.53 0.58 0.53 0.36 0.30 0.24
0.08 0.08 0.11 0.17 0.23 0.27 0.33 0.40 0.47 0.56 0.69 0.78 0.81 0.86 0.99 1.12 1.10 1.00 0.94 0.90 0.86 0.77 0.76 0.82 0.86 0.89 0.90 0.91 0.91 0.89 0.88 0.93 0.96 0.95 0.91 0.86 0.79 0.73 0.76 0.79 0.65 0.52 0.39
0.08 0.08 0.08 0.11 0.18 0.23 0.26 0.30 0.34 0.37 0.48 0.56 0.62 0.68 0.78 0.93 0.93 0.94 0.86 0.80 0.77 0.77 0.80 0.82 0.81 0.81 0.82 0.84 0.84 0.83 0.81 0.84 0.86 0.88 0.87 0.86 0.81 0.81 0.84 0.90 0.96 0.87 0.66
0.07 0.07 0.07 0.07 0.14 0.19 0.22 0.24 0.28 0.31 0.35 0.43 0.52 0.55 0.58 0.65 0.73 0.82 0.84 0.76 0.70 0.70 0.71 0.72 0.71 0.68 0.67 0.68 0.69 0.68 0.67 0.68 0.69 0.71 0.74 0.76 0.73 0.75 0.77 0.84 0.99 1.12 0.99
0.06 0.06 0.06 0.07 0.11 0.14 0.18 0.21 0.24 0.28 0.29 0.32 0.40 0.43 0.46 0.51 0.56 0.62 0.67 0.64 0.60 0.60 0.60 0.59 0.57 0.55 0.54 0.53 0.53 0.51 0.50 0.51 0.51 0.53 0.56 0.59 0.60 0.64 0.68 0.74 0.81 0.95 1.05
0.05 0.05 0.05 0.06 0.08 0.10 0.14 0.19 0.20 0.23 0.26 0.28 0.32 0.37 0.37 0.41 0.45 0.48 0.52 0.56 0.56 0.52 0.51 0.51 0.49 0.45 0.42 0.39 0.38 0.35 0.36 0.37 0.38 0.40 0.44 0.47 0.50 0.53 0.56 0.60 0.65 0.72 0.82
0.04 0.03 0.03 0.04 0.05 0.07 0.10 0.15 0.15 0.15 0.19 0.22 0.25 0.30 0.33 0.35 0.38 0.38 0.43 0.48 0.51 0.48 0.45 0.45 0.43 0.40 0.37 0.34 0.32 0.32 0.31 0.31 0.31 0.31 0.34 0.36 0.39 0.44 0.48 0.53 0.55 0.57 0.61
0.04 0.03 0.04 0.04 0.05 0.06 0.08 0.11 0.12 0.12 0.13 0.15 0.18 0.21 0.24 0.26 0.29 0.30 0.32 0.34 0.37 0.37 0.34 0.33 0.33 0.31 0.30 0.29 0.29 0.28 0.29 0.29 0.29 0.30 0.33 0.36 0.40 0.44 0.46 0.48 0.50 0.50 0.52
0.07 0.06 0.06 0.07 0.08 0.09 0.08 0.08 0.10 0.10 0.10 0.11 0.15 0.17 0.19 0.20 0.22 0.25 0.27 0.27 0.27 0.30 0.28 0.26 0.27 0.27 0.25 0.23 0.24 0.25 0.26 0.29 0.31 0.33 0.36 0.38 0.38 0.38 0.38 0.38 0.39 0.43 0.45
0.08 0.07 0.08 0.08 0.09 0.08 0.07 0.07 0.08 0.09 0.11 0.13 0.15 0.18 0.20 0.22 0.22 0.22 0.23 0.24 0.23 0.23 0.26 0.25 0.25 0.25 0.25 0.24 0.25 0.27 0.30 0.34 0.37 0.38 0.38 0.37 0.36 0.32 0.30 0.31 0.32 0.34 0.37
0.08 0.07 0.07 0.08 0.09 0.08 0.08 0.08 0.08 0.09 0.10 0.12 0.15 0.17 0.19 0.22 0.23 0.24 0.23 0.23 0.24 0.25 0.28 0.28 0.29 0.31 0.33 0.40 0.37 0.33 0.36 0.39 0.38 0.35 0.31 0.28 0.27 0.24 0.25 0.25 0.26 0.31 0.39
0.08 0.06 0.06 0.07 0.07 0.07 0.09 0.10 0.10 0.11 0.13 0.14 0.14 0.16 0.22 0.25 0.24 0.26 0.29 0.29 0.30 0.34 0.40 0.43 0.43 0.47 0.53 0.55 0.44 0.37 0.32 0.32 0.31 0.28 0.24 0.21 0.19 0.18 0.15 0.14 0.18 0.21 0.29
0.07 0.05 0.05 0.05 0.05 0.06 0.07 0.08 0.08 0.11 0.16 0.21 0.22 0.23 0.24 0.29 0.32 0.32 0.36 0.38 0.40 0.47 0.53 0.56 0.55 0.54 0.55 0.53 0.43 0.35 0.27 0.22 0.19 0.17 0.14 0.12 0.11 0.11 0.14 0.19 0.22 0.16 0.12
0.08 0.06 0.06 0.06 0.06 0.07 0.08 0.09 0.09 0.11 0.18 0.22 0.27 0.26 0.29 0.33 0.37 0.43 0.47 0.48 0.49 0.52 0.53 0.51 0.48 0.44 0.42 0.38 0.30 0.25 0.21 0.17 0.14 0.12 0.10 0.11 0.09 0.11 0.21 0.29 0.27 0.15 0.06
0.12 0.10 0.09 0.09 0.09 0.11 0.14 0.16 0.17 0.20 0.23 0.23 0.28 0.29 0.32 0.36 0.41 0.46 0.52 0.55 0.54 0.51 0.44 0.39 0.33 0.29 0.27 0.26 0.21 0.18 0.15 0.13 0.11 0.10 0.08 0.08 0.09 0.16 0.27 0.28 0.25 0.14 0.06
0.13 0.16 0.18 0.19 0.20 0.23 0.24 0.25 0.26 0.27 0.29 0.29 0.33 0.35 0.36 0.39 0.43 0.45 0.45 0.44 0.41 0.36 0.30 0.25 0.20 0.17 0.17 0.16 0.14 0.13 0.11 0.12 0.13 0.11 0.08 0.06 0.12 0.22 0.26 0.20 0.10 0.11 0.19
0.14 0.18 0.22 0.25 0.27 0.29 0.30 0.31 0.33 0.33 0.32 0.32 0.34 0.36 0.36 0.35 0.32 0.31 0.31 0.28 0.24 0.23 0.18 0.15 0.13 0.12 0.12 0.11 0.10 0.11 0.13 0.17 0.16 0.12 0.08 0.08 0.18 0.19 0.13 0.07 0.06 0.13 0.13
0.14 0.16 0.19 0.20 0.22 0.26 0.31 0.34 0.35 0.33 0.30 0.28 0.28 0.28 0.26 0.23 0.21 0.18 0.17 0.16 0.15 0.15 0.15 0.13 0.11 0.09 0.09 0.09 0.10 0.11 0.16 0.19 0.16 0.13 0.15 0.17 0.14 0.08 0.04 0.04 0.07 0.07 0.05
0.12 0.12 0.14 0.15 0.15 0.17 0.21 0.25 0.26 0.25 0.22 0.19 0.18 0.17 0.16 0.16 0.14 0.11 0.10 0.10 0.10 0.10 0.11 0.11 0.09 0.08 0.07 0.07 0.08 0.11 0.14 0.15 0.15 0.16 0.17 0.12 0.06 0.05 0.04 0.04 0.03 0.03 0.07
0.13 0.11 0.10 0.10 0.10 0.11 0.12 0.16 0.17 0.16 0.15 0.13 0.11 0.10 0.11 0.13 0.12 0.11 0.11 0.11 0.11 0.12 0.12 0.11 0.10 0.11 0.10 0.10 0.18 0.21 0.18 0.21 0.22 0.20 0.11 0.06 0.05 0.04 0.04 0.03 0.02 0.03 0.06
0.15 0.11 0.10 0.10 0.09 0.09 0.10 0.10 0.12 0.13 0.13 0.11 0.11 0.11 0.10 0.10 0.12 0.12 0.12 0.15 0.16 0.17 0.17 0.15 0.13 0.12 0.13 0.16 0.19 0.21 0.25 0.26 0.22 0.16 0.09 0.08 0.08 0.07 0.07 0.06 0.06 0.05 0.09

GEFSMW_prec_meanprecacc_126.txt.gz
Total_Precipitation_Accumulation
0.45 0.59 0.79 1.08 1.32 1.44 1.63 1.72 1.82 1.93 1.88 1.77 1.60 1.30 1.03 0.93 0.88 0.78 0.70 0.59 0.49 0.44 0.38 0.30 0.23 0.17 0.13 0.10 0.09 0.08 0.06 0.05 0.04 0.04 0.03 0.01 0.01 0.01 0.01 0.01 0.01 0.01 0.02
0.33 0.45 0.63 0.84 1.05 1.26 1.36 1.54 1.59 1.75 1.72 1.58 1.57 1.47 1.40 1.28 1.18 1.08 0.88 0.76 0.67 0.59 0.50 0.41 0.35 0.29 0.22 0.17 0.16 0.16 0.12 0.10 0.10 0.12 0.13 0.07 0.03 0.03 0.03 0.03 0.03 0.03 0.04
0.23 0.31 0.46 0.65 0.79 1.01 1.23 1.29 1.35 1.52 1.67 1.71 1.81 1.83 1.76 1.49 1.23 1.08 0.99 0.90 0.85 0.77 0.67 0.58 0.51 0.44 0.37 0.30 0.30 0.29 0.26 0.26 0.26 0.24 0.29 0.25 0.15 0.10 0.06 0.05 0.05 0.05 0.04
0.20 0.24 0.31 0.44 0.55 0.71 1.00 1.24 1.31 1.38 1.54 1.83 1.84 1.76 1.58 1.35 1.10 1.09 1.14 1.11 1.02 0.94 0.84 0.76 0.71 0.63 0.55 0.49 0.50 0.51 0.51 0.49 0.44 0.38 0.36 0.37 0.33 0.33 0.22 0.09 0.07 0.07 0.06
0.21 0.20 0.25 0.33 0.42 0.52 0.74 1.00 1.25 1.36 1.41 1.53 1.63 1.69 1.55 1.41 1.37 1.27 1.17 1.07 1.00 0.97 0.91 0.86 0.83 0.79 0.75 0.75 0.76 0.73 0.71 0.68 0.63 0.57 0.54 0.53 0.48 0.44 0.44 0.29 0.16 0.15 0.14
0.20 0.17 0.21 0.30 0.39 0.43 0.56 0.74 0.97 1.13 1.22 1.29 1.38 1.45 1.45 1.48 1.45 1.31 1.21 1.14 1.09 1.04 0.98 0.96 0.94 0.94 0.90 0.88 0.88 0.88 0.89 0.89 0.85 0.82 0.73 0.70 0.64 0.57 0.62 0.57 0.40 0.33 0.26
0.17 0.17 0.19 0.26 0.35 0.39 0.44 0.54 0.65 0.80 0.93 1.04 1.11 1.19 1.30 1.39 1.34 1.21 1.13 1.09 1.01 0.94 0.94 0.98 0.98 0.99 0.99 0.98 0.97 0.96 0.94 0.98 1.01 1.00 0.96 0.91 0.84 0.78 0.81 0.83 0.68 0.54 0.41
0.19 0.18 0.17 0.20 0.28 0.32 0.38 0.45 0.49 0.55 0.66 0.76 0.84 0.92 1.05 1.20 1.19 1.16 1.04 0.95 0.89 0.90 0.96 1.00 0.96 0.93 0.91 0.91 0.91 0.91 0.89 0.90 0.91 0.93 0.93 0.92 0.87 0.87 0.90 0.95 1.01 0.91 0.69
0.21 0.18 0.16 0.15 0.21 0.26 0.31 0.38 0.43 0.47 0.49 0.57 0.67 0.71 0.75 0.84 0.94 1.03 1.03 0.92 0.84 0.84 0.87 0.89 0.87 0.81 0.77 0.76 0.77 0.76 0.75 0.76 0.76 0.78 0.80 0.82 0.79 0.80 0.83 0.90 1.05 1.18 1.05
0.20 0.17 0.15 0.16 0.19 0.21 0.24 0.30 0.38 0.43 0.43 0.45 0.53 0.58 0.60 0.67 0.74 0.81 0.84 0.80 0.75 0.73 0.73 0.74 0.71 0.69 0.65 0.62 0.61 0.59 0.58 0.59 0.58 0.60 0.63 0.66 0.65 0.69 0.73 0.79 0.86 1.01 1.11
0.18 0.16 0.16 0.18 0.19 0.19 0.21 0.27 0.32 0.39 0.42 0.41 0.44 0.50 0.49 0.53 0.59 0.63 0.66 0.69 0.69 0.65 0.63 0.62 0.60 0.57 0.52 0.48 0.46 0.43 0.43 0.44 0.43 0.45 0.49 0.52 0.55 0.58 0.61 0.65 0.70 0.77 0.88
0.14 0.15 0.15 0.15 0.14 0.16 0.20 0.25 0.28 0.33 0.37 0.36 0.37 0.43 0.44 0.45 0.49 0.51 0.55 0.59 0.63 0.60 0.58 0.57 0.55 0.52 0.48 0.43 0.40 0.39 0.38 0.38 0.37 0.37 0.39 0.42 0.46 0.50 0.54 0.59 0.60 0.62 0.66
0.14 0.13 0.14 0.15 0.13 0.14 0.20 0.24 0.25 0.27 0.29 0.29 0.31 0.33 0.35 0.36 0.40 0.41 0.43 0.45 0.48 0.47 0.46 0.47 0.46 0.43 0.41 0.40 0.38 0.36 0.36 0.36 0.35 0.36 0.39 0.42 0.46 0.50 0.52 0.54 0.55 0.55 0.57
0.13 0.13 0.15 0.15 0.14 0.16 0.17 0.18 0.23 0.23 0.23 0.23 0.28 0.29 0.29 0.31 0.33 0.37 0.37 0.37 0.37 0.41 0.40 0.39 0.39 0.40 0.38 0.36 0.37 0.36 0.35 0.37 0.39 0.41 0.43 0.45 0.45 0.44 0.43 0.44 0.45 0.49 0.51
0.12 0.13 0.15 0.16 0.16 0.14 0.13 0.13 0.16 0.20 0.21 0.21 0.26 0.28 0.30 0.34 0.33 0.34 0.34 0.34 0.33 0.34 0.37 0.37 0.38 0.38 0.39 0.38 0.38 0.40 0.42 0.44 0.47 0.47 0.45 0.44 0.43 0.39 0.36 0.37 0.38 0.41 0.44
0.11 0.12 0.13 0.15 0.15 0.14 0.14 0.12 0.13 0.16 0.17 0.18 0.21 0.23 0.28 0.35 0.36 0.36 0.35 0.34 0.34 0.36 0.39 0.40 0.40 0.42 0.46 0.53 0.48 0.43 0.46 0.49 0.48 0.44 0.39 0.36 0.35 0.32 0.33 0.33 0.34 0.39 0.47
0.11 0.10 0.11 0.12 0.12 0.11 0.14 0.15 0.14 0.15 0.18 0.18 0.18 0.20 0.27 0.34 0.37 0.40 0.43 0.43 0.42 0.46 0.52 0.55 0.54 0.56 0.63 0.68 0.56 0.48 0.42 0.42 0.41 0.37 0.32 0.29 0.27 0.27 0.23 0.23 0.27 0.30 0.38
0.10 0.09 0.10 0.10 0.09 0.09 0.11 0.12 0.12 0.15 0.21 0.25 0.26 0.26 0.28 0.35 0.42 0.44 0.47 0.51 0.52 0.58 0.64 0.68 0.66 0.65 0.67 0.66 0.57 0.48 0.38 0.34 0.31 0.28 0.24 0.22 0.20 0.20 0.24 0.29 0.32 0.25 0.20
0.11 0.10 0.10 0.09 0.08 0.09 0.11 0.12 0.11 0.14 0.21 0.26 0.30 0.29 0.31 0.37 0.44 0.52 0.58 0.60 0.60 0.63 0.66 0.63 0.59 0.55 0.56 0.51 0.44 0.41 0.34 0.30 0.26 0.23 0.22 0.22 0.19 0.21 0.32 0.39 0.36 0.24 0.13
0.14 0.13 0.12 0.11 0.10 0.12 0.15 0.18 0.19 0.22 0.26 0.26 0.31 0.32 0.35 0.40 0.46 0.52 0.60 0.65 0.65 0.62 0.57 0.53 0.46 0.42 0.41 0.41 0.35 0.32 0.30 0.29 0.25 0.22 0.20 0.21 0.21 0.27 0.39 0.38 0.34 0.23 0.13
0.14 0.18 0.20 0.20 0.21 0.24 0.25 0.27 0.28 0.29 0.31 0.32 0.36 0.39 0.40 0.44 0.49 0.52 0.52 0.53 0.52 0.47 0.41 0.37 0.32 0.29 0.29 0.31 0.28 0.26 0.24 0.25 0.26 0.23 0.18 0.16 0.25 0.34 0.36 0.30 0.19 0.19 0.26
0.15 0.19 0.23 0.26 0.28 0.29 0.31 0.32 0.34 0.35 0.35 0.36 0.38 0.40 0.40 0.40 0.38 0.39 0.39 0.36 0.33 0.32 0.28 0.26 0.24 0.23 0.22 0.24 0.24 0.25 0.27 0.29 0.25 0.20 0.16 0.16 0.26 0.27 0.20 0.13 0.13 0.20 0.19
0.14 0.17 0.20 0.21 0.22 0.27 0.32 0.35 0.36 0.34 0.32 0.34 0.34 0.32 0.30 0.28 0.27 0.26 0.24 0.24 0.24 0.24 0.25 0.24 0.22 0.21 0.21 0.22 0.25 0.25 0.29 0.31 0.26 0.22 0.24 0.26 0.23 0.17 0.11 0.10 0.12 0.12 0.09
0.12 0.13 0.14 0.15 0.16 0.18 0.22 0.26 0.27 0.26 0.24 0.26 0.24 0.22 0.20 0.21 0.20 0.19 0.17 0.17 0.18 0.18 0.19 0.20 0.19 0.18 0.18 0.18 0.20 0.24 0.26 0.27 0.26 0.26 0.27 0.22 0.17 0.14 0.12 0.11 0.08 0.07 0.11
0.13 0.11 0.10 0.10 0.11 0.11 0.13 0.16 0.18 0.18 0.18 0.18 0.16 0.15 0.15 0.19 0.21 0.20 0.18 0.19 0.18 0.20 0.20 0.19 0.19 0.19 0.19 0.20 0.29 0.32 0.29 0.31 0.31 0.28 0.18 0.14 0.13 0.13 0.11 0.09 0.07 0.07 0.10
0.15 0.12 0.10 0.10 0.10 0.10 0.10 0.11 0.14 0.16 0.17 0.16 0.15 0.15 0.13 0.15 0.19 0.22 0.23 0.25 0.26 0.27 0.27 0.25 0.23 0.22 0.24 0.28 0.31 0.32 0.35 0.36 0.33 0.25 0.17 0.14 0.14 0.13 0.12 0.11 0.11 0.09 0.12

GEFSMW_prec_meanprecacc_132.txt.gz
Total_Precipitation_Accumulation
0.59 0.78 1.01 1.28 1.49 1.60 1.79 1.90 2.06 2.18 2.12 1.96 1.76 1.48 1.21 1.08 1.01 0.88 0.78 0.67 0.58 0.52 0.45 0.36 0.28 0.21 0.17 0.14 0.12 0.11 0.08 0.05 0.05 0.04 0.03 0.01 0.01 0.01 0.01 0.01 0.01 0.01 0.02
0.42 0.59 0.85 1.01 1.19 1.38 1.50 1.70 1.79 1.98 1.94 1.78 1.74 1.64 1.58 1.46 1.33 1.20 0.98 0.84 0.75 0.66 0.55 0.46 0.41 0.33 0.25 0.21 0.20 0.19 0.15 0.11 0.11 0.12 0.13 0.07 0.03 0.03 0.03 0.03 0.03 0.03 0.04
0.29 0.41 0.61 0.80 0.91 1.12 1.36 1.42 1.49 1.72 1.86 1.88 1.99 2.05 1.98 1.70 1.45 1.27 1.16 1.03 0.94 0.85 0.73 0.62 0.56 0.50 0.42 0.33 0.34 0.32 0.29 0.29 0.28 0.25 0.30 0.26 0.16 0.10 0.06 0.05 0.05 0.05 0.04
0.26 0.33 0.41 0.56 0.67 0.82 1.11 1.37 1.46 1.58 1.74 1.98 1.98 1.91 1.78 1.56 1.29 1.26 1.31 1.26 1.14 1.03 0.93 0.84 0.78 0.71 0.63 0.55 0.54 0.55 0.55 0.53 0.47 0.41 0.38 0.39 0.34 0.33 0.22 0.10 0.07 0.07 0.06
0.29 0.29 0.32 0.42 0.52 0.62 0.83 1.08 1.35 1.53 1.66 1.74 1.80 1.85 1.71 1.59 1.52 1.42 1.34 1.24 1.14 1.07 1.01 0.95 0.93 0.89 0.85 0.84 0.83 0.79 0.77 0.73 0.67 0.61 0.57 0.56 0.50 0.46 0.45 0.30 0.17 0.15 0.15
0.28 0.26 0.28 0.37 0.46 0.50 0.62 0.79 1.03 1.22 1.37 1.49 1.57 1.62 1.62 1.66 1.62 1.45 1.36 1.31 1.26 1.20 1.11 1.06 1.04 1.05 1.01 0.98 0.98 0.97 0.96 0.96 0.91 0.86 0.76 0.72 0.66 0.59 0.64 0.59 0.41 0.34 0.27
0.24 0.24 0.27 0.32 0.40 0.46 0.50 0.60 0.72 0.86 1.02 1.17 1.28 1.34 1.44 1.55 1.50 1.36 1.27 1.25 1.20 1.12 1.10 1.11 1.10 1.11 1.10 1.09 1.08 1.06 1.02 1.05 1.07 1.06 1.01 0.95 0.86 0.80 0.83 0.86 0.70 0.56 0.42
0.28 0.26 0.25 0.27 0.34 0.38 0.44 0.52 0.59 0.65 0.76 0.87 0.97 1.09 1.19 1.33 1.33 1.29 1.17 1.09 1.05 1.05 1.12 1.13 1.07 1.04 1.04 1.04 1.03 1.02 0.99 0.98 0.98 0.99 0.98 0.97 0.92 0.91 0.93 0.99 1.05 0.94 0.72
0.32 0.28 0.24 0.22 0.28 0.31 0.36 0.45 0.54 0.58 0.63 0.72 0.83 0.91 0.94 0.99 1.06 1.14 1.14 1.04 0.98 0.99 1.03 1.03 0.99 0.93 0.89 0.90 0.92 0.90 0.89 0.88 0.86 0.87 0.88 0.88 0.85 0.86 0.90 0.98 1.13 1.27 1.13
0.34 0.29 0.25 0.25 0.27 0.28 0.29 0.37 0.50 0.53 0.54 0.59 0.68 0.73 0.78 0.84 0.90 0.94 0.95 0.92 0.88 0.89 0.91 0.91 0.84 0.81 0.78 0.76 0.75 0.73 0.72 0.73 0.71 0.72 0.75 0.75 0.74 0.78 0.82 0.88 0.95 1.09 1.18
0.34 0.32 0.32 0.33 0.32 0.28 0.29 0.35 0.42 0.51 0.55 0.52 0.55 0.62 0.62 0.66 0.74 0.80 0.81 0.82 0.82 0.80 0.79 0.79 0.75 0.70 0.65 0.62 0.59 0.57 0.56 0.57 0.54 0.55 0.59 0.61 0.63 0.66 0.67 0.71 0.76 0.82 0.94
0.29 0.32 0.37 0.36 0.33 0.31 0.32 0.38 0.41 0.47 0.53 0.50 0.48 0.54 0.58 0.59 0.63 0.68 0.75 0.78 0.83 0.78 0.74 0.72 0.70 0.66 0.60 0.56 0.53 0.50 0.49 0.50 0.49 0.47 0.49 0.52 0.55 0.57 0.60 0.64 0.65 0.67 0.72
0.27 0.26 0.32 0.35 0.33 0.33 0.37 0.41 0.42 0.43 0.44 0.44 0.45 0.46 0.48 0.51 0.55 0.58 0.62 0.64 0.69 0.68 0.66 0.67 0.64 0.58 0.55 0.53 0.50 0.46 0.45 0.44 0.44 0.45 0.49 0.51 0.56 0.60 0.60 0.61 0.61 0.61 0.64
0.24 0.24 0.28 0.29 0.30 0.33 0.34 0.33 0.38 0.38 0.38 0.38 0.44 0.45 0.43 0.44 0.48 0.55 0.56 0.55 0.56 0.59 0.58 0.58 0.60 0.58 0.54 0.52 0.50 0.47 0.45 0.46 0.47 0.49 0.52 0.54 0.54 0.54 0.54 0.54 0.53 0.56 0.58
0.21 0.24 0.26 0.26 0.26 0.25 0.24 0.25 0.30 0.33 0.35 0.35 0.43 0.45 0.44 0.45 0.48 0.52 0.52 0.51 0.50 0.51 0.52 0.52 0.55 0.57 0.57 0.56 0.56 0.54 0.55 0.56 0.58 0.57 0.54 0.53 0.53 0.50 0.47 0.47 0.48 0.50 0.52
0.16 0.17 0.20 0.23 0.22 0.21 0.20 0.20 0.21 0.25 0.25 0.27 0.32 0.36 0.39 0.44 0.47 0.49 0.49 0.48 0.48 0.50 0.52 0.53 0.54 0.58 0.61 0.70 0.67 0.60 0.59 0.61 0.58 0.55 0.50 0.47 0.47 0.45 0.45 0.46 0.46 0.51 0.57
0.13 0.13 0.14 0.17 0.18 0.17 0.19 0.20 0.19 0.22 0.24 0.24 0.25 0.29 0.36 0.41 0.45 0.48 0.52 0.53 0.53 0.59 0.66 0.68 0.67 0.70 0.76 0.82 0.69 0.63 0.56 0.54 0.52 0.47 0.43 0.40 0.38 0.40 0.36 0.38 0.42 0.45 0.52
0.12 0.12 0.13 0.15 0.13 0.14 0.15 0.16 0.16 0.20 0.27 0.31 0.32 0.32 0.35 0.41 0.47 0.49 0.53 0.59 0.61 0.69 0.78 0.83 0.81 0.80 0.82 0.82 0.72 0.64 0.53 0.47 0.44 0.41 0.37 0.34 0.32 0.32 0.36 0.42 0.46 0.40 0.35
0.13 0.12 0.13 0.13 0.12 0.13 0.15 0.15 0.15 0.18 0.25 0.31 0.34 0.33 0.35 0.41 0.49 0.56 0.62 0.66 0.67 0.73 0.78 0.78 0.74 0.70 0.71 0.68 0.59 0.58 0.51 0.46 0.41 0.37 0.35 0.34 0.31 0.34 0.45 0.50 0.48 0.36 0.26
0.16 0.15 0.14 0.13 0.13 0.15 0.17 0.20 0.21 0.24 0.28 0.30 0.34 0.35 0.37 0.43 0.49 0.56 0.64 0.70 0.70 0.69 0.68 0.66 0.60 0.57 0.56 0.57 0.50 0.49 0.46 0.45 0.40 0.36 0.34 0.36 0.35 0.42 0.53 0.50 0.46 0.36 0.26
0.15 0.19 0.21 0.22 0.23 0.25 0.26 0.27 0.28 0.30 0.32 0.34 0.38 0.41 0.43 0.47 0.51 0.55 0.56 0.58 0.57 0.54 0.51 0.49 0.45 0.43 0.44 0.47 0.44 0.43 0.41 0.41 0.41 0.38 0.32 0.31 0.42 0.50 0.52 0.44 0.31 0.31 0.39
0.16 0.20 0.24 0.27 0.29 0.30 0.32 0.33 0.34 0.36 0.35 0.37 0.40 0.42 0.43 0.42 0.41 0.42 0.44 0.42 0.40 0.40 0.38 0.38 0.36 0.36 0.37 0.40 0.41 0.43 0.44 0.46 0.42 0.37 0.31 0.31 0.43 0.43 0.36 0.28 0.26 0.32 0.30
0.15 0.17 0.21 0.21 0.23 0.27 0.33 0.36 0.36 0.35 0.33 0.34 0.35 0.34 0.33 0.31 0.31 0.30 0.30 0.31 0.33 0.34 0.36 0.36 0.34 0.33 0.33 0.36 0.43 0.43 0.46 0.49 0.42 0.38 0.41 0.42 0.38 0.31 0.25 0.24 0.25 0.23 0.19
0.12 0.13 0.15 0.16 0.17 0.19 0.23 0.27 0.28 0.27 0.24 0.26 0.25 0.25 0.24 0.24 0.24 0.23 0.23 0.24 0.26 0.27 0.29 0.31 0.30 0.28 0.29 0.30 0.33 0.39 0.42 0.44 0.41 0.41 0.43 0.38 0.32 0.27 0.26 0.25 0.22 0.18 0.20
0.13 0.11 0.10 0.11 0.12 0.13 0.14 0.17 0.19 0.19 0.19 0.19 0.18 0.18 0.18 0.21 0.24 0.24 0.24 0.25 0.26 0.28 0.28 0.27 0.27 0.28 0.28 0.31 0.40 0.44 0.41 0.45 0.46 0.42 0.32 0.28 0.29 0.27 0.24 0.21 0.20 0.20 0.22
0.15 0.12 0.11 0.11 0.11 0.12 0.12 0.12 0.15 0.18 0.18 0.17 0.17 0.17 0.14 0.17 0.23 0.26 0.26 0.30 0.32 0.34 0.35 0.34 0.30 0.28 0.31 0.36 0.40 0.42 0.46 0.50 0.47 0.38 0.29 0.27 0.26 0.26 0.25 0.24 0.23 0.23 0.25

GEFSMW_prec_meanprecacc_138.txt.gz
Total_Precipitation_Accumulation
0.65 0.83 1.07 1.36 1.58 1.69 1.88 2.01 2.18 2.34 2.33 2.24 1.97 1.63 1.33 1.19 1.12 1.02 0.90 0.78 0.69 0.62 0.54 0.46 0.35 0.27 0.23 0.20 0.19 0.18 0.14 0.11 0.09 0.07 0.05 0.02 0.01 0.01 0.01 0.01 0.01 0.01 0.02
0.48 0.64 0.93 1.11 1.28 1.46 1.57 1.78 1.87 2.06 2.07 2.01 2.01 1.83 1.70 1.55 1.42 1.30 1.11 0.97 0.87 0.76 0.64 0.55 0.50 0.40 0.32 0.28 0.28 0.28 0.24 0.19 0.18 0.18 0.16 0.09 0.05 0.03 0.03 0.03 0.03 0.03 0.04
0.36 0.49 0.70 0.91 1.00 1.19 1.44 1.53 1.59 1.80 1.96 2.03 2.20 2.26 2.16 1.84 1.57 1.38 1.27 1.15 1.07 0.96 0.83 0.70 0.65 0.60 0.49 0.40 0.41 0.41 0.39 0.38 0.36 0.33 0.37 0.30 0.17 0.11 0.06 0.06 0.05 0.05 0.04
0.32 0.39 0.47 0.63 0.76 0.89 1.18 1.47 1.58 1.69 1.85 2.11 2.15 2.11 1.94 1.68 1.40 1.36 1.41 1.37 1.26 1.14 1.01 0.92 0.84 0.78 0.71 0.61 0.60 0.62 0.64 0.64 0.57 0.48 0.45 0.44 0.38 0.35 0.23 0.10 0.07 0.07 0.06
0.34 0.35 0.37 0.47 0.60 0.70 0.91 1.17 1.43 1.64 1.80 1.90 1.96 2.05 1.89 1.70 1.62 1.52 1.44 1.36 1.26 1.18 1.10 1.04 1.01 0.96 0.92 0.90 0.90 0.85 0.84 0.82 0.77 0.70 0.64 0.61 0.55 0.49 0.47 0.31 0.18 0.16 0.15
0.34 0.31 0.32 0.41 0.52 0.58 0.70 0.86 1.10 1.29 1.47 1.64 1.75 1.82 1.83 1.82 1.76 1.58 1.47 1.44 1.39 1.32 1.20 1.15 1.13 1.13 1.09 1.06 1.06 1.04 1.04 1.04 1.00 0.96 0.85 0.79 0.72 0.62 0.67 0.61 0.43 0.35 0.28
0.29 0.29 0.31 0.37 0.46 0.53 0.58 0.67 0.80 0.93 1.09 1.26 1.41 1.49 1.59 1.70 1.63 1.49 1.38 1.38 1.33 1.26 1.22 1.19 1.17 1.19 1.18 1.17 1.17 1.15 1.11 1.14 1.16 1.15 1.10 1.02 0.92 0.84 0.87 0.89 0.73 0.58 0.44
0.33 0.31 0.30 0.33 0.40 0.45 0.52 0.58 0.65 0.71 0.83 0.95 1.07 1.20 1.33 1.48 1.49 1.42 1.28 1.19 1.16 1.15 1.21 1.21 1.14 1.09 1.10 1.12 1.11 1.11 1.06 1.06 1.07 1.07 1.07 1.06 0.98 0.97 0.99 1.05 1.11 1.00 0.76
0.37 0.33 0.30 0.29 0.35 0.39 0.43 0.51 0.59 0.64 0.70 0.81 0.93 1.01 1.06 1.15 1.24 1.30 1.29 1.17 1.09 1.09 1.10 1.10 1.05 0.98 0.94 0.96 0.99 0.97 0.96 0.95 0.94 0.94 0.96 0.97 0.92 0.93 0.97 1.05 1.21 1.35 1.21
0.38 0.34 0.33 0.34 0.36 0.36 0.36 0.45 0.59 0.61 0.61 0.66 0.76 0.83 0.89 0.99 1.07 1.11 1.12 1.08 1.01 1.00 1.00 0.98 0.91 0.88 0.84 0.81 0.82 0.82 0.80 0.81 0.79 0.80 0.82 0.83 0.82 0.85 0.89 0.95 1.02 1.17 1.26
0.39 0.38 0.41 0.44 0.44 0.38 0.38 0.44 0.51 0.61 0.64 0.62 0.66 0.71 0.70 0.75 0.87 0.96 0.96 0.97 0.95 0.92 0.91 0.88 0.83 0.79 0.74 0.70 0.67 0.64 0.65 0.67 0.65 0.66 0.70 0.71 0.71 0.74 0.75 0.79 0.84 0.90 1.02
0.35 0.39 0.46 0.46 0.45 0.42 0.43 0.47 0.49 0.55 0.63 0.63 0.61 0.66 0.67 0.66 0.71 0.80 0.89 0.92 0.96 0.90 0.87 0.83 0.80 0.75 0.69 0.65 0.63 0.60 0.59 0.59 0.59 0.59 0.61 0.63 0.65 0.68 0.71 0.74 0.74 0.75 0.79
0.33 0.34 0.40 0.44 0.44 0.45 0.49 0.52 0.53 0.54 0.54 0.55 0.56 0.57 0.56 0.58 0.62 0.66 0.74 0.78 0.85 0.83 0.80 0.81 0.77 0.70 0.66 0.64 0.61 0.59 0.57 0.56 0.54 0.55 0.59 0.61 0.65 0.69 0.71 0.72 0.72 0.71 0.73
0.30 0.31 0.35 0.38 0.41 0.45 0.46 0.43 0.48 0.50 0.51 0.48 0.54 0.55 0.53 0.55 0.59 0.64 0.67 0.70 0.73 0.77 0.76 0.76 0.78 0.76 0.71 0.69 0.66 0.64 0.62 0.62 0.61 0.61 0.63 0.65 0.64 0.64 0.63 0.65 0.64 0.66 0.68
0.26 0.30 0.32 0.33 0.35 0.34 0.33 0.35 0.40 0.44 0.45 0.45 0.53 0.54 0.54 0.58 0.65 0.67 0.65 0.65 0.65 0.69 0.70 0.71 0.74 0.76 0.75 0.74 0.74 0.73 0.74 0.76 0.77 0.74 0.71 0.68 0.67 0.63 0.59 0.59 0.61 0.63 0.65
0.21 0.22 0.26 0.30 0.31 0.29 0.28 0.28 0.31 0.35 0.35 0.35 0.40 0.44 0.48 0.57 0.63 0.65 0.63 0.62 0.63 0.66 0.69 0.70 0.71 0.76 0.78 0.89 0.86 0.79 0.79 0.81 0.78 0.74 0.68 0.63 0.63 0.61 0.61 0.59 0.59 0.64 0.72
0.16 0.16 0.19 0.23 0.24 0.22 0.24 0.25 0.25 0.29 0.32 0.31 0.31 0.35 0.44 0.51 0.55 0.60 0.65 0.66 0.67 0.73 0.82 0.83 0.83 0.87 0.94 0.99 0.85 0.78 0.72 0.71 0.69 0.63 0.58 0.54 0.51 0.53 0.49 0.50 0.55 0.58 0.65
0.14 0.14 0.16 0.18 0.17 0.18 0.19 0.20 0.19 0.24 0.32 0.36 0.37 0.37 0.41 0.47 0.54 0.57 0.63 0.70 0.72 0.81 0.91 0.96 0.92 0.92 0.95 0.96 0.85 0.76 0.63 0.59 0.56 0.52 0.49 0.47 0.44 0.44 0.48 0.54 0.58 0.51 0.46
0.14 0.13 0.15 0.15 0.14 0.16 0.17 0.17 0.17 0.21 0.28 0.33 0.37 0.36 0.39 0.45 0.53 0.62 0.69 0.73 0.76 0.81 0.87 0.88 0.83 0.80 0.81 0.79 0.69 0.68 0.60 0.57 0.52 0.47 0.46 0.46 0.43 0.47 0.58 0.63 0.62 0.48 0.36
0.17 0.17 0.15 0.15 0.15 0.17 0.19 0.21 0.23 0.26 0.31 0.33 0.37 0.38 0.40 0.45 0.51 0.59 0.68 0.74 0.74 0.73 0.72 0.71 0.66 0.63 0.62 0.65 0.60 0.60 0.57 0.57 0.52 0.48 0.46 0.49 0.48 0.56 0.67 0.63 0.60 0.49 0.37
0.16 0.21 0.23 0.24 0.25 0.27 0.28 0.29 0.30 0.32 0.35 0.37 0.41 0.43 0.44 0.48 0.52 0.57 0.59 0.61 0.60 0.56 0.53 0.51 0.47 0.46 0.47 0.51 0.49 0.50 0.51 0.52 0.52 0.50 0.45 0.45 0.58 0.66 0.68 0.60 0.45 0.45 0.52
0.17 0.21 0.26 0.28 0.31 0.32 0.33 0.34 0.36 0.38 0.38 0.39 0.42 0.45 0.45 0.44 0.43 0.44 0.46 0.45 0.44 0.43 0.40 0.40 0.39 0.39 0.41 0.44 0.47 0.49 0.54 0.57 0.51 0.47 0.42 0.44 0.58 0.59 0.53 0.47 0.45 0.51 0.47
0.15 0.18 0.22 0.23 0.24 0.29 0.35 0.38 0.38 0.37 0.35 0.36 0.37 0.37 0.36 0.35 0.35 0.34 0.34 0.35 0.38 0.39 0.40 0.39 0.38 0.37 0.38 0.41 0.49 0.50 0.55 0.58 0.52 0.47 0.51 0.54 0.52 0.46 0.42 0.45 0.47 0.44 0.38
0.13 0.13 0.15 0.17 0.18 0.20 0.24 0.29 0.29 0.28 0.26 0.28 0.27 0.26 0.25 0.26 0.26 0.26 0.27 0.29 0.32 0.33 0.34 0.36 0.35 0.34 0.35 0.35 0.39 0.47 0.51 0.54 0.51 0.52 0.54 0.50 0.46 0.43 0.43 0.45 0.43 0.37 0.38
0.14 0.12 0.11 0.11 0.12 0.13 0.15 0.18 0.21 0.20 0.20 0.20 0.19 0.18 0.18 0.22 0.25 0.25 0.26 0.29 0.30 0.34 0.34 0.34 0.34 0.35 0.36 0.37 0.48 0.52 0.51 0.55 0.56 0.53 0.44 0.41 0.43 0.42 0.40 0.38 0.39 0.39 0.40
0.15 0.12 0.11 0.11 0.11 0.12 0.13 0.13 0.16 0.19 0.19 0.18 0.18 0.18 0.15 0.18 0.25 0.28 0.29 0.33 0.35 0.39 0.42 0.42 0.38 0.36 0.38 0.43 0.48 0.51 0.55 0.59 0.58 0.49 0.40 0.37 0.37 0.39 0.39 0.38 0.38 0.39 0.41

GEFSMW_prec_meanprecacc_144.txt.gz
Total_Precipitation_Accumulation
0.71 0.87 1.12 1.42 1.63 1.74 1.93 2.06 2.28 2.45 2.47 2.39 2.11 1.75 1.48 1.36 1.30 1.18 1.05 0.87 0.76 0.69 0.63 0.57 0.45 0.36 0.31 0.27 0.25 0.23 0.20 0.17 0.18 0.18 0.13 0.07 0.05 0.04 0.03 0.02 0.01 0.01 0.02
0.54 0.69 0.97 1.17 1.35 1.51 1.61 1.84 1.94 2.19 2.23 2.16 2.15 1.97 1.85 1.69 1.56 1.47 1.27 1.09 0.98 0.86 0.74 0.67 0.63 0.50 0.41 0.37 0.36 0.35 0.31 0.26 0.25 0.27 0.27 0.18 0.11 0.07 0.06 0.05 0.04 0.04 0.04
0.44 0.56 0.77 0.97 1.08 1.24 1.48 1.58 1.65 1.90 2.11 2.19 2.34 2.41 2.33 2.01 1.70 1.52 1.41 1.27 1.17 1.06 0.93 0.81 0.78 0.74 0.60 0.50 0.51 0.51 0.48 0.47 0.46 0.43 0.46 0.40 0.25 0.15 0.09 0.08 0.07 0.06 0.04
0.39 0.46 0.53 0.69 0.82 0.94 1.23 1.54 1.64 1.78 1.98 2.26 2.30 2.23 2.07 1.83 1.53 1.47 1.51 1.47 1.35 1.23 1.10 1.01 0.94 0.90 0.82 0.71 0.69 0.70 0.73 0.74 0.68 0.62 0.58 0.55 0.47 0.42 0.28 0.13 0.09 0.08 0.07
0.41 0.42 0.43 0.53 0.65 0.76 0.96 1.23 1.50 1.74 1.92 2.04 2.11 2.16 2.01 1.82 1.74 1.61 1.52 1.43 1.35 1.29 1.21 1.14 1.10 1.04 1.00 0.98 0.99 0.94 0.92 0.91 0.88 0.82 0.76 0.72 0.64 0.56 0.54 0.36 0.21 0.18 0.17
0.39 0.36 0.37 0.46 0.57 0.64 0.75 0.91 1.16 1.37 1.57 1.76 1.87 1.94 1.93 1.93 1.88 1.68 1.53 1.51 1.47 1.41 1.31 1.26 1.24 1.22 1.17 1.13 1.13 1.13 1.14 1.13 1.09 1.06 0.96 0.89 0.82 0.71 0.75 0.68 0.48 0.40 0.32
0.35 0.34 0.36 0.41 0.51 0.58 0.64 0.73 0.85 0.99 1.16 1.34 1.49 1.59 1.71 1.80 1.74 1.61 1.46 1.44 1.40 1.33 1.29 1.28 1.29 1.30 1.25 1.23 1.24 1.23 1.20 1.23 1.25 1.23 1.19 1.11 1.00 0.91 0.94 0.97 0.80 0.64 0.48
0.38 0.36 0.35 0.38 0.45 0.50 0.58 0.65 0.71 0.78 0.90 1.01 1.13 1.27 1.42 1.61 1.62 1.56 1.40 1.28 1.24 1.21 1.27 1.26 1.21 1.19 1.19 1.18 1.17 1.18 1.13 1.14 1.15 1.14 1.14 1.13 1.05 1.04 1.06 1.12 1.19 1.08 0.83
0.39 0.36 0.35 0.35 0.41 0.45 0.50 0.58 0.67 0.72 0.78 0.89 1.00 1.08 1.13 1.23 1.33 1.40 1.41 1.28 1.20 1.18 1.18 1.16 1.12 1.05 1.02 1.04 1.06 1.04 1.03 1.03 1.02 1.03 1.04 1.05 1.00 1.01 1.05 1.13 1.30 1.45 1.29
0.39 0.35 0.36 0.40 0.43 0.43 0.44 0.52 0.67 0.69 0.68 0.75 0.84 0.91 0.96 1.06 1.14 1.17 1.20 1.18 1.12 1.12 1.10 1.07 0.99 0.96 0.91 0.88 0.89 0.88 0.86 0.88 0.87 0.88 0.91 0.91 0.90 0.94 0.99 1.04 1.12 1.27 1.36
0.40 0.39 0.43 0.49 0.51 0.45 0.46 0.52 0.58 0.67 0.69 0.68 0.74 0.78 0.76 0.82 0.94 1.04 1.04 1.05 1.04 1.01 1.00 0.98 0.92 0.86 0.82 0.78 0.74 0.70 0.71 0.74 0.73 0.74 0.77 0.78 0.79 0.83 0.85 0.89 0.94 0.99 1.11
0.36 0.42 0.49 0.51 0.51 0.51 0.53 0.55 0.56 0.61 0.68 0.67 0.67 0.71 0.72 0.71 0.78 0.88 0.97 1.00 1.05 1.00 0.96 0.92 0.89 0.83 0.76 0.73 0.72 0.68 0.65 0.65 0.66 0.65 0.68 0.70 0.73 0.78 0.82 0.86 0.86 0.85 0.88
0.35 0.36 0.43 0.48 0.49 0.52 0.60 0.61 0.62 0.62 0.60 0.60 0.61 0.61 0.60 0.62 0.66 0.72 0.81 0.85 0.91 0.91 0.87 0.88 0.83 0.77 0.72 0.69 0.67 0.66 0.65 0.63 0.61 0.62 0.66 0.68 0.73 0.79 0.81 0.83 0.84 0.83 0.84
0.32 0.33 0.38 0.42 0.45 0.50 0.54 0.53 0.59 0.59 0.57 0.54 0.59 0.60 0.57 0.59 0.63 0.70 0.74 0.76 0.79 0.84 0.83 0.84 0.85 0.83 0.77 0.74 0.72 0.70 0.69 0.69 0.69 0.69 0.71 0.73 0.73 0.73 0.72 0.74 0.75 0.78 0.81
0.29 0.33 0.36 0.38 0.40 0.39 0.39 0.41 0.46 0.52 0.52 0.51 0.58 0.60 0.60 0.65 0.73 0.75 0.73 0.73 0.74 0.78 0.81 0.83 0.87 0.87 0.85 0.82 0.80 0.79 0.80 0.83 0.85 0.82 0.79 0.76 0.77 0.73 0.70 0.71 0.73 0.75 0.79
0.23 0.25 0.29 0.35 0.36 0.35 0.35 0.35 0.37 0.41 0.42 0.42 0.46 0.50 0.55 0.63 0.70 0.73 0.72 0.71 0.71 0.76 0.81 0.83 0.87 0.92 0.94 1.04 0.98 0.88 0.87 0.89 0.87 0.83 0.77 0.73 0.74 0.71 0.72 0.71 0.72 0.78 0.87
0.18 0.18 0.21 0.27 0.28 0.27 0.29 0.31 0.32 0.35 0.38 0.36 0.37 0.41 0.50 0.58 0.61 0.66 0.71 0.73 0.74 0.80 0.90 0.93 0.94 0.99 1.09 1.16 0.99 0.91 0.83 0.82 0.80 0.74 0.69 0.65 0.62 0.64 0.59 0.62 0.68 0.72 0.80
0.14 0.15 0.18 0.21 0.20 0.21 0.23 0.23 0.23 0.29 0.37 0.41 0.42 0.43 0.46 0.53 0.60 0.62 0.69 0.76 0.79 0.87 0.98 1.03 1.00 1.01 1.06 1.10 0.99 0.90 0.76 0.71 0.68 0.64 0.61 0.59 0.56 0.56 0.61 0.68 0.73 0.66 0.60
0.14 0.14 0.15 0.16 0.15 0.17 0.20 0.20 0.20 0.24 0.32 0.37 0.41 0.41 0.44 0.50 0.58 0.66 0.74 0.79 0.82 0.88 0.94 0.94 0.91 0.87 0.89 0.89 0.82 0.80 0.71 0.69 0.63 0.58 0.57 0.57 0.56 0.61 0.74 0.79 0.78 0.63 0.51
0.17 0.17 0.16 0.16 0.15 0.17 0.20 0.22 0.24 0.28 0.34 0.36 0.40 0.41 0.42 0.48 0.55 0.63 0.73 0.79 0.79 0.79 0.77 0.77 0.73 0.70 0.71 0.74 0.68 0.69 0.67 0.67 0.61 0.57 0.56 0.60 0.59 0.69 0.81 0.77 0.75 0.66 0.52
0.17 0.21 0.24 0.24 0.25 0.27 0.28 0.29 0.30 0.33 0.36 0.38 0.42 0.44 0.46 0.50 0.55 0.60 0.63 0.65 0.64 0.60 0.58 0.56 0.53 0.51 0.53 0.57 0.55 0.58 0.59 0.60 0.60 0.58 0.53 0.53 0.66 0.75 0.79 0.71 0.57 0.58 0.65
0.17 0.22 0.27 0.29 0.31 0.32 0.34 0.35 0.37 0.38 0.39 0.40 0.43 0.46 0.47 0.46 0.45 0.46 0.48 0.48 0.47 0.46 0.44 0.44 0.43 0.43 0.45 0.48 0.51 0.54 0.59 0.62 0.57 0.53 0.48 0.50 0.65 0.65 0.61 0.56 0.56 0.63 0.60
0.16 0.19 0.22 0.23 0.25 0.30 0.35 0.38 0.39 0.38 0.36 0.38 0.39 0.38 0.37 0.36 0.36 0.36 0.36 0.37 0.40 0.42 0.43 0.42 0.41 0.40 0.41 0.44 0.52 0.52 0.58 0.62 0.56 0.51 0.54 0.57 0.57 0.51 0.48 0.52 0.56 0.54 0.50
0.13 0.14 0.16 0.17 0.18 0.20 0.25 0.29 0.30 0.30 0.28 0.30 0.29 0.27 0.26 0.27 0.27 0.27 0.28 0.31 0.34 0.35 0.37 0.39 0.38 0.37 0.37 0.37 0.41 0.48 0.52 0.57 0.54 0.55 0.57 0.53 0.49 0.47 0.47 0.52 0.51 0.46 0.49
0.14 0.12 0.11 0.12 0.13 0.14 0.16 0.19 0.22 0.22 0.21 0.22 0.20 0.20 0.20 0.23 0.26 0.26 0.27 0.30 0.32 0.36 0.37 0.37 0.36 0.38 0.38 0.40 0.50 0.54 0.52 0.57 0.58 0.55 0.46 0.43 0.45 0.46 0.44 0.43 0.45 0.48 0.51
0.15 0.12 0.11 0.11 0.12 0.12 0.13 0.14 0.17 0.19 0.20 0.19 0.19 0.19 0.17 0.19 0.25 0.29 0.30 0.34 0.36 0.40 0.44 0.45 0.41 0.38 0.41 0.45 0.50 0.53 0.57 0.61 0.60 0.52 0.43 0.41 0.41 0.43 0.43 0.43 0.44 0.46 0.51

GEFSMW_prec_meanprecacc_150.txt.gz
Total_Precipitation_Accumulation
0.72 0.88 1.13 1.45 1.65 1.75 1.95 2.08 2.30 2.48 2.51 2.43 2.14 1.78 1.54 1.45 1.40 1.27 1.14 1.02 0.95 0.87 0.80 0.71 0.60 0.50 0.43 0.36 0.33 0.30 0.26 0.22 0.23 0.23 0.18 0.11 0.08 0.06 0.05 0.05 0.04 0.03 0.03
0.55 0.70 0.99 1.19 1.37 1.54 1.67 1.90 1.97 2.23 2.28 2.20 2.17 2.00 1.89 1.76 1.66 1.57 1.38 1.24 1.15 1.02 0.90 0.80 0.75 0.62 0.52 0.48 0.46 0.43 0.37 0.31 0.30 0.32 0.32 0.24 0.16 0.10 0.08 0.07 0.07 0.07 0.07
0.44 0.57 0.78 0.99 1.10 1.27 1.53 1.63 1.70 1.94 2.15 2.23 2.37 2.44 2.38 2.08 1.80 1.63 1.57 1.44 1.35 1.22 1.06 0.93 0.89 0.84 0.71 0.60 0.60 0.59 0.56 0.54 0.52 0.49 0.52 0.45 0.30 0.20 0.12 0.10 0.10 0.10 0.10
0.40 0.47 0.54 0.71 0.84 0.96 1.26 1.59 1.70 1.83 2.02 2.30 2.32 2.26 2.12 1.91 1.63 1.59 1.68 1.67 1.55 1.42 1.25 1.13 1.04 0.99 0.94 0.83 0.80 0.79 0.81 0.82 0.76 0.70 0.66 0.62 0.53 0.48 0.33 0.17 0.12 0.12 0.11
0.44 0.44 0.46 0.57 0.68 0.78 0.99 1.27 1.55 1.78 1.96 2.08 2.15 2.22 2.07 1.90 1.83 1.72 1.68 1.61 1.52 1.45 1.36 1.28 1.23 1.15 1.11 1.11 1.11 1.05 1.00 0.98 0.94 0.88 0.83 0.80 0.73 0.65 0.61 0.41 0.25 0.22 0.20
0.46 0.43 0.43 0.52 0.62 0.68 0.80 0.97 1.20 1.40 1.62 1.83 1.92 1.99 1.99 1.99 1.95 1.77 1.64 1.62 1.59 1.53 1.43 1.40 1.38 1.35 1.30 1.28 1.27 1.26 1.24 1.21 1.15 1.12 1.02 0.96 0.91 0.80 0.83 0.74 0.52 0.44 0.35
0.38 0.38 0.42 0.48 0.57 0.63 0.70 0.77 0.88 1.01 1.20 1.40 1.55 1.64 1.77 1.87 1.80 1.70 1.56 1.53 1.48 1.41 1.37 1.38 1.43 1.44 1.39 1.38 1.40 1.40 1.33 1.34 1.34 1.30 1.24 1.16 1.06 0.98 1.01 1.04 0.86 0.69 0.52
0.39 0.37 0.37 0.42 0.50 0.55 0.62 0.68 0.74 0.81 0.94 1.06 1.19 1.34 1.48 1.68 1.69 1.65 1.50 1.37 1.30 1.27 1.32 1.32 1.29 1.30 1.34 1.35 1.35 1.37 1.31 1.29 1.28 1.25 1.22 1.20 1.10 1.09 1.12 1.19 1.26 1.15 0.88
0.40 0.37 0.36 0.37 0.45 0.48 0.53 0.61 0.71 0.76 0.82 0.93 1.05 1.14 1.20 1.31 1.40 1.49 1.51 1.37 1.27 1.23 1.23 1.21 1.17 1.11 1.09 1.15 1.22 1.23 1.22 1.20 1.17 1.16 1.15 1.15 1.09 1.10 1.13 1.22 1.38 1.54 1.38
0.39 0.36 0.37 0.41 0.45 0.46 0.47 0.55 0.70 0.72 0.73 0.79 0.89 0.96 1.03 1.13 1.22 1.26 1.29 1.26 1.20 1.18 1.17 1.13 1.06 1.01 0.97 0.95 0.99 1.02 1.02 1.03 1.00 1.01 1.04 1.04 1.02 1.05 1.10 1.16 1.23 1.38 1.46
0.40 0.40 0.44 0.50 0.52 0.47 0.49 0.55 0.61 0.71 0.75 0.75 0.80 0.83 0.82 0.88 1.01 1.11 1.12 1.13 1.11 1.08 1.06 1.05 1.01 0.96 0.89 0.84 0.81 0.79 0.83 0.88 0.86 0.86 0.88 0.89 0.89 0.93 0.95 1.00 1.06 1.13 1.24
0.37 0.42 0.49 0.51 0.52 0.53 0.55 0.58 0.60 0.65 0.74 0.74 0.74 0.78 0.79 0.79 0.85 0.94 1.03 1.06 1.11 1.05 1.01 0.98 0.95 0.90 0.84 0.80 0.78 0.75 0.73 0.75 0.75 0.74 0.76 0.77 0.80 0.85 0.89 0.94 0.94 0.95 0.98
0.35 0.36 0.43 0.48 0.50 0.53 0.61 0.64 0.66 0.67 0.66 0.68 0.68 0.68 0.67 0.69 0.73 0.78 0.87 0.91 0.97 0.96 0.93 0.93 0.89 0.82 0.78 0.76 0.74 0.72 0.72 0.71 0.68 0.67 0.72 0.74 0.79 0.84 0.86 0.89 0.90 0.90 0.92
0.33 0.34 0.39 0.43 0.46 0.51 0.55 0.55 0.61 0.62 0.62 0.59 0.64 0.65 0.62 0.63 0.68 0.75 0.79 0.81 0.84 0.90 0.89 0.88 0.90 0.89 0.84 0.81 0.78 0.75 0.74 0.75 0.74 0.72 0.74 0.76 0.77 0.77 0.77 0.79 0.80 0.84 0.88
0.30 0.34 0.36 0.39 0.42 0.40 0.40 0.43 0.48 0.54 0.55 0.55 0.62 0.64 0.64 0.69 0.76 0.79 0.78 0.78 0.78 0.84 0.87 0.88 0.91 0.92 0.91 0.88 0.86 0.84 0.85 0.87 0.88 0.86 0.82 0.79 0.80 0.77 0.74 0.76 0.78 0.81 0.87
0.24 0.25 0.29 0.36 0.38 0.37 0.36 0.36 0.39 0.43 0.44 0.44 0.48 0.53 0.59 0.67 0.74 0.80 0.79 0.76 0.75 0.80 0.86 0.86 0.90 0.96 0.99 1.09 1.03 0.93 0.91 0.93 0.90 0.86 0.80 0.77 0.78 0.75 0.76 0.77 0.77 0.85 0.95
0.18 0.19 0.22 0.27 0.29 0.28 0.31 0.33 0.34 0.37 0.39 0.38 0.39 0.44 0.54 0.62 0.66 0.73 0.78 0.79 0.79 0.87 0.96 0.98 0.98 1.03 1.12 1.19 1.03 0.95 0.87 0.86 0.83 0.78 0.73 0.69 0.66 0.69 0.63 0.67 0.74 0.78 0.87
0.14 0.15 0.18 0.21 0.21 0.22 0.24 0.25 0.25 0.31 0.39 0.42 0.45 0.47 0.51 0.57 0.65 0.69 0.76 0.82 0.84 0.92 1.03 1.08 1.05 1.05 1.10 1.14 1.03 0.93 0.79 0.74 0.70 0.66 0.62 0.61 0.59 0.60 0.66 0.73 0.79 0.72 0.67
0.14 0.14 0.15 0.17 0.15 0.17 0.21 0.21 0.21 0.26 0.34 0.39 0.44 0.45 0.48 0.55 0.63 0.71 0.79 0.84 0.87 0.93 1.00 0.99 0.95 0.91 0.93 0.93 0.85 0.84 0.74 0.72 0.65 0.60 0.60 0.60 0.58 0.64 0.77 0.83 0.83 0.70 0.57
0.17 0.17 0.16 0.16 0.15 0.17 0.20 0.23 0.25 0.28 0.35 0.38 0.42 0.43 0.45 0.51 0.58 0.67 0.77 0.82 0.84 0.84 0.83 0.82 0.77 0.74 0.74 0.77 0.72 0.73 0.72 0.71 0.65 0.60 0.59 0.65 0.64 0.74 0.86 0.82 0.80 0.72 0.58
0.17 0.22 0.24 0.25 0.25 0.27 0.28 0.30 0.31 0.34 0.37 0.39 0.43 0.45 0.47 0.51 0.57 0.62 0.65 0.68 0.68 0.65 0.63 0.60 0.57 0.56 0.57 0.61 0.59 0.62 0.65 0.65 0.65 0.62 0.57 0.57 0.72 0.80 0.85 0.77 0.63 0.64 0.71
0.17 0.22 0.27 0.29 0.31 0.32 0.34 0.35 0.37 0.39 0.39 0.40 0.44 0.47 0.47 0.47 0.46 0.47 0.50 0.50 0.50 0.50 0.48 0.48 0.48 0.48 0.50 0.53 0.56 0.59 0.65 0.69 0.63 0.57 0.52 0.54 0.69 0.69 0.65 0.61 0.62 0.69 0.66
0.16 0.19 0.23 0.24 0.25 0.30 0.35 0.38 0.39 0.38 0.36 0.38 0.39 0.39 0.38 0.37 0.37 0.37 0.37 0.39 0.42 0.44 0.46 0.46 0.46 0.46 0.47 0.49 0.57 0.57 0.63 0.68 0.61 0.56 0.58 0.61 0.60 0.55 0.52 0.57 0.61 0.60 0.56
0.13 0.14 0.16 0.18 0.19 0.21 0.25 0.29 0.31 0.30 0.28 0.30 0.29 0.28 0.27 0.27 0.27 0.28 0.29 0.32 0.35 0.37 0.39 0.41 0.41 0.41 0.42 0.41 0.45 0.52 0.57 0.61 0.59 0.59 0.60 0.56 0.52 0.49 0.50 0.56 0.55 0.51 0.55
0.14 0.12 0.11 0.12 0.13 0.14 0.16 0.20 0.22 0.22 0.21 0.22 0.20 0.20 0.20 0.24 0.27 0.27 0.28 0.31 0.33 0.37 0.39 0.38 0.39 0.41 0.41 0.43 0.53 0.57 0.55 0.60 0.62 0.60 0.50 0.47 0.48 0.49 0.47 0.46 0.49 0.52 0.56
0.15 0.12 0.11 0.12 0.12 0.12 0.13 0.14 0.17 0.20 0.21 0.19 0.19 0.19 0.17 0.20 0.26 0.30 0.30 0.34 0.37 0.41 0.45 0.45 0.42 0.39 0.42 0.47 0.51 0.54 0.59 0.63 0.63 0.54 0.47 0.44 0.44 0.45 0.47 0.47 0.47 0.50 0.56

GEFSMW_prec_meanprecacc_156.txt.gz
Total_Precipitation_Accumulation
0.72 0.88 1.13 1.45 1.66 1.76 1.97 2.10 2.31 2.49 2.53 2.44 2.15 1.79 1.55 1.47 1.43 1.29 1.16 1.06 1.00 0.96 0.91 0.86 0.77 0.67 0.59 0.50 0.45 0.41 0.35 0.30 0.29 0.29 0.22 0.14 0.10 0.08 0.07 0.06 0.06 0.05 0.04
0.55 0.70 0.99 1.19 1.37 1.54 1.68 1.91 1.99 2.24 2.30 2.22 2.18 2.02 1.91 1.78 1.68 1.58 1.39 1.26 1.21 1.10 0.99 0.92 0.89 0.78 0.70 0.65 0.62 0.58 0.51 0.44 0.40 0.40 0.39 0.29 0.19 0.12 0.09 0.09 0.09 0.09 0.09
0.45 0.57 0.78 0.99 1.10 1.28 1.54 1.66 1.73 1.96 2.18 2.25 2.39 2.46 2.39 2.10 1.83 1.66 1.58 1.46 1.40 1.30 1.15 1.03 1.00 0.97 0.84 0.76 0.77 0.76 0.71 0.69 0.67 0.62 0.64 0.53 0.35 0.22 0.14 0.11 0.11 0.12 0.12
0.40 0.47 0.54 0.71 0.84 0.96 1.27 1.61 1.74 1.88 2.07 2.34 2.35 2.28 2.14 1.92 1.67 1.65 1.71 1.69 1.59 1.48 1.33 1.22 1.15 1.12 1.06 0.95 0.95 0.95 0.95 0.95 0.90 0.85 0.80 0.73 0.59 0.52 0.35 0.18 0.14 0.14 0.13
0.45 0.44 0.46 0.58 0.70 0.80 1.01 1.29 1.58 1.82 2.01 2.13 2.18 2.24 2.10 1.92 1.86 1.77 1.73 1.66 1.57 1.52 1.43 1.37 1.33 1.28 1.25 1.22 1.23 1.19 1.13 1.09 1.04 0.99 0.95 0.92 0.82 0.71 0.66 0.45 0.28 0.25 0.22
0.47 0.44 0.44 0.53 0.65 0.71 0.83 1.02 1.28 1.47 1.68 1.87 1.96 2.02 2.03 2.03 1.98 1.80 1.68 1.67 1.65 1.61 1.52 1.49 1.49 1.47 1.44 1.40 1.37 1.36 1.35 1.31 1.24 1.20 1.10 1.05 0.99 0.87 0.88 0.79 0.56 0.47 0.39
0.39 0.39 0.43 0.49 0.59 0.66 0.74 0.84 0.95 1.08 1.26 1.44 1.59 1.68 1.81 1.91 1.83 1.73 1.60 1.57 1.54 1.49 1.46 1.45 1.50 1.53 1.50 1.50 1.50 1.49 1.43 1.45 1.44 1.40 1.34 1.25 1.14 1.05 1.07 1.09 0.91 0.74 0.57
0.39 0.37 0.37 0.42 0.51 0.57 0.64 0.70 0.77 0.84 0.99 1.13 1.25 1.39 1.54 1.73 1.72 1.69 1.54 1.41 1.35 1.33 1.39 1.38 1.35 1.36 1.41 1.45 1.45 1.45 1.42 1.42 1.40 1.36 1.33 1.32 1.22 1.20 1.22 1.28 1.34 1.23 0.95
0.40 0.37 0.36 0.38 0.45 0.49 0.54 0.63 0.73 0.77 0.84 0.96 1.09 1.19 1.28 1.39 1.46 1.54 1.57 1.42 1.32 1.29 1.30 1.28 1.22 1.17 1.16 1.23 1.31 1.31 1.31 1.33 1.32 1.30 1.28 1.30 1.26 1.26 1.29 1.37 1.51 1.66 1.49
0.39 0.36 0.38 0.41 0.46 0.47 0.48 0.55 0.70 0.73 0.74 0.81 0.90 0.99 1.08 1.22 1.31 1.35 1.36 1.33 1.27 1.25 1.24 1.20 1.11 1.06 1.01 1.01 1.07 1.09 1.10 1.15 1.14 1.15 1.16 1.16 1.15 1.19 1.24 1.30 1.35 1.49 1.57
0.40 0.40 0.44 0.50 0.52 0.48 0.50 0.55 0.62 0.72 0.76 0.77 0.82 0.86 0.86 0.93 1.08 1.19 1.21 1.22 1.19 1.17 1.15 1.11 1.07 1.02 0.94 0.89 0.88 0.86 0.90 0.97 0.99 1.00 1.00 0.98 0.98 1.04 1.08 1.13 1.17 1.23 1.33
0.37 0.42 0.49 0.51 0.52 0.54 0.56 0.60 0.61 0.67 0.77 0.78 0.79 0.82 0.83 0.83 0.90 1.00 1.10 1.16 1.22 1.15 1.11 1.06 1.02 0.97 0.91 0.86 0.83 0.80 0.78 0.81 0.84 0.86 0.90 0.88 0.89 0.92 0.97 1.03 1.02 1.02 1.04
0.35 0.36 0.43 0.48 0.50 0.53 0.62 0.66 0.69 0.69 0.69 0.72 0.72 0.73 0.72 0.73 0.77 0.83 0.93 1.00 1.08 1.07 1.03 1.03 0.97 0.89 0.85 0.82 0.79 0.77 0.77 0.75 0.74 0.77 0.83 0.85 0.89 0.93 0.95 0.97 0.96 0.94 0.96
0.33 0.34 0.39 0.43 0.46 0.52 0.56 0.56 0.63 0.65 0.65 0.64 0.69 0.71 0.67 0.67 0.72 0.80 0.85 0.89 0.93 0.99 0.97 0.96 0.98 0.97 0.90 0.87 0.84 0.80 0.79 0.80 0.80 0.79 0.83 0.86 0.86 0.84 0.83 0.85 0.84 0.87 0.92
0.30 0.34 0.37 0.40 0.42 0.41 0.41 0.43 0.49 0.55 0.57 0.58 0.66 0.70 0.71 0.74 0.82 0.86 0.83 0.84 0.85 0.90 0.93 0.93 0.96 0.97 0.95 0.92 0.90 0.88 0.88 0.92 0.94 0.91 0.87 0.85 0.86 0.83 0.80 0.80 0.81 0.85 0.91
0.24 0.25 0.30 0.36 0.38 0.37 0.36 0.36 0.39 0.44 0.45 0.46 0.52 0.58 0.65 0.73 0.81 0.88 0.87 0.83 0.81 0.85 0.90 0.90 0.94 1.00 1.02 1.12 1.07 0.97 0.95 0.96 0.94 0.90 0.83 0.80 0.82 0.79 0.80 0.80 0.80 0.87 0.98
0.18 0.19 0.22 0.27 0.29 0.29 0.31 0.33 0.34 0.38 0.41 0.40 0.41 0.47 0.58 0.67 0.71 0.77 0.84 0.84 0.84 0.92 1.00 1.01 1.01 1.06 1.16 1.23 1.06 0.98 0.91 0.89 0.87 0.81 0.76 0.71 0.68 0.71 0.65 0.69 0.76 0.80 0.90
0.14 0.15 0.18 0.21 0.21 0.22 0.24 0.25 0.26 0.32 0.40 0.43 0.46 0.49 0.53 0.61 0.70 0.75 0.81 0.87 0.89 0.97 1.07 1.11 1.08 1.08 1.14 1.17 1.06 0.96 0.82 0.76 0.73 0.68 0.64 0.63 0.61 0.62 0.67 0.74 0.80 0.74 0.69
0.14 0.14 0.15 0.17 0.15 0.17 0.21 0.21 0.21 0.26 0.34 0.40 0.45 0.45 0.49 0.57 0.66 0.76 0.84 0.89 0.93 0.98 1.03 1.03 0.98 0.95 0.97 0.98 0.90 0.88 0.77 0.75 0.68 0.63 0.61 0.61 0.59 0.66 0.79 0.84 0.84 0.71 0.59
0.17 0.17 0.16 0.16 0.15 0.17 0.20 0.23 0.25 0.28 0.35 0.38 0.43 0.44 0.46 0.53 0.61 0.70 0.80 0.87 0.88 0.88 0.87 0.86 0.81 0.79 0.79 0.83 0.78 0.78 0.75 0.75 0.68 0.63 0.62 0.67 0.66 0.76 0.88 0.83 0.82 0.73 0.59
0.17 0.22 0.24 0.25 0.25 0.27 0.28 0.30 0.31 0.34 0.37 0.39 0.43 0.45 0.47 0.51 0.58 0.63 0.67 0.70 0.70 0.68 0.66 0.64 0.61 0.59 0.61 0.65 0.65 0.67 0.70 0.70 0.70 0.67 0.61 0.61 0.75 0.84 0.88 0.79 0.65 0.65 0.73
0.17 0.22 0.27 0.29 0.31 0.32 0.34 0.35 0.37 0.39 0.39 0.41 0.44 0.47 0.47 0.47 0.46 0.48 0.51 0.51 0.52 0.51 0.50 0.51 0.50 0.50 0.53 0.56 0.59 0.63 0.69 0.74 0.68 0.62 0.56 0.58 0.73 0.73 0.69 0.64 0.64 0.71 0.67
0.16 0.19 0.23 0.24 0.25 0.30 0.36 0.39 0.39 0.38 0.36 0.39 0.39 0.39 0.38 0.37 0.37 0.37 0.37 0.40 0.43 0.46 0.48 0.48 0.48 0.48 0.49 0.51 0.59 0.60 0.66 0.72 0.65 0.60 0.63 0.65 0.65 0.59 0.55 0.59 0.62 0.61 0.58
0.13 0.14 0.16 0.18 0.19 0.21 0.25 0.30 0.31 0.30 0.28 0.30 0.29 0.28 0.27 0.27 0.28 0.28 0.30 0.33 0.36 0.38 0.40 0.43 0.43 0.43 0.44 0.43 0.47 0.54 0.58 0.63 0.62 0.64 0.65 0.60 0.55 0.53 0.53 0.58 0.57 0.52 0.57
0.14 0.12 0.11 0.12 0.13 0.14 0.16 0.20 0.22 0.22 0.22 0.22 0.21 0.20 0.20 0.24 0.27 0.27 0.28 0.32 0.34 0.39 0.41 0.40 0.40 0.42 0.43 0.45 0.55 0.59 0.57 0.62 0.64 0.63 0.53 0.50 0.51 0.51 0.49 0.48 0.50 0.54 0.58
0.15 0.12 0.11 0.12 0.12 0.13 0.13 0.14 0.17 0.20 0.21 0.20 0.19 0.20 0.17 0.20 0.26 0.30 0.31 0.35 0.38 0.43 0.47 0.47 0.43 0.40 0.44 0.49 0.53 0.57 0.62 0.66 0.66 0.58 0.50 0.47 0.47 0.48 0.49 0.49 0.49 0.52 0.58

GEFSMW_prec_meanprecacc_162.txt.gz
Total_Precipitation_Accumulation
0.72 0.88 1.13 1.45 1.66 1.77 1.99 2.11 2.32 2.52 2.57 2.47 2.16 1.80 1.57 1.49 1.45 1.31 1.17 1.09 1.03 0.99 0.96 0.93 0.85 0.75 0.65 0.57 0.53 0.50 0.47 0.44 0.44 0.42 0.32 0.21 0.15 0.12 0.09 0.08 0.07 0.06 0.06
0.55 0.70 0.99 1.19 1.37 1.54 1.69 1.93 2.00 2.25 2.32 2.25 2.21 2.03 1.92 1.80 1.70 1.60 1.41 1.28 1.22 1.12 1.02 0.96 0.94 0.85 0.77 0.73 0.73 0.69 0.64 0.58 0.56 0.56 0.53 0.40 0.27 0.18 0.12 0.11 0.10 0.10 0.10
0.45 0.57 0.78 0.99 1.10 1.28 1.55 1.67 1.73 1.97 2.19 2.27 2.40 2.47 2.41 2.11 1.84 1.68 1.59 1.47 1.41 1.31 1.18 1.06 1.04 1.01 0.89 0.81 0.83 0.86 0.85 0.85 0.82 0.77 0.81 0.70 0.47 0.31 0.20 0.15 0.13 0.13 0.13
0.40 0.47 0.54 0.71 0.84 0.96 1.27 1.61 1.75 1.88 2.08 2.35 2.36 2.30 2.16 1.94 1.68 1.67 1.72 1.70 1.60 1.49 1.35 1.25 1.18 1.15 1.09 0.99 1.00 1.02 1.05 1.09 1.07 1.02 0.94 0.86 0.69 0.62 0.44 0.24 0.18 0.17 0.15
0.45 0.44 0.46 0.58 0.70 0.80 1.01 1.29 1.58 1.82 2.02 2.15 2.20 2.25 2.11 1.93 1.87 1.79 1.76 1.67 1.58 1.53 1.45 1.39 1.35 1.30 1.27 1.25 1.27 1.24 1.21 1.19 1.17 1.14 1.10 1.07 0.95 0.81 0.74 0.52 0.34 0.30 0.26
0.47 0.44 0.44 0.53 0.65 0.71 0.84 1.02 1.28 1.48 1.69 1.89 1.99 2.05 2.05 2.04 1.99 1.82 1.72 1.71 1.69 1.63 1.53 1.51 1.50 1.49 1.47 1.43 1.40 1.40 1.41 1.39 1.33 1.29 1.20 1.15 1.09 0.95 0.96 0.86 0.62 0.54 0.46
0.39 0.39 0.43 0.49 0.59 0.66 0.75 0.84 0.95 1.08 1.26 1.45 1.60 1.70 1.82 1.92 1.84 1.74 1.62 1.61 1.59 1.54 1.50 1.47 1.51 1.55 1.53 1.54 1.55 1.53 1.48 1.49 1.50 1.47 1.41 1.31 1.20 1.10 1.13 1.15 0.97 0.80 0.63
0.39 0.37 0.37 0.42 0.51 0.57 0.64 0.71 0.77 0.85 1.00 1.14 1.26 1.41 1.56 1.74 1.73 1.71 1.56 1.44 1.40 1.40 1.48 1.43 1.36 1.38 1.43 1.47 1.48 1.49 1.45 1.45 1.43 1.40 1.39 1.38 1.28 1.25 1.28 1.34 1.41 1.31 1.02
0.40 0.37 0.36 0.38 0.45 0.49 0.54 0.63 0.73 0.78 0.85 0.97 1.10 1.22 1.31 1.42 1.49 1.57 1.59 1.44 1.37 1.36 1.38 1.33 1.26 1.19 1.18 1.25 1.33 1.34 1.34 1.35 1.35 1.33 1.32 1.35 1.31 1.32 1.35 1.44 1.59 1.76 1.59
0.39 0.36 0.38 0.41 0.46 0.47 0.48 0.56 0.71 0.74 0.74 0.81 0.91 1.00 1.10 1.25 1.34 1.38 1.39 1.35 1.31 1.31 1.30 1.24 1.15 1.09 1.06 1.05 1.11 1.12 1.12 1.17 1.17 1.19 1.21 1.21 1.19 1.24 1.30 1.36 1.43 1.57 1.66
0.40 0.40 0.44 0.50 0.53 0.48 0.50 0.55 0.62 0.73 0.77 0.77 0.82 0.86 0.87 0.95 1.10 1.22 1.24 1.26 1.23 1.21 1.20 1.17 1.12 1.06 0.99 0.94 0.93 0.90 0.94 1.01 1.02 1.05 1.06 1.03 1.02 1.08 1.12 1.17 1.24 1.31 1.41
0.37 0.42 0.49 0.51 0.52 0.54 0.56 0.60 0.62 0.67 0.77 0.78 0.79 0.83 0.84 0.85 0.93 1.02 1.13 1.20 1.27 1.20 1.16 1.12 1.07 1.02 0.97 0.92 0.90 0.85 0.84 0.87 0.91 0.94 0.98 0.97 0.95 0.97 1.01 1.07 1.07 1.07 1.10
0.35 0.36 0.43 0.48 0.50 0.53 0.62 0.66 0.69 0.69 0.69 0.72 0.73 0.73 0.73 0.75 0.80 0.86 0.96 1.03 1.12 1.12 1.09 1.09 1.03 0.95 0.91 0.89 0.86 0.82 0.82 0.82 0.82 0.85 0.92 0.95 0.98 1.00 1.00 1.01 1.01 1.00 1.01
0.33 0.34 0.39 0.43 0.46 0.52 0.56 0.56 0.63 0.65 0.66 0.65 0.70 0.71 0.68 0.68 0.74 0.82 0.87 0.91 0.96 1.02 1.02 1.04 1.07 1.05 0.98 0.94 0.91 0.87 0.83 0.85 0.85 0.85 0.89 0.92 0.92 0.89 0.88 0.90 0.89 0.92 0.96
0.30 0.34 0.37 0.40 0.42 0.41 0.41 0.43 0.49 0.56 0.58 0.59 0.66 0.70 0.72 0.75 0.85 0.88 0.85 0.85 0.87 0.93 0.97 0.97 1.03 1.05 1.04 1.01 0.99 0.95 0.93 0.96 0.98 0.95 0.92 0.90 0.92 0.88 0.84 0.84 0.85 0.88 0.93
0.24 0.25 0.30 0.36 0.38 0.37 0.36 0.36 0.39 0.44 0.46 0.47 0.53 0.59 0.66 0.75 0.84 0.91 0.89 0.86 0.83 0.89 0.95 0.94 0.99 1.07 1.09 1.20 1.16 1.05 1.01 1.01 0.99 0.95 0.87 0.83 0.85 0.83 0.85 0.85 0.84 0.90 1.00
0.18 0.19 0.22 0.27 0.29 0.29 0.31 0.33 0.34 0.38 0.41 0.40 0.42 0.49 0.61 0.71 0.75 0.81 0.87 0.88 0.88 0.97 1.06 1.06 1.07 1.14 1.25 1.30 1.12 1.05 0.96 0.95 0.91 0.85 0.79 0.74 0.72 0.75 0.69 0.74 0.80 0.83 0.93
0.14 0.15 0.18 0.21 0.21 0.22 0.24 0.25 0.26 0.32 0.40 0.44 0.46 0.50 0.56 0.65 0.75 0.79 0.85 0.91 0.94 1.01 1.10 1.16 1.17 1.18 1.22 1.23 1.11 1.02 0.86 0.82 0.78 0.73 0.67 0.65 0.64 0.65 0.71 0.78 0.84 0.76 0.71
0.14 0.14 0.15 0.17 0.15 0.17 0.21 0.21 0.21 0.26 0.34 0.40 0.46 0.46 0.51 0.59 0.70 0.79 0.88 0.93 0.97 1.02 1.08 1.07 1.04 1.01 1.03 1.03 0.94 0.91 0.81 0.78 0.72 0.67 0.65 0.65 0.62 0.69 0.83 0.88 0.88 0.74 0.61
0.17 0.17 0.16 0.16 0.15 0.17 0.20 0.23 0.25 0.28 0.35 0.39 0.44 0.45 0.48 0.54 0.63 0.73 0.82 0.89 0.91 0.91 0.91 0.89 0.84 0.82 0.83 0.89 0.81 0.81 0.78 0.78 0.71 0.66 0.65 0.71 0.70 0.79 0.90 0.86 0.85 0.77 0.61
0.17 0.22 0.24 0.25 0.25 0.27 0.28 0.30 0.31 0.34 0.37 0.40 0.44 0.47 0.49 0.53 0.60 0.65 0.68 0.72 0.71 0.69 0.68 0.66 0.63 0.63 0.66 0.71 0.70 0.71 0.73 0.73 0.73 0.71 0.65 0.65 0.80 0.88 0.92 0.82 0.67 0.68 0.75
0.17 0.22 0.27 0.29 0.31 0.33 0.34 0.35 0.37 0.39 0.39 0.41 0.45 0.48 0.49 0.48 0.47 0.49 0.53 0.53 0.53 0.52 0.51 0.52 0.52 0.53 0.57 0.61 0.64 0.68 0.73 0.78 0.71 0.66 0.60 0.63 0.78 0.78 0.73 0.67 0.67 0.75 0.70
0.16 0.19 0.23 0.24 0.25 0.30 0.36 0.39 0.39 0.38 0.37 0.39 0.41 0.40 0.40 0.38 0.39 0.38 0.39 0.41 0.44 0.47 0.49 0.49 0.50 0.50 0.51 0.54 0.62 0.63 0.70 0.75 0.69 0.64 0.68 0.71 0.71 0.65 0.60 0.63 0.66 0.64 0.61
0.13 0.14 0.16 0.18 0.19 0.21 0.25 0.30 0.31 0.30 0.29 0.31 0.30 0.29 0.28 0.29 0.29 0.29 0.30 0.33 0.37 0.39 0.41 0.44 0.44 0.44 0.45 0.45 0.49 0.56 0.61 0.66 0.64 0.67 0.69 0.65 0.61 0.59 0.59 0.63 0.61 0.55 0.59
0.14 0.12 0.11 0.12 0.13 0.14 0.16 0.20 0.22 0.22 0.22 0.23 0.21 0.21 0.21 0.25 0.28 0.28 0.29 0.32 0.35 0.40 0.42 0.40 0.41 0.43 0.44 0.46 0.56 0.61 0.59 0.64 0.67 0.66 0.57 0.52 0.53 0.55 0.54 0.53 0.56 0.58 0.61
0.15 0.12 0.11 0.12 0.12 0.13 0.13 0.14 0.17 0.20 0.21 0.20 0.20 0.20 0.18 0.21 0.27 0.30 0.31 0.35 0.38 0.43 0.47 0.47 0.44 0.41 0.45 0.50 0.54 0.58 0.63 0.68 0.68 0.60 0.53 0.50 0.49 0.50 0.52 0.52 0.53 0.57 0.62